[[{"header":{"parameterUnit":"m.s-1","parameterCategory":1,"la1":31.0,"la2":29.5877,"lo1":-88.7671,"lo2":-86.6584,"dy":0.0162,"dx":0.0185,"nx":115,"ny":88,"refTime":"2024-05-07T12:00:00:Z","depth":0,"parameterNumber":2,"parameterNumberName":"U-component_of_WINDS"},"data":[0.0,0.0,0.0,0.0,0.0,0.0,0.0,0.0,0.0,0.0,0.0,0.0,0.0,0.0,0.0,0.0,0.0,0.0,0.0,0.0,0.0,0.0,0.0,0.0,0.0,0.0,0.0,0.0,0.0,0.0,0.0,0.0,0.0,0.0,0.0,0.0,0.0,0.0,0.0,0.0,0.0,0.0,0.0,0.0,0.0,0.0,0.0,0.0,0.0,0.0,0.0,0.0,0.0,0.0,0.0,0.0,0.0,0.0,0.0,0.0,0.0,0.0,0.0,0.0,0.0,0.0,0.0,0.0,0.0,0.0,0.0,0.0,0.0,0.0,0.0,0.0,0.0,0.0,0.0,0.0,0.0,0.0,0.0,0.0,0.0,0.0,0.0,0.0,0.0,0.0,0.0,0.0,0.0,0.0,0.0,0.0,0.0,0.0,0.0,0.0,0.0,0.0,0.0,0.0,0.0,0.0,0.0,0.0,0.0,0.0,0.0,0.0,0.0,0.0,0.0,0.0,0.0,0.0,0.0,0.0,0.0,0.0,0.0,0.0,0.0,0.0,0.0,0.0,0.0,0.0,0.0,0.0,0.0,0.0,0.0,0.0,0.0,0.0,0.0,0.0,0.0,0.0,0.0,0.0,0.0,0.0,0.0,0.0,0.0,0.0,0.0,0.0,0.0,0.0,0.0,0.0,0.0,0.0,0.0,0.0,0.0,0.0,0.0,0.0,0.0,0.0,0.0,0.0,0.0,0.0,0.0,0.0,0.0,0.0,0.0,0.0,0.0,0.0,0.0,0.0,0.0,0.0,0.0,0.0,0.0,0.0,0.0,0.0,0.0,0.0,0.0,0.0,0.0,0.0,0.0,0.0,0.0,0.0,0.0,0.0,0.0,0.0,0.0,0.0,0.0,0.0,0.0,0.0,0.0,0.0,0.0,0.0,0.0,0.0,0.0,0.0,0.0,0.0,0.0,0.0,0.0,0.0,0.0,0.0,0.0,0.0,0.0,0.0,0.0,0.0,0.0,0.0,0.0,0.0,0.0,0.0,0.0,0.0,0.0,0.0,0.0,0.0,0.0,0.0,0.0,0.0,0.0,0.0,0.0,0.0,0.0,0.0,0.0,0.0,0.0,0.0,0.0,0.0,0.0,0.0,0.0,0.0,0.0,0.0,0.0,0.0,0.0,0.0,0.0,0.0,0.0,0.0,0.0,0.0,0.0,0.0,0.0,0.0,0.0,0.0,0.0,0.0,0.0,0.0,0.0,0.0,0.0,0.0,0.0,0.0,0.0,0.0,0.0,0.0,0.0,0.0,0.0,0.0,0.0,0.0,0.0,0.0,0.0,0.0,0.0,0.0,0.0,0.0,0.0,0.0,0.0,0.0,0.0,0.0,0.0,0.0,0.0,0.0,0.0,0.0,0.0,0.0,0.0,0.0,0.0,0.0,0.0,0.0,0.0,0.0,0.0,0.0,0.0,0.0,0.0,0.0,0.0,0.0,0.0,0.0,0.0,0.0,0.0,0.0,0.0,0.0,0.0,0.0,0.0,0.0,0.0,0.0,0.0,0.0,0.0,0.0,0.0,0.0,0.0,0.0,0.0,0.0,0.0,0.0,0.0,0.0,0.0,0.0,0.0,0.0,0.0,0.0,0.0,0.0,0.0,0.0,0.0,0.0,0.0,0.0,0.0,0.0,0.0,0.0,0.0,0.0,0.0,0.0,0.0,0.0,0.0,0.0,0.0,0.0,0.0,0.0,0.0,0.0,0.0,0.0,0.0,0.0,0.0,0.0,0.0,0.0,0.0,0.0,0.0,0.0,0.0,0.0,0.0,0.0,0.0,0.0,0.0,0.0,0.0,0.0,0.0,0.0,0.0,0.0,0.0,0.0,0.0,0.0,0.0,0.0,0.0,0.0,0.0,0.0,0.0,0.0,0.0,0.0,0.0,0.0,0.0,0.0,0.0,0.0,0.0,0.0,0.0,0.0,0.0,0.0,0.0,0.0,0.0,0.0,0.0,0.0,0.0,0.0,0.0,0.0,0.0,0.0,0.0,0.0,0.0,0.0,0.0,0.0,0.0,0.0,0.0,0.0,0.0,0.0,0.0,0.0,0.0,0.0,0.0,0.0,0.0,0.0,0.0,0.0,0.0,0.0,0.0,0.0,0.0,0.0,0.0,0.0,0.0,0.0,0.0,0.0,0.0,0.0,0.0,0.0,0.0,0.0,0.0,0.0,0.0,0.0,0.0,0.0,0.0,0.0,0.0,0.0,0.0,0.0,0.0,0.0,0.0,0.0,0.0,0.0,0.0,0.0,0.0,0.0,0.0,0.0,0.0,0.0,0.0,0.0,0.0,0.0,0.0,0.0,0.0,0.0,0.0,0.0,0.0,0.0,0.0,0.0,0.0,0.0,0.0,0.0,0.0,0.0,0.0,0.0,0.0,0.0,0.0,0.0,0.0,0.0,0.0,0.0,0.0,0.0,0.0,0.0,0.0,0.0,0.0,0.0,0.0,0.0,0.0,0.0,0.0,0.0,0.0,0.0,0.0,0.0,0.0,0.0,0.0,0.0,0.0,0.0,0.0,0.0,0.0,0.0,0.0,0.0,0.0,0.0,0.0,0.0,0.0,0.0,0.0,0.0,0.0,0.0,0.0,0.0,0.0,0.0,0.0,0.0,0.0,0.0,0.0,0.0,0.0,0.0,0.0,0.0,0.0,0.0,0.0,0.0,0.0,0.0,0.0,0.0,0.0,0.0,0.0,0.0,0.0,0.0,0.0,0.0,0.0,0.0,0.0,0.0,0.0,0.0,0.0,0.0,0.0,0.0,0.0,0.0,0.0,0.0,0.0,0.0,0.0,0.0,0.0,0.0,0.0,0.0,0.0,0.0,0.0,0.0,0.0,0.0,0.0,0.0,0.0,0.0,0.0,0.0,0.0,0.0,0.0,0.0,0.0,0.0,0.0,0.0,0.0,0.0,0.0,0.0,0.0,0.0,0.0,0.0,0.0,0.0,0.0,0.0,0.0,0.0,0.0,0.0,0.0,0.0,0.0,0.0,0.0,0.0,0.0,0.0,0.0,0.0,0.0,0.0,0.0,0.0,0.0,0.0,0.0,0.0,0.0,0.0,0.0,0.0,0.0,0.0,0.0,0.0,0.0,0.0,0.0,0.0,0.0,0.0,0.0,0.0,0.0,0.0,0.0,0.0,0.0,0.0,0.0,0.0,0.0,0.0,0.0,0.0,0.0,0.0,0.0,0.0,0.0,0.0,0.0,0.0,0.0,0.0,0.0,0.0,0.0,0.0,0.0,0.0,0.0,0.0,0.0,0.0,0.0,0.0,0.0,0.0,0.0,0.0,0.0,0.0,0.0,0.0,0.0,0.0,0.0,0.0,0.0,0.0,0.0,0.0,0.0,0.0,0.0,0.0,0.0,0.0,0.0,0.0,0.0,0.0,0.0,0.0,0.0,0.0,0.0,0.0,0.0,0.0,0.0,0.0,0.0,0.0,0.0,0.0,0.0,0.0,0.0,0.0,0.0,0.0,0.0,0.0,0.0,0.0,0.0,0.0,0.0,0.0,0.0,0.0,0.0,0.0,0.0,0.0,0.0,0.0,0.0,0.0,0.0,0.0,0.0,0.0,0.0,0.0,0.0,0.0,0.0,0.0,0.0,0.0,0.0,0.0,0.0,0.0,0.0,0.0,0.0,0.0,0.0,0.0,0.0,0.0,0.0,0.0,0.0,0.0,0.0,0.0,0.0,0.0,0.0,0.0,0.0,0.0,0.0,0.0,0.0,0.0,0.0,0.0,0.0,0.0,0.0,0.0,0.0,0.0,0.0,0.0,0.0,0.0,0.0,0.0,0.0,0.0,0.0,0.0,0.0,0.0,0.0,0.0,0.0,0.0,0.0,0.0,0.0,0.0,0.0,0.0,0.0,0.0,0.0,0.0,0.0,0.0,0.0,0.0,0.0,0.0,0.0,0.0,0.0,0.0,0.0,0.0,0.0,0.0,0.0,0.0,0.0,0.0,0.0,0.0,0.0,0.0,0.0,0.0,0.0,0.0,0.0,0.0,0.0,0.0,0.0,0.0,0.0,0.0,0.0,0.0,0.0,0.0,0.0,0.0,0.0,0.0,0.0,0.0,0.0,0.0,0.0,0.0,0.0,0.0,0.0,0.0,0.0,0.0,0.0,0.0,0.0,0.0,0.0,0.0,0.0,0.0,0.0,0.0,0.0,0.0,0.0,0.0,0.0,0.0,0.0,0.0,0.0,0.0,-3.6555,0.0,0.0,0.0,0.0,0.0,0.0,0.0,0.0,0.0,0.0,0.0,0.0,0.0,0.0,0.0,0.0,0.0,0.0,0.0,0.0,0.0,0.0,0.0,0.0,0.0,0.0,0.0,0.0,0.0,0.0,0.0,0.0,0.0,0.0,0.0,0.0,0.0,0.0,0.0,0.0,0.0,0.0,0.0,0.0,0.0,0.0,0.0,0.0,0.0,0.0,0.0,0.0,0.0,0.0,0.0,0.0,0.0,0.0,0.0,0.0,0.0,0.0,0.0,0.0,0.0,0.0,0.0,0.0,0.0,0.0,0.0,0.0,0.0,0.0,0.0,0.0,0.0,0.0,0.0,0.0,0.0,0.0,0.0,0.0,0.0,0.0,0.0,0.0,0.0,0.0,0.0,0.0,0.0,0.0,0.0,0.0,0.0,0.0,0.0,0.0,0.0,0.0,0.0,0.0,0.0,0.0,0.0,0.0,0.0,0.0,-3.6779,-3.6766,-3.6844,-3.6903,-3.6864,0.0,0.0,0.0,0.0,0.0,0.0,0.0,0.0,0.0,0.0,0.0,0.0,0.0,0.0,0.0,0.0,0.0,0.0,0.0,0.0,0.0,0.0,0.0,0.0,0.0,0.0,0.0,0.0,0.0,0.0,0.0,0.0,0.0,0.0,0.0,0.0,0.0,0.0,0.0,0.0,0.0,0.0,0.0,0.0,0.0,0.0,0.0,0.0,0.0,0.0,0.0,0.0,0.0,0.0,0.0,0.0,0.0,0.0,0.0,0.0,0.0,0.0,0.0,0.0,0.0,0.0,0.0,0.0,0.0,0.0,0.0,0.0,0.0,0.0,0.0,0.0,0.0,0.0,0.0,0.0,0.0,0.0,0.0,0.0,0.0,0.0,0.0,0.0,0.0,0.0,0.0,0.0,0.0,0.0,0.0,0.0,0.0,0.0,0.0,0.0,0.0,0.0,0.0,0.0,0.0,0.0,0.0,0.0,0.0,0.0,0.0,0.0,-3.7745,-3.7572,-3.7218,0.0,0.0,0.0,0.0,0.0,0.0,0.0,0.0,0.0,0.0,0.0,0.0,0.0,0.0,0.0,0.0,0.0,0.0,0.0,0.0,0.0,0.0,0.0,0.0,0.0,0.0,0.0,0.0,0.0,0.0,0.0,0.0,0.0,0.0,0.0,0.0,0.0,0.0,0.0,0.0,0.0,0.0,0.0,0.0,0.0,0.0,0.0,0.0,0.0,0.0,0.0,0.0,0.0,0.0,0.0,0.0,0.0,0.0,0.0,0.0,0.0,0.0,0.0,0.0,0.0,0.0,0.0,0.0,0.0,0.0,0.0,0.0,0.0,0.0,0.0,0.0,0.0,0.0,0.0,0.0,0.0,0.0,0.0,0.0,0.0,0.0,0.0,0.0,0.0,0.0,0.0,0.0,0.0,0.0,0.0,0.0,0.0,0.0,0.0,0.0,0.0,0.0,0.0,0.0,0.0,0.0,0.0,0.0,0.0,0.0,-3.8716,-4.0198,-4.0295,0.0,-3.8369,0.0,0.0,0.0,0.0,0.0,0.0,0.0,0.0,0.0,0.0,0.0,0.0,0.0,0.0,0.0,0.0,0.0,0.0,0.0,0.0,0.0,0.0,0.0,0.0,0.0,0.0,0.0,0.0,0.0,0.0,0.0,0.0,0.0,0.0,0.0,0.0,0.0,0.0,0.0,0.0,0.0,0.0,0.0,0.0,0.0,0.0,0.0,0.0,0.0,0.0,0.0,0.0,0.0,0.0,0.0,0.0,0.0,0.0,0.0,0.0,0.0,0.0,0.0,0.0,0.0,0.0,0.0,0.0,0.0,0.0,0.0,0.0,0.0,0.0,0.0,0.0,0.0,0.0,0.0,0.0,0.0,0.0,0.0,0.0,0.0,0.0,0.0,0.0,0.0,0.0,0.0,0.0,0.0,0.0,0.0,0.0,0.0,0.0,0.0,0.0,0.0,0.0,0.0,0.0,0.0,0.0,0.0,0.0,0.0,0.0,-3.8684,-3.9872,-3.9908,-3.9176,0.0,0.0,0.0,0.0,0.0,0.0,0.0,0.0,0.0,0.0,0.0,0.0,0.0,0.0,0.0,0.0,0.0,0.0,0.0,0.0,0.0,0.0,0.0,0.0,0.0,0.0,0.0,0.0,0.0,0.0,0.0,0.0,0.0,0.0,0.0,0.0,0.0,0.0,0.0,0.0,0.0,0.0,0.0,0.0,0.0,0.0,0.0,0.0,0.0,0.0,0.0,0.0,0.0,0.0,0.0,0.0,0.0,0.0,0.0,0.0,0.0,0.0,0.0,0.0,0.0,0.0,0.0,0.0,0.0,0.0,0.0,0.0,0.0,0.0,0.0,0.0,0.0,0.0,0.0,0.0,0.0,0.0,0.0,0.0,0.0,0.0,0.0,0.0,0.0,0.0,0.0,0.0,0.0,0.0,0.0,0.0,0.0,0.0,0.0,0.0,0.0,0.0,0.0,0.0,0.0,0.0,0.0,0.0,0.0,0.0,-3.7964,-3.8999,-4.0002,-3.9644,-3.8777,-3.7409,0.0,0.0,0.0,0.0,0.0,0.0,0.0,0.0,0.0,0.0,0.0,0.0,0.0,0.0,0.0,0.0,0.0,0.0,0.0,0.0,0.0,0.0,0.0,0.0,0.0,0.0,0.0,0.0,0.0,0.0,0.0,0.0,0.0,0.0,0.0,0.0,0.0,0.0,0.0,0.0,0.0,0.0,0.0,0.0,0.0,0.0,0.0,0.0,0.0,0.0,0.0,0.0,0.0,0.0,0.0,0.0,0.0,0.0,0.0,0.0,0.0,0.0,0.0,0.0,0.0,0.0,0.0,0.0,0.0,0.0,0.0,0.0,0.0,0.0,0.0,0.0,0.0,0.0,0.0,0.0,0.0,0.0,0.0,0.0,0.0,0.0,0.0,0.0,0.0,0.0,0.0,0.0,0.0,0.0,0.0,0.0,0.0,0.0,0.0,0.0,0.0,0.0,0.0,0.0,0.0,0.0,0.0,0.0,-4.0191,-3.9662,-4.0118,-4.1637,-4.0314,-3.9098,0.0,0.0,0.0,0.0,0.0,0.0,0.0,0.0,0.0,0.0,0.0,0.0,0.0,0.0,0.0,0.0,0.0,0.0,0.0,0.0,0.0,0.0,0.0,0.0,0.0,0.0,0.0,0.0,0.0,0.0,0.0,0.0,0.0,0.0,0.0,0.0,0.0,0.0,0.0,0.0,0.0,0.0,0.0,0.0,0.0,0.0,0.0,0.0,0.0,0.0,0.0,0.0,0.0,0.0,0.0,0.0,0.0,0.0,0.0,0.0,0.0,0.0,0.0,0.0,0.0,0.0,0.0,0.0,0.0,0.0,0.0,0.0,0.0,0.0,0.0,0.0,0.0,0.0,0.0,0.0,0.0,0.0,0.0,0.0,0.0,0.0,0.0,0.0,0.0,0.0,0.0,0.0,0.0,0.0,0.0,0.0,0.0,0.0,0.0,0.0,0.0,0.0,0.0,0.0,0.0,0.0,0.0,0.0,0.0,-3.7405,-3.8157,-3.9371,-4.0945,-3.9476,-3.8723,0.0,0.0,0.0,0.0,0.0,0.0,0.0,0.0,0.0,0.0,0.0,0.0,0.0,0.0,0.0,0.0,0.0,0.0,0.0,0.0,0.0,0.0,0.0,0.0,0.0,0.0,0.0,0.0,0.0,0.0,0.0,0.0,0.0,0.0,0.0,0.0,0.0,0.0,0.0,0.0,0.0,0.0,0.0,0.0,0.0,0.0,0.0,0.0,0.0,0.0,0.0,0.0,0.0,0.0,0.0,0.0,0.0,0.0,0.0,0.0,0.0,0.0,0.0,0.0,0.0,0.0,0.0,0.0,0.0,0.0,0.0,0.0,0.0,0.0,0.0,0.0,0.0,0.0,0.0,0.0,0.0,0.0,0.0,0.0,0.0,0.0,0.0,0.0,0.0,0.0,0.0,0.0,0.0,0.0,0.0,0.0,0.0,0.0,0.0,0.0,0.0,0.0,0.0,0.0,0.0,0.0,0.0,0.0,0.0,-3.7212,0.0,-3.9448,-4.046,-3.8985,-3.8132,0.0,0.0,0.0,0.0,0.0,0.0,0.0,0.0,0.0,0.0,0.0,0.0,0.0,0.0,0.0,0.0,0.0,0.0,0.0,0.0,0.0,0.0,0.0,0.0,0.0,0.0,0.0,0.0,0.0,0.0,0.0,0.0,0.0,0.0,0.0,0.0,0.0,0.0,0.0,0.0,0.0,0.0,0.0,0.0,0.0,0.0,0.0,0.0,0.0,0.0,0.0,0.0,0.0,0.0,0.0,0.0,0.0,0.0,0.0,0.0,0.0,0.0,0.0,0.0,0.0,0.0,0.0,0.0,0.0,0.0,0.0,0.0,0.0,0.0,0.0,0.0,0.0,0.0,0.0,0.0,0.0,0.0,0.0,0.0,0.0,0.0,0.0,0.0,0.0,0.0,0.0,0.0,0.0,0.0,0.0,0.0,0.0,0.0,0.0,0.0,0.0,0.0,0.0,0.0,0.0,0.0,0.0,0.0,-3.7234,-4.041,-4.0493,-4.0458,-4.0591,-3.8954,-3.7353,0.0,0.0,0.0,0.0,0.0,0.0,0.0,0.0,0.0,0.0,0.0,0.0,0.0,0.0,0.0,0.0,0.0,0.0,0.0,0.0,0.0,0.0,0.0,0.0,0.0,0.0,0.0,0.0,0.0,0.0,0.0,0.0,0.0,0.0,0.0,0.0,0.0,0.0,0.0,0.0,0.0,0.0,0.0,0.0,0.0,0.0,0.0,0.0,0.0,0.0,0.0,0.0,0.0,0.0,0.0,0.0,0.0,0.0,0.0,0.0,0.0,0.0,0.0,0.0,0.0,0.0,0.0,0.0,0.0,0.0,0.0,0.0,0.0,0.0,0.0,0.0,0.0,0.0,0.0,0.0,0.0,0.0,0.0,0.0,0.0,0.0,0.0,0.0,0.0,0.0,0.0,0.0,0.0,0.0,0.0,0.0,0.0,0.0,0.0,0.0,0.0,0.0,0.0,0.0,0.0,0.0,0.0,0.0,0.0,-3.8046,-3.8614,-3.97,-4.1299,-3.8642,-3.7756,0.0,0.0,0.0,0.0,0.0,0.0,0.0,0.0,0.0,0.0,0.0,0.0,0.0,0.0,0.0,0.0,0.0,0.0,0.0,0.0,0.0,0.0,0.0,0.0,0.0,0.0,0.0,0.0,0.0,0.0,0.0,0.0,0.0,0.0,0.0,0.0,0.0,0.0,0.0,0.0,0.0,0.0,0.0,0.0,0.0,0.0,0.0,0.0,0.0,0.0,0.0,0.0,0.0,0.0,0.0,0.0,0.0,0.0,0.0,0.0,0.0,0.0,0.0,0.0,0.0,0.0,0.0,0.0,0.0,0.0,0.0,0.0,0.0,0.0,0.0,0.0,0.0,0.0,0.0,0.0,0.0,0.0,0.0,0.0,0.0,0.0,0.0,0.0,0.0,0.0,0.0,0.0,0.0,0.0,0.0,0.0,0.0,0.0,0.0,0.0,0.0,0.0,0.0,0.0,0.0,0.0,0.0,0.0,0.0,-4.1654,-4.2128,-4.298,-4.4261,-4.1825,-4.0062,-3.915,0.0,0.0,0.0,0.0,0.0,0.0,0.0,0.0,0.0,0.0,0.0,0.0,0.0,0.0,0.0,0.0,0.0,0.0,0.0,0.0,0.0,0.0,0.0,0.0,0.0,0.0,0.0,0.0,0.0,0.0,0.0,0.0,0.0,0.0,0.0,0.0,0.0,0.0,0.0,0.0,0.0,0.0,0.0,0.0,0.0,0.0,0.0,0.0,0.0,0.0,0.0,0.0,0.0,0.0,0.0,0.0,0.0,0.0,0.0,0.0,0.0,0.0,0.0,0.0,0.0,0.0,0.0,0.0,0.0,0.0,0.0,0.0,0.0,0.0,0.0,0.0,0.0,0.0,0.0,0.0,0.0,0.0,0.0,0.0,0.0,0.0,0.0,0.0,0.0,0.0,0.0,0.0,0.0,0.0,0.0,0.0,0.0,0.0,0.0,0.0,0.0,0.0,0.0,0.0,0.0,0.0,0.0,0.0,-5.0055,-5.0413,-5.0032,-4.8822,-4.7486,-4.3808,0.0,0.0,0.0,0.0,0.0,0.0,0.0,0.0,0.0,0.0,0.0,0.0,0.0,0.0,0.0,0.0,0.0,0.0,0.0,0.0,0.0,0.0,0.0,0.0,0.0,0.0,0.0,0.0,0.0,0.0,0.0,0.0,0.0,0.0,0.0,0.0,0.0,0.0,0.0,0.0,0.0,0.0,0.0,0.0,0.0,0.0,0.0,0.0,0.0,0.0,0.0,0.0,0.0,0.0,0.0,0.0,0.0,0.0,0.0,0.0,0.0,0.0,0.0,0.0,0.0,0.0,0.0,0.0,0.0,0.0,0.0,0.0,0.0,0.0,0.0,0.0,0.0,0.0,0.0,0.0,0.0,0.0,0.0,0.0,0.0,0.0,0.0,0.0,0.0,0.0,0.0,0.0,0.0,0.0,0.0,0.0,0.0,0.0,0.0,0.0,0.0,0.0,0.0,0.0,0.0,0.0,0.0,0.0,0.0,-5.523,-6.072,-6.0832,-5.5027,-4.972,-4.547,0.0,0.0,0.0,0.0,0.0,0.0,0.0,0.0,0.0,0.0,0.0,0.0,0.0,0.0,0.0,0.0,0.0,0.0,0.0,0.0,0.0,0.0,0.0,0.0,0.0,0.0,0.0,0.0,0.0,0.0,0.0,0.0,0.0,0.0,0.0,0.0,0.0,0.0,0.0,0.0,0.0,0.0,0.0,0.0,0.0,0.0,0.0,0.0,0.0,0.0,0.0,0.0,0.0,0.0,0.0,0.0,0.0,0.0,0.0,0.0,0.0,0.0,0.0,0.0,0.0,0.0,0.0,0.0,0.0,0.0,0.0,0.0,0.0,0.0,0.0,0.0,0.0,0.0,0.0,0.0,0.0,0.0,0.0,0.0,0.0,0.0,0.0,0.0,0.0,0.0,0.0,0.0,0.0,0.0,0.0,0.0,0.0,0.0,0.0,0.0,0.0,0.0,0.0,0.0,0.0,0.0,0.0,0.0,-5.3052,-5.879,-6.7359,-6.9654,-6.5246,-5.6757,-4.9856,0.0,0.0,0.0,0.0,0.0,0.0,0.0,0.0,0.0,0.0,0.0,0.0,0.0,0.0,0.0,0.0,0.0,0.0,0.0,0.0,0.0,0.0,0.0,0.0,0.0,0.0,0.0,0.0,0.0,0.0,0.0,0.0,0.0,0.0,0.0,0.0,0.0,0.0,0.0,0.0,0.0,0.0,0.0,0.0,0.0,0.0,0.0,0.0,0.0,0.0,0.0,0.0,0.0,0.0,0.0,0.0,0.0,0.0,0.0,0.0,0.0,0.0,0.0,0.0,0.0,0.0,0.0,0.0,0.0,0.0,0.0,0.0,0.0,0.0,0.0,0.0,0.0,0.0,0.0,0.0,0.0,0.0,0.0,0.0,0.0,0.0,0.0,0.0,0.0,0.0,0.0,0.0,0.0,0.0,0.0,0.0,0.0,0.0,0.0,0.0,0.0,0.0,0.0,0.0,0.0,0.0,0.0,0.0,-5.7061,-6.1667,-7.1427,-7.6544,-7.6181,-6.5358,-5.5318,0.0,0.0,0.0,0.0,0.0,0.0,0.0,0.0,0.0,0.0,0.0,0.0,0.0,0.0,0.0,0.0,0.0,0.0,0.0,0.0,0.0,0.0,0.0,0.0,0.0,0.0,0.0,0.0,0.0,0.0,0.0,0.0,0.0,0.0,0.0,0.0,0.0,0.0,0.0,0.0,0.0,0.0,0.0,0.0,0.0,0.0,0.0,0.0,0.0,0.0,0.0,0.0,0.0,0.0,0.0,0.0,0.0,0.0,0.0,0.0,0.0,0.0,0.0,0.0,0.0,0.0,0.0,0.0,0.0,0.0,0.0,0.0,0.0,0.0,0.0,0.0,0.0,0.0,0.0,0.0,0.0,0.0,0.0,0.0,0.0,0.0,0.0,0.0,0.0,0.0,0.0,0.0,0.0,0.0,0.0,0.0,0.0,0.0,0.0,0.0,0.0,0.0,0.0,0.0,0.0,0.0,0.0,0.0,-5.9021,-6.5964,-7.4578,-7.911,-7.9033,-6.5755,-5.6357,0.0,0.0,0.0,0.0,0.0,0.0,0.0,0.0,0.0,0.0,0.0,0.0,0.0,0.0,0.0,0.0,0.0,0.0,0.0,0.0,0.0,0.0,0.0,0.0,0.0,0.0,0.0,0.0,0.0,0.0,0.0,0.0,0.0,0.0,0.0,0.0,0.0,0.0,0.0,0.0,0.0,0.0,0.0,0.0,0.0,0.0,0.0,0.0,-3.5385,0.0,0.0,0.0,0.0,0.0,0.0,0.0,0.0,0.0,0.0,0.0,0.0,0.0,0.0,0.0,0.0,0.0,0.0,0.0,0.0,0.0,0.0,0.0,0.0,0.0,0.0,0.0,0.0,0.0,0.0,0.0,0.0,0.0,0.0,0.0,0.0,0.0,0.0,0.0,0.0,0.0,0.0,0.0,0.0,0.0,0.0,0.0,0.0,0.0,0.0,0.0,0.0,0.0,0.0,0.0,0.0,0.0,0.0,0.0,-6.0573,-6.7838,-7.617,-8.0313,-7.9499,-6.8924,-6.0319,0.0,0.0,0.0,0.0,0.0,0.0,0.0,0.0,0.0,0.0,0.0,0.0,0.0,0.0,0.0,0.0,0.0,0.0,0.0,0.0,0.0,0.0,0.0,0.0,0.0,0.0,0.0,0.0,0.0,0.0,0.0,0.0,0.0,0.0,0.0,0.0,0.0,0.0,0.0,0.0,0.0,0.0,0.0,0.0,0.0,0.0,0.0,0.0,0.0,0.0,0.0,0.0,0.0,0.0,0.0,0.0,0.0,0.0,0.0,0.0,0.0,0.0,0.0,0.0,0.0,0.0,0.0,0.0,0.0,0.0,0.0,0.0,0.0,0.0,0.0,0.0,0.0,0.0,0.0,0.0,0.0,0.0,0.0,0.0,0.0,0.0,0.0,0.0,0.0,0.0,0.0,0.0,0.0,0.0,0.0,0.0,0.0,0.0,0.0,0.0,0.0,0.0,0.0,0.0,0.0,0.0,0.0,-5.439,-6.1852,-6.9359,-7.713,-8.0692,-7.9515,-7.2206,-6.4282,-5.5972,0.0,0.0,0.0,0.0,0.0,0.0,0.0,0.0,0.0,0.0,0.0,0.0,0.0,0.0,0.0,0.0,0.0,0.0,0.0,0.0,0.0,0.0,0.0,0.0,0.0,0.0,0.0,0.0,0.0,0.0,0.0,0.0,0.0,0.0,0.0,0.0,0.0,0.0,-3.3828,-3.5273,0.0,0.0,0.0,0.0,0.0,0.0,0.0,0.0,-3.5476,0.0,0.0,0.0,0.0,0.0,0.0,0.0,0.0,0.0,0.0,0.0,0.0,0.0,0.0,0.0,0.0,0.0,0.0,0.0,0.0,0.0,0.0,0.0,0.0,0.0,0.0,0.0,0.0,0.0,0.0,0.0,0.0,0.0,0.0,0.0,0.0,0.0,0.0,0.0,0.0,0.0,0.0,0.0,0.0,0.0,0.0,0.0,0.0,0.0,0.0,0.0,0.0,0.0,0.0,0.0,0.0,-5.1924,-5.5478,-6.2606,-7.3509,-7.856,-8.0339,-7.8592,-7.1321,-6.3666,-5.5934,0.0,0.0,0.0,0.0,0.0,0.0,0.0,0.0,0.0,0.0,0.0,0.0,0.0,0.0,0.0,0.0,0.0,0.0,0.0,0.0,0.0,0.0,0.0,0.0,0.0,0.0,0.0,0.0,0.0,0.0,0.0,0.0,0.0,0.0,0.0,0.0,0.0,0.0,0.0,-3.6868,-3.7379,0.0,0.0,0.0,0.0,0.0,0.0,0.0,0.0,-3.513,0.0,0.0,0.0,0.0,0.0,0.0,0.0,0.0,0.0,0.0,0.0,0.0,0.0,0.0,0.0,0.0,0.0,0.0,0.0,0.0,0.0,0.0,0.0,0.0,0.0,0.0,0.0,0.0,0.0,0.0,0.0,0.0,0.0,0.0,0.0,0.0,0.0,0.0,0.0,0.0,0.0,0.0,0.0,0.0,0.0,0.0,0.0,0.0,0.0,0.0,0.0,0.0,0.0,0.0,0.0,-5.361,-5.8105,-6.5216,-7.5113,-7.8291,-7.8938,-7.713,-6.9783,-6.2435,0.0,0.0,0.0,0.0,0.0,0.0,0.0,0.0,0.0,0.0,0.0,0.0,0.0,0.0,0.0,0.0,0.0,0.0,0.0,0.0,0.0,0.0,0.0,0.0,0.0,0.0,0.0,0.0,0.0,0.0,0.0,0.0,0.0,0.0,0.0,0.0,0.0,0.0,0.0,0.0,-3.8396,-3.9413,-3.9844,0.0,0.0,0.0,0.0,0.0,0.0,-3.7035,-3.6204,0.0,0.0,0.0,0.0,0.0,0.0,0.0,0.0,0.0,0.0,0.0,0.0,0.0,0.0,0.0,0.0,0.0,0.0,0.0,0.0,0.0,0.0,0.0,0.0,0.0,0.0,0.0,0.0,0.0,0.0,0.0,0.0,0.0,0.0,0.0,0.0,0.0,0.0,0.0,0.0,0.0,0.0,0.0,0.0,0.0,0.0,0.0,0.0,0.0,0.0,0.0,0.0,0.0,0.0,0.0,-5.4169,-6.0073,-6.7116,-7.5201,-7.716,-7.7092,-7.5168,-6.7321,-6.0204,0.0,0.0,0.0,0.0,0.0,0.0,0.0,0.0,0.0,0.0,0.0,0.0,0.0,0.0,0.0,0.0,0.0,0.0,0.0,0.0,0.0,0.0,0.0,0.0,0.0,0.0,0.0,0.0,0.0,0.0,0.0,0.0,0.0,0.0,0.0,0.0,0.0,0.0,0.0,0.0,0.0,-4.1562,-4.1367,-4.1363,0.0,0.0,0.0,0.0,-3.8142,-3.8611,0.0,0.0,0.0,0.0,0.0,0.0,0.0,0.0,0.0,0.0,0.0,0.0,0.0,0.0,0.0,0.0,0.0,0.0,0.0,0.0,0.0,0.0,0.0,0.0,0.0,0.0,0.0,0.0,0.0,0.0,0.0,0.0,0.0,0.0,0.0,0.0,0.0,0.0,0.0,0.0,0.0,0.0,0.0,0.0,0.0,0.0,0.0,0.0,0.0,0.0,0.0,0.0,0.0,0.0,0.0,0.0,-5.3251,-5.9215,-6.5974,-7.3399,-7.5399,-7.513,-7.2591,-6.3063,-5.6088,0.0,0.0,0.0,0.0,0.0,0.0,0.0,0.0,0.0,0.0,0.0,0.0,0.0,0.0,0.0,0.0,0.0,0.0,0.0,0.0,0.0,0.0,0.0,0.0,0.0,0.0,0.0,0.0,0.0,0.0,0.0,0.0,0.0,0.0,0.0,0.0,0.0,0.0,0.0,0.0,0.0,-4.3124,-4.2344,-4.2265,-4.1676,0.0,0.0,-4.0773,-4.0689,-4.3227,0.0,0.0,0.0,0.0,0.0,0.0,0.0,0.0,0.0,0.0,0.0,0.0,0.0,0.0,0.0,0.0,0.0,0.0,0.0,0.0,0.0,0.0,0.0,0.0,0.0,0.0,0.0,0.0,0.0,0.0,0.0,0.0,0.0,0.0,0.0,0.0,0.0,0.0,0.0,0.0,0.0,0.0,0.0,0.0,0.0,0.0,0.0,0.0,0.0,0.0,0.0,0.0,0.0,0.0,0.0,-4.774,-5.3895,-6.0742,-6.7244,-7.3206,-7.3245,-7.236,-7.0783,-5.9935,-5.3203,0.0,0.0,0.0,0.0,0.0,0.0,0.0,0.0,0.0,0.0,0.0,0.0,0.0,0.0,0.0,0.0,0.0,0.0,0.0,0.0,0.0,0.0,0.0,0.0,0.0,0.0,0.0,0.0,0.0,0.0,0.0,0.0,0.0,0.0,0.0,0.0,0.0,0.0,0.0,0.0,0.0,0.0,-4.1991,-4.3358,0.0,0.0,0.0,-4.2223,-4.1243,0.0,0.0,0.0,0.0,0.0,0.0,0.0,0.0,0.0,0.0,0.0,0.0,0.0,0.0,0.0,0.0,0.0,0.0,0.0,0.0,0.0,0.0,0.0,0.0,0.0,0.0,0.0,0.0,0.0,0.0,0.0,0.0,0.0,0.0,0.0,0.0,0.0,0.0,0.0,0.0,0.0,0.0,0.0,0.0,0.0,0.0,0.0,0.0,0.0,0.0,0.0,0.0,0.0,0.0,0.0,0.0,0.0,-5.3895,-6.1589,-6.7744,-7.1962,-7.0744,-6.9552,-6.859,-5.8242,0.0,0.0,0.0,0.0,0.0,0.0,0.0,0.0,0.0,0.0,0.0,0.0,0.0,0.0,0.0,0.0,0.0,0.0,0.0,0.0,0.0,0.0,0.0,0.0,0.0,0.0,0.0,-3.146,0.0,0.0,0.0,0.0,0.0,0.0,0.0,0.0,0.0,0.0,0.0,0.0,0.0,0.0,-4.5498,-4.2495,-4.4686,-4.582,0.0,0.0,-4.3905,-4.2615,-4.5308,-4.5892,0.0,0.0,0.0,0.0,0.0,0.0,0.0,0.0,0.0,0.0,0.0,0.0,0.0,0.0,0.0,0.0,0.0,0.0,0.0,0.0,0.0,0.0,0.0,0.0,0.0,0.0,0.0,0.0,0.0,0.0,0.0,0.0,0.0,0.0,0.0,0.0,0.0,0.0,0.0,0.0,0.0,0.0,0.0,0.0,0.0,0.0,0.0,0.0,0.0,0.0,0.0,0.0,0.0,0.0,-4.9346,-5.2231,-6.0396,-6.6013,-6.8629,-6.7821,-6.6974,-6.6051,-5.8473,-5.2779,0.0,0.0,0.0,0.0,0.0,0.0,0.0,0.0,0.0,0.0,0.0,0.0,0.0,0.0,0.0,0.0,0.0,0.0,0.0,0.0,0.0,0.0,0.0,0.0,0.0,0.0,0.0,0.0,0.0,0.0,0.0,0.0,0.0,0.0,0.0,0.0,0.0,0.0,0.0,0.0,0.0,-4.6778,-4.4995,-4.6327,-4.8008,0.0,-4.7617,-4.6094,-4.5936,-5.0738,-5.1516,-4.2495,0.0,0.0,0.0,0.0,0.0,0.0,0.0,0.0,0.0,0.0,0.0,0.0,0.0,0.0,0.0,0.0,0.0,0.0,0.0,0.0,0.0,0.0,0.0,0.0,0.0,0.0,0.0,0.0,0.0,0.0,0.0,0.0,0.0,0.0,0.0,0.0,0.0,0.0,0.0,0.0,0.0,0.0,0.0,0.0,0.0,0.0,0.0,0.0,0.0,0.0,0.0,0.0,0.0,-4.9356,-5.1962,-6.0269,-6.559,-6.7475,-6.6782,-6.5705,-6.432,-5.7396,-5.2087,0.0,0.0,0.0,0.0,0.0,0.0,0.0,0.0,0.0,0.0,0.0,0.0,0.0,0.0,0.0,0.0,0.0,0.0,0.0,0.0,0.0,0.0,0.0,0.0,0.0,0.0,0.0,0.0,-3.3756,-3.3632,-3.2877,0.0,0.0,0.0,0.0,0.0,0.0,0.0,0.0,0.0,0.0,-4.6646,-4.6491,-4.7993,0.0,0.0,-4.8154,-4.7291,-4.5689,-4.7839,-4.7647,-4.1362,-3.9833,0.0,0.0,0.0,0.0,0.0,0.0,0.0,0.0,0.0,0.0,0.0,0.0,0.0,0.0,0.0,0.0,0.0,0.0,0.0,0.0,0.0,0.0,0.0,0.0,0.0,0.0,0.0,-3.5507,0.0,0.0,0.0,0.0,0.0,0.0,0.0,0.0,0.0,0.0,0.0,0.0,0.0,0.0,0.0,0.0,0.0,0.0,0.0,0.0,0.0,0.0,0.0,0.0,-4.8856,-5.1154,-5.9281,-6.4282,-6.5936,-6.5166,-6.4051,-6.2474,-5.6973,-5.2241,0.0,0.0,0.0,0.0,0.0,0.0,0.0,0.0,0.0,0.0,0.0,0.0,0.0,0.0,0.0,0.0,0.0,0.0,0.0,0.0,0.0,0.0,0.0,0.0,0.0,0.0,0.0,0.0,-3.3965,-3.3438,-3.2916,0.0,0.0,0.0,0.0,0.0,0.0,0.0,0.0,0.0,0.0,-4.6571,-4.6638,-4.7496,-4.7949,-4.7209,-4.6775,-4.611,-4.51,-4.5495,-4.4718,-4.1207,0.0,0.0,0.0,0.0,0.0,0.0,0.0,0.0,0.0,0.0,0.0,0.0,0.0,0.0,0.0,0.0,0.0,0.0,0.0,0.0,0.0,0.0,0.0,0.0,0.0,0.0,0.0,-3.556,0.0,0.0,-3.5507,0.0,0.0,0.0,0.0,0.0,0.0,0.0,0.0,0.0,0.0,0.0,0.0,0.0,0.0,0.0,0.0,0.0,0.0,0.0,0.0,0.0,0.0,-4.7778,-4.951,-5.7049,-6.1704,-6.3308,-6.2589,-6.1793,-6.0819,-5.7434,-5.3664,-4.9394,0.0,0.0,0.0,0.0,0.0,0.0,0.0,0.0,0.0,0.0,0.0,0.0,0.0,0.0,0.0,0.0,0.0,0.0,0.0,0.0,0.0,0.0,0.0,0.0,0.0,0.0,-3.4566,-3.2953,-3.1995,0.0,0.0,0.0,0.0,0.0,0.0,0.0,0.0,0.0,-3.9425,-4.3972,-4.6644,-4.5087,-4.4304,-4.458,-4.6074,-4.3541,-4.2181,-4.4609,-4.4958,-4.4409,0.0,0.0,0.0,0.0,0.0,0.0,0.0,0.0,0.0,0.0,0.0,0.0,0.0,0.0,0.0,0.0,0.0,0.0,0.0,0.0,0.0,0.0,0.0,0.0,0.0,0.0,0.0,-4.0577,-4.0569,0.0,0.0,0.0,0.0,0.0,0.0,0.0,0.0,0.0,0.0,0.0,-4.6432,-4.7009,0.0,0.0,0.0,0.0,0.0,0.0,0.0,0.0,0.0,0.0,0.0,0.0,-4.7163,-4.9625,-5.6357,-6.0512,-6.1589,-6.1358,-6.055,-5.9165,-5.6896,-5.3203,-4.7932,0.0,0.0,0.0,0.0,0.0,0.0,0.0,0.0,0.0,0.0,0.0,0.0,0.0,0.0,0.0,0.0,0.0,0.0,0.0,0.0,0.0,0.0,0.0,0.0,0.0,-3.6312,0.0,0.0,0.0,0.0,0.0,0.0,0.0,0.0,0.0,0.0,-3.7394,-3.828,-4.084,-4.2281,-4.3537,-4.4616,-4.4607,-4.5312,0.0,0.0,0.0,0.0,0.0,0.0,0.0,0.0,0.0,0.0,0.0,0.0,0.0,0.0,-3.9799,-3.5859,-3.605,-3.6864,-3.7176,0.0,0.0,0.0,0.0,0.0,0.0,0.0,0.0,0.0,0.0,0.0,0.0,0.0,0.0,-4.3681,-4.3211,-4.3717,0.0,0.0,0.0,0.0,0.0,0.0,0.0,0.0,-4.8114,-5.0645,-5.1625,-5.2482,-5.1972,-5.0279,-4.8317,-4.4509,0.0,0.0,0.0,0.0,0.0,0.0,0.0,0.0,-4.6547,-4.874,-5.5203,-5.905,-5.9896,-5.9935,-5.9242,-5.7857,-5.5588,-5.2318,-4.7894,-4.4778,-4.22,0.0,0.0,0.0,0.0,0.0,0.0,0.0,0.0,0.0,0.0,0.0,0.0,0.0,0.0,0.0,0.0,0.0,0.0,0.0,0.0,0.0,0.0,0.0,-3.6427,0.0,0.0,0.0,0.0,0.0,0.0,0.0,0.0,0.0,-3.8572,-3.8717,-3.9611,-4.2125,-4.2348,-4.2473,-4.2909,0.0,0.0,0.0,0.0,0.0,0.0,0.0,-3.9528,-3.8398,-3.8984,-4.0156,-4.1832,-4.3001,-4.37,-4.3653,0.0,0.0,-3.857,-3.8443,-3.9169,-3.9715,-4.0257,-4.0791,-4.1344,-4.1682,-4.1633,0.0,0.0,0.0,0.0,-4.3401,0.0,0.0,0.0,-4.6698,-4.5502,0.0,-4.5445,0.0,0.0,0.0,0.0,-4.0022,-4.618,0.0,0.0,-5.7868,-6.055,-5.6242,-5.6907,-5.6395,-5.4664,-5.2241,-4.9327,-4.5979,-4.2593,-4.0323,0.0,0.0,0.0,0.0,0.0,-4.6047,-4.7278,-5.3626,-5.7396,-5.8242,-5.828,-5.7857,-5.6868,-5.3664,-5.1164,-4.9471,-4.7009,-4.5278,-4.4316,-4.1208,0.0,0.0,0.0,0.0,0.0,0.0,0.0,0.0,0.0,0.0,0.0,0.0,0.0,0.0,0.0,0.0,0.0,0.0,0.0,0.0,-3.6754,0.0,0.0,0.0,0.0,0.0,0.0,0.0,0.0,0.0,-3.7709,-3.9409,-4.0808,-4.2202,-4.2983,0.0,0.0,0.0,0.0,-3.986,-3.6884,-3.6274,-3.6439,-3.6562,-3.8515,-4.0585,-4.2148,0.0,0.0,-4.6288,-4.5034,-4.4086,-4.3901,-4.476,-4.4826,-4.3936,-4.2941,-4.2415,-4.2415,-4.2432,-4.2411,-4.2471,-4.3104,-4.3359,-5.7888,0.0,0.0,0.0,0.0,-5.0443,-5.3288,-5.7853,-5.6975,-5.5316,-5.3145,-5.2337,0.0,0.0,0.0,0.0,0.0,0.0,-5.0164,-5.3328,-5.7742,-6.055,-6.205,-6.2935,-6.2435,-6.0704,-5.8204,-5.6203,-5.4511,-5.0587,-4.547,-3.9361,0.0,0.0,0.0,0.0,-4.6278,-4.9663,-5.3895,-5.6522,-5.7368,-5.7357,-5.6676,-5.5241,-5.3049,-5.1395,-5.0366,-4.9009,-4.7355,-4.5325,-4.3701,0.0,0.0,0.0,0.0,0.0,0.0,0.0,0.0,0.0,0.0,0.0,0.0,0.0,0.0,0.0,0.0,0.0,0.0,0.0,-3.6731,-3.6754,-3.6253,0.0,0.0,0.0,0.0,0.0,0.0,0.0,0.0,0.0,-4.1105,-4.0161,-3.9458,0.0,0.0,-3.8072,-3.7094,-3.8781,-4.0448,-4.1358,-4.1481,0.0,-4.4023,-4.332,-4.2773,-4.3242,-4.5504,-4.7219,-4.7217,-4.8293,-4.9169,-4.9115,-4.9297,-4.9132,-4.8175,-4.6359,-4.5045,-4.4962,-4.4953,-4.4948,-4.4978,-4.5162,-4.5196,-6.8277,-6.0008,-5.6377,-5.5808,-5.7361,-5.7786,-6.0394,-6.4215,-6.3039,-6.1108,-5.8665,-5.7622,-5.3551,-4.7447,-4.6502,0.0,0.0,0.0,-5.3664,-5.8319,-6.0012,-6.232,-6.5051,-6.5974,-6.5474,-6.3782,-6.1897,-6.0242,-5.8704,-5.4818,-4.9856,-4.394,0.0,-4.0739,-4.1362,-4.497,-4.8086,-5.0712,-5.401,-5.578,-5.5983,-5.5675,-5.5011,-5.401,-5.2626,-5.151,-5.0741,-5.0212,-4.9057,-4.7163,-4.565,-4.3935,0.0,0.0,0.0,0.0,0.0,0.0,0.0,0.0,0.0,0.0,0.0,-3.7994,-3.6652,0.0,0.0,0.0,-3.8238,-3.7738,-3.7738,-3.7198,0.0,0.0,0.0,0.0,0.0,0.0,0.0,-3.7647,-3.9482,-4.0971,-4.1429,-4.0527,-4.0087,-4.0747,-3.9723,-3.8814,-3.8514,0.0,-4.2296,-4.3513,-4.3711,-4.4258,-4.5781,-4.5625,-4.5586,-4.6601,-4.8004,-4.9054,-4.9167,-5.0434,-5.1224,-5.0927,-5.0758,-5.0427,-4.9552,-4.8316,-4.7284,-4.6657,-4.6502,-4.6502,-4.6502,-4.6773,-4.694,-7.782,-7.4886,-6.6262,-6.3289,-6.4359,-6.5301,-6.6548,-6.7774,-6.6267,-6.4152,-6.1727,-6.1464,-5.8122,-5.2599,-5.178,0.0,-5.5049,-5.5895,-5.8434,-6.2332,-6.3974,-6.5128,-6.5936,-6.6551,-6.609,-6.4551,-6.3666,-6.2012,-5.9665,-5.6472,-5.351,-5.0894,-4.9279,-4.724,-4.5047,-4.8702,-5.0789,-5.1058,-5.4136,-5.5318,-5.4511,-5.3587,-5.3077,-5.3087,-5.2192,-5.1356,-5.0635,-5.0519,-5.0135,-4.9365,-4.7178,-4.5855,-4.5671,0.0,0.0,0.0,0.0,0.0,0.0,0.0,0.0,0.0,0.0,0.0,0.0,0.0,0.0,-4.0246,-3.9823,0.0,-3.9515,-3.8176,0.0,0.0,0.0,-3.7926,-3.9539,-3.9828,-4.0132,-4.0746,0.0,0.0,-4.1016,-4.1762,-4.2922,-4.4584,-4.4007,-4.3182,-4.2477,-4.3692,-4.4634,-4.3945,-4.4023,-4.4141,-4.4766,-4.625,-4.8242,-5.0351,-5.1249,-5.0973,-5.1046,-5.1025,-5.0795,-5.0045,-4.9841,-4.9523,-4.8649,-4.8993,-4.9188,-4.74,-4.7284,-4.74,-4.7279,-4.7711,-4.7883,-8.2084,-8.0692,-7.7831,-7.4598,-7.1433,-7.2291,-7.2523,-7.2256,-7.187,-6.9899,-6.6836,-6.5418,-6.2188,-5.7779,-5.7576,-5.816,-5.9358,-6.0819,-6.2397,-6.4051,-6.5089,-6.5705,-6.5859,-6.5436,-6.4974,-6.4512,-6.3089,-6.205,-6.1408,-5.9358,-5.6357,-5.2741,-5.2202,-5.0741,-4.8355,-4.9865,-5.1664,-5.3587,-5.4972,-5.5318,-5.4472,-5.301,-5.2231,-5.2192,-5.0779,-4.9894,-4.9711,-4.9086,-4.8951,-4.9412,-4.8274,-4.7345,-4.6746,-4.3103,0.0,0.0,0.0,0.0,0.0,0.0,0.0,0.0,0.0,-3.7661,-3.6192,0.0,-3.8392,0.0,-4.02,-4.12,-4.12,-4.0839,0.0,0.0,-3.992,-4.0254,-4.1368,-4.2619,-4.2956,-4.1809,-4.2853,-4.346,-4.2858,-4.302,-4.3849,-4.5524,-4.4016,-4.2604,-4.2459,-4.3866,-4.4921,-4.4922,-4.6367,-4.7656,-4.7578,-4.8125,-4.8984,-5.0273,-4.9959,-4.972,-5.0305,-4.9799,-4.9273,-4.9021,-4.8958,-4.8582,-4.7789,-4.7822,-4.7572,-4.6747,-4.7417,-4.8142,-4.7439,-4.6999,-4.662,-8.3824,-8.3244,-8.162,-7.903,-7.612,-7.6606,-7.5898,-7.4369,-7.4331,-7.2619,-6.9637,-6.7494,-6.5006,-6.2429,-6.2406,-6.2675,-6.3176,-6.4063,-6.4717,-6.5216,-6.5294,-6.532,-6.5282,-6.4436,-6.4012,-6.3974,-6.2716,-6.2101,-6.2024,-6.0742,-5.8704,-5.6049,-5.6011,-5.4934,-5.279,-5.0625,-5.0087,-5.1087,-5.1895,-5.301,-5.4395,-5.2433,-5.101,-5.0192,-4.8971,-4.774,-4.6624,-4.6124,-4.6103,-4.6609,-4.5863,-4.5395,-4.5287,-4.2068,-3.997,0.0,0.0,0.0,0.0,0.0,0.0,0.0,0.0,0.0,0.0,0.0,-4.0085,-3.9738,-4.2008,-4.3047,-4.1885,-4.1824,-4.1956,-4.2374,-4.2047,-4.2344,-4.3595,-4.4576,-4.4757,-4.3795,-4.4523,-4.4989,-4.4622,-4.4967,-4.5595,-4.6628,-4.5574,-4.4726,-4.4766,-4.5586,-4.6289,-4.6719,-4.7969,-4.8906,-4.8906,-4.8906,-4.9062,-4.9453,-4.9216,-4.9053,-4.9437,-4.9081,-4.8588,-4.8218,-4.8093,-4.7782,-4.6965,-4.7101,-4.7159,-4.6952,-4.7439,-4.7739,-4.6941,-4.6387,-4.6022,-8.4095,-8.3863,-8.1271,-7.9726,-7.8889,-7.8836,-7.7432,-7.5117,-7.5001,-7.3497,-7.0914,-6.832,-6.6755,-6.6049,-6.5935,-6.5947,-6.5996,-6.5947,-6.596,-6.5958,-6.505,-6.4589,-6.4551,-6.3589,-6.3128,-6.3101,-6.2332,-6.1959,-6.192,-6.1177,-6.0204,-5.9088,-5.9011,-5.8088,-5.606,-5.0933,-4.8202,-4.8038,-4.8317,-5.0164,-5.3703,-5.1241,-4.9125,-4.7509,-4.6663,-4.5201,-4.3055,-4.2824,-4.284,-4.2919,-4.2294,-4.244,-4.3527,-4.0556,-3.9231,0.0,-3.7882,0.0,0.0,0.0,0.0,0.0,0.0,0.0,0.0,-4.2662,-4.2854,-4.2316,-4.4325,-4.4778,-4.2777,-4.2494,-4.3073,-4.46,-4.4051,-4.4165,-4.5722,-4.5962,-4.5962,-4.5962,-4.5969,-4.599,-4.5952,-4.6722,-4.7267,-4.7235,-4.7143,-4.7031,-4.7305,-4.7226,-4.7461,-4.8476,-4.8555,-4.8359,-4.8398,-4.8476,-4.8516,-4.8672,-4.8552,-4.8582,-4.8607,-4.8446,-4.8117,-4.7423,-4.7246,-4.6969,-4.6238,-4.6734,-4.7225,-4.7115,-4.7129,-4.6927,-4.6519,-4.6211,-4.6012,-8.4095,-8.3824,-8.1271,-7.9687,-7.8851,-7.8168,-7.71,-7.5823,-7.5129,-7.3393,-7.0785,-6.8295,-6.7089,-6.6808,-6.628,-6.5984,-6.6008,-6.5993,-6.5993,-6.597,-6.5098,-6.4638,-6.4512,-6.3022,-6.2313,-6.2275,-6.1516,-6.1119,-6.1131,-6.0881,-5.9319,-5.6472,-5.6434,-5.4895,-5.1943,0.0,0.0,0.0,-5.151,-5.024,-5.024,-4.7163,-4.5047,-4.4047,-4.3192,0.0,-4.204,-4.1393,-4.1439,-4.2153,-4.203,0.0,0.0,0.0,0.0,0.0,0.0,0.0,0.0,0.0,0.0,0.0,-4.2662,-4.2508,-4.2816,-4.3008,-4.3585,-4.4778,-4.5325,-4.597,-4.6817,-4.6317,-4.6091,-4.6436,-4.5727,-4.565,-4.6682,-4.6844,-4.6844,-4.6851,-4.69,-4.6705,-4.6105,-4.6247,-4.647,-4.6542,-4.652,-4.6562,-4.6562,-4.6601,-4.6601,-4.6797,-4.6914,-4.6836,-4.6797,-4.6875,-4.7187,-4.7539,-4.7224,-4.7099,-4.759,-4.7159,-4.6725,-4.6477,-4.6372,-4.6364,-4.6201,-4.6329,-4.6502,-4.6446,-4.5884,-4.569,-4.6857,-4.6601,-4.6113,-8.4095,-8.3863,-8.131,-7.9687,0.0,-7.7924,-7.6739,-7.5435,-7.4973,-7.3353,-7.0783,-6.8706,-6.7564,-6.7102,-6.6331,-6.5801,-6.5473,-6.582,-6.582,-6.5434,-6.4513,-6.4093,-6.402,-6.2359,-6.156,-6.1533,-6.1147,-6.0933,-6.0911,-6.0839,-5.9969,-5.8242,-5.8237,-5.7198,-5.5088,-5.378,-5.3356,-5.3818,-5.1356,-5.0433,-5.1125,-4.9163,-4.7048,-4.5077,-4.4534,0.0,0.0,0.0,0.0,0.0,0.0,0.0,0.0,-4.3898,-4.3697,-4.4897,-4.3811,-4.364,-4.4855,-4.497,-4.5509,-4.674,-4.6855,-4.6317,-4.5086,-4.6124,-4.7009,-4.7441,-4.7865,-4.8279,-4.8663,-4.7971,-4.7498,-4.7521,-4.6436,-4.5943,-4.6344,-4.645,-4.6479,-4.6513,-4.6545,-4.643,-4.6173,-4.6157,-4.6208,-4.6279,-4.6289,-4.6289,-4.6289,-4.6289,-4.6289,-4.6289,-4.6289,-4.6289,-4.6289,-4.6289,-4.6406,-4.6797,-4.6599,-4.651,-4.68,-4.6499,-4.6193,-4.6162,-4.6162,-4.6183,-4.62,-4.6256,-4.627,-4.6201,-4.583,-4.5719,-4.6618,-4.6083,-4.5566,-8.4018,-8.3631,-8.1194,-7.9726,-7.8799,-7.7897,-7.6403,-7.4549,-7.4266,0.0,0.0,-6.9104,-6.7937,-6.714,-6.6521,-6.5743,-6.4981,-6.571,-6.5633,-6.4865,-6.3924,-6.3505,-6.3417,-6.1808,-6.1008,-6.1008,-6.1008,-6.0987,-6.0905,-6.0922,-6.085,-6.0804,-6.0888,-6.0388,-5.9265,-5.7907,-5.5703,-5.2664,-5.0789,-5.0712,-5.2443,-5.1404,-4.9365,-4.6343,-4.6262,-4.5247,-4.3227,-4.3188,-4.3255,-4.3322,-4.3255,-4.3419,-4.3829,-4.3782,-4.3973,-4.4402,-4.4316,-4.5163,-4.7192,-4.7346,-4.824,-5.0327,-5.0491,-4.9644,-4.7702,-4.9519,-5.0404,-4.9702,-5.0173,-5.0164,-4.9471,-4.8471,-4.7912,-4.7957,-4.6736,-4.5974,-4.6012,-4.6018,-4.6144,-4.6087,-4.6072,-4.5997,-4.6141,-4.6181,-4.6212,-4.6283,-4.6289,-4.6289,-4.6289,-4.6289,-4.6289,-4.6289,-4.6289,-4.6289,-4.6289,-4.6289,-4.6289,-4.6367,-4.6326,-4.6274,-4.6208,-4.6192,-4.617,-4.6162,-4.6154,-4.6184,-4.6233,-4.6247,-4.63,-4.63,-4.6123,-4.6014,-4.6059,-4.5424,-4.5004,-8.367,-8.2819,-8.0962,-7.9726,-7.8812,-7.7897,-7.6095,-7.3663,-7.2132,-7.0873,-6.9821,-6.8886,-6.7987,-6.7191,-6.7182,-6.635,-6.4981,-6.5796,-6.5719,-6.4865,-6.3966,-6.3548,-6.3428,-6.1783,-6.0992,-6.0992,-6.0992,-6.0992,-6.0972,-6.0916,-6.0872,-6.09,-6.0872,-6.0102,-5.8588,-5.8226,-5.7126,-5.5164,-5.282,-5.1116,-5.0028,-4.7764,-4.5671,-4.3867,-4.3798,-4.3543,-4.3262,-4.3347,-4.3283,-4.3311,-4.329,-4.4252,-4.6298,-4.6411,-4.7332,-4.9365,-4.8933,-4.8663,-4.9009,-4.9048,-4.9202,-4.9558,-4.9631,-4.9795,-5.0183,-5.0481,-5.0635,-5.0481,-5.0019,-4.9548,-4.9317,-4.8048,-4.7181,-4.7148,-4.6929,-4.6823,-4.6862,-4.6868,-4.6918,-4.6984,-4.6385,-4.6032,-4.6095,-4.6153,-4.6186,-4.6242,-4.6249,-4.6289,-4.6289,-4.6289,-4.6289,-4.6289,-4.6289,-4.6289,-4.6289,-4.6289,-4.6289,-4.6289,-4.6289,-4.6278,-4.622,-4.6204,-4.6226,-4.6176,-4.6184,-4.6236,-4.6251,-4.6298,-4.63,-4.6257,-4.5716,-4.5319,-4.5935,-4.5318,-4.4892,-8.3863,-8.3283,-8.162,-8.0125,-7.8824,-7.6907,-7.5182,-7.3562,-7.2224,-7.094,-6.9823,-6.9399,-6.8499,-6.7325,-6.688,-6.5803,-6.4299,-6.5131,-6.4821,-6.3593,-6.3593,-6.3389,-6.2828,-6.165,-6.1041,-6.1041,-6.1041,-6.1263,-6.162,-6.1222,-6.1169,-6.1527,-6.1108,-6.0222,-5.91,-5.8968,-5.8127,-5.6406,-5.4842,-5.3437,-5.2242,-5.1123,-4.9723,-4.8089,-4.8012,-4.7796,-4.7449,-4.7426,-4.7448,-4.7417,-4.7426,-4.7928,-4.896,-4.8994,-4.9489,-5.0596,-5.0327,-4.9904,-4.9433,-4.945,-4.9439,-4.9486,-4.9525,-4.9945,-5.0752,-5.0776,-5.0749,-5.0749,-5.0317,-5.0087,-5.0058,-4.8605,-4.7593,-4.761,-4.6907,-4.6577,-4.7032,-4.7143,-4.7366,-4.7777,-4.7266,-4.6636,-4.6187,-4.6204,-4.6036,-4.5771,-4.5935,-4.6289,-4.6289,-4.6289,-4.6289,-4.6289,-4.6289,-4.6289,-4.6289,-4.6289,-4.6289,-4.6289,-4.6289,-4.6279,-4.6227,-4.6212,-4.6243,-4.6231,-4.6238,-4.6249,-4.63,-4.6302,-4.6296,-4.6165,-4.5465,-4.5149,-4.5239,-4.4927,-4.4892,-8.3979,-8.3631,-8.1929,-8.0215,-7.8462,-7.5825,-7.4385,-7.3858,-7.2611,-7.1479,-7.0563,-7.0232,-6.9215,-6.7675,-6.6808,-6.5526,-6.4213,-6.4493,-6.398,-6.2859,-6.3168,-6.3052,-6.2346,-6.1505,-6.1118,-6.1118,-6.1311,-6.1708,-6.2181,-6.1785,-6.1762,-6.205,-6.1273,-6.0465,-5.9661,-5.9579,-5.871,-5.7142,-5.6424,-5.5509,-5.4304,-5.4477,-5.3733,-5.1966,-5.1992,-5.173,-5.0974,-5.0921,-5.0898,-5.0898,-5.0913,-5.0872,-5.0821,-5.0738,-5.073,-5.0683,-5.0327,-4.975,-4.8942,-4.911,-4.9238,-4.9238,-4.9289,-4.9729,-5.0503,-5.0604,-5.0662,-5.0743,-5.0518,-5.0356,-5.0183,-4.9056,-4.8197,-4.812,-4.7317,-4.7109,-4.7596,-4.7759,-4.7965,-4.8494,-4.8054,-4.7326,-4.6524,-4.6407,-4.6273,-4.5696,-4.5897,-4.625,-4.6289,-4.6289,-4.6289,-4.6289,-4.6289,-4.6289,-4.6289,-4.6289,-4.6289,-4.6289,-4.6286,-4.6279,-4.623,-4.6262,-4.6296,-4.6243,-4.6249,-4.6181,-4.6066,-4.5987,-4.5824,-4.5533,-4.4871,-4.455,-4.4739,-4.4658,-4.4629,-8.3631,-8.2703,-8.1117,-7.9339,-7.7601,-7.5086,-7.4328,-7.4473,-7.2348,-7.1765,-7.2109,-7.1445,-7.0108,-6.8613,-6.7701,-6.6456,-6.487,-6.4145,-6.3719,-6.3449,-6.282,-6.2462,-6.2278,-6.1505,-6.1118,-6.1195,-6.1853,-6.2269,-6.2491,-6.3031,-6.2952,-6.2193,-6.1411,-6.0552,-5.9801,-5.9714,-5.8865,-5.7245,-5.711,-5.5875,-5.3619,-5.4253,-5.3524,-5.1083,-5.1747,-5.1708,-5.0967,-5.0898,-5.0898,-5.0898,-5.0898,-5.0858,-5.0791,-5.0773,-5.0767,-5.0635,-4.925,-4.8009,-4.7326,-4.7953,-4.8475,-4.8398,-4.8621,-4.9046,-4.986,-4.9931,-5.017,-5.0554,-5.0117,-4.9717,-4.949,-4.8757,-4.8291,-4.8347,-4.8684,-4.9328,-4.9294,-4.9529,-4.9368,-4.8701,-4.8681,-4.8028,-4.6811,-4.6878,-4.6937,-4.6172,-4.6172,-4.6289,-4.6289,-4.6289,-4.6289,-4.6289,-4.6289,-4.6289,-4.6289,-4.6289,-4.6289,-4.6288,-4.6285,-4.6241,-4.6195,-4.6227,-4.6261,-4.606,-4.6179,-4.5948,-4.5441,-4.509,-4.485,-4.4436,-4.4088,-4.3907,-4.4348,-4.438,-4.4407,-8.3592,-8.2703,-8.1504,-7.9983,-7.8179,-7.5654,-7.4494,-7.4197,-7.2642,-7.1931,-7.1794,-7.1424,-7.0601,-6.9402,-6.807,-6.6843,-6.5682,-6.4831,-6.3864,-6.3013,-6.3052,-6.2627,-6.166,-6.1273,-6.1118,-6.1195,-6.1969,-6.2665,-6.3236,-6.3969,-6.3657,-6.2362,-6.1867,-6.1306,-6.0534,-6.0457,-5.984,-5.8731,-5.8703,-5.7477,-5.5257,-5.5264,-5.4486,-5.2716,-5.2746,-5.2274,-5.1091,-5.0898,-5.089,-5.0905,-5.0905,-5.0863,-5.0738,-5.0738,-5.074,-5.0645,-4.9628,-4.8814,-4.8484,-4.8955,-4.9239,-4.9199,-4.9278,-4.9687,-5.0481,-5.0153,-5.0138,-5.0712,-5.0532,-5.0272,-5.0212,-4.9491,-4.8998,-4.9042,-4.9033,-4.9206,-4.9776,-4.9858,-4.9865,-5.0072,-4.9746,-4.9071,-4.7918,-4.714,-4.6664,-4.6328,-4.6289,-4.6289,-4.6289,-4.6289,-4.6289,-4.6289,-4.6289,-4.6289,-4.6289,-4.6289,-4.6289,-4.6288,-4.6285,-4.6241,-4.5767,-4.6072,-4.6183,-4.5714,-4.5636,-4.5519,-4.5129,-4.4502,-4.4069,-4.3575,-4.3498,-4.3549,-4.3691,-4.3711,-4.3674,-8.3438,-8.2316,-8.1039,-7.9647,-7.8099,-7.5731,-7.4649,-7.4336,-7.2909,-7.2097,-7.1988,-7.1523,-7.0943,-7.0131,-6.8352,-6.7152,-6.6456,-6.5218,-6.398,-6.2859,-6.3207,-6.2549,-6.1195,-6.1118,-6.1118,-6.1234,-6.2008,-6.2975,-6.398,-6.4608,-6.4268,-6.3127,-6.2527,-6.1965,-6.1366,-6.1183,-6.0614,-5.9813,-5.9814,-5.878,-5.6973,-5.645,-5.5432,-5.373,-5.3498,-5.2754,-5.1307,-5.1006,-5.0921,-5.0919,-5.0919,-5.0846,-5.0729,-5.071,-5.0624,-5.0411,-5.0146,-4.9714,-4.9274,-4.9891,-5.012,-4.9893,-4.9897,-5.032,-5.0865,-5.0432,-5.0319,-5.0945,-5.0974,-5.0867,-5.0805,-5.0294,-5.0024,-5.0026,-4.9517,-4.9562,-5.0198,-5.0231,-5.0407,-5.0748,-5.0473,-4.9956,-4.8863,-4.758,-4.6632,-4.6367,-4.6289,-4.6289,-4.6289,-4.6289,-4.6289,-4.6289,-4.6289,-4.6289,-4.6289,-4.6289,-4.6289,-4.6287,-4.6284,-4.6085,-4.5452,-4.603,-4.6262,-4.587,-4.5324,-4.4777,-4.4426,-4.3918,-4.3168,-4.3014,-4.3012,-4.3081,-4.2924,-4.3006,-4.3048,-8.3128,-8.131,-7.8912,-7.7558,-7.6397,-7.4773,-7.485,-7.5701,-7.28,-7.222,-7.3226,-7.1949,-7.1253,-7.1021,-6.8661,-6.7501,-6.7114,-6.4948,-6.3797,-6.3516,-6.282,-6.2008,-6.1157,-6.1118,-6.1118,-6.1157,-6.2008,-6.3245,-6.4793,-6.4948,-6.4917,-6.4672,-6.3283,-6.2394,-6.2094,-6.1505,-6.0722,-6.0055,-5.9987,-5.9416,-5.8488,-5.7628,-5.6089,-5.3962,-5.3536,-5.3094,-5.2133,-5.1346,-5.0959,-5.0919,-5.1035,-5.0941,-5.085,-5.0729,-5.0408,-4.9877,-5.0411,-5.0174,-4.9132,-5.0213,-5.0787,-5.0091,-5.0061,-5.0396,-5.1144,-5.0603,-5.0477,-5.12,-5.1159,-5.103,-5.0966,-5.0886,-5.0895,-5.0959,-5.0959,-5.0957,-5.1086,-5.1025,-5.0773,-5.0464,-5.0778,-5.0469,-4.9073,-4.8078,-4.7224,-4.6641,-4.6328,-4.6289,-4.6289,-4.6289,-4.6328,-4.6367,-4.6367,-4.6289,-4.6328,-4.6289,-4.6289,-4.6286,-4.6283,-4.6201,-4.627,-4.6302,-4.6223,-4.595,-4.5247,-4.4545,-4.3842,-4.3092,-4.2258,-4.2025,-4.2428,-4.247,-4.2454,-4.284,-4.2876,-8.278,-8.0575,-7.9105,-7.8022,-7.7055,-7.5392,-7.4734,-7.4618,-7.2916,-7.2142,-7.2104,-7.1562,-7.1291,-7.1175,-6.9241,-6.8352,-6.8081,-6.5682,-6.4261,-6.3642,-6.282,-6.193,-6.1157,-6.1118,-6.1118,-6.1234,-6.1969,-6.3323,-6.4841,-6.4996,-6.4976,-6.4927,-6.4396,-6.3545,-6.253,-6.2075,-6.1543,-6.077,-6.0654,-6.0267,-5.9455,-5.8565,-5.7404,-5.5973,-5.489,-5.3915,-5.3009,-5.2748,-5.2577,-5.2503,-5.2503,-5.2198,-5.1586,-5.1019,-5.0649,-5.048,-5.0797,-5.0769,-5.0413,-5.0887,-5.1193,-5.0874,-5.081,-5.0937,-5.1232,-5.103,-5.0969,-5.1165,-5.1265,-5.1239,-5.118,-5.1125,-5.1145,-5.1153,-5.1164,-5.118,-5.1254,-5.1273,-5.1135,-5.0961,-5.119,-5.0837,-4.9772,-4.8891,-4.808,-4.7266,-4.6641,-4.6367,-4.6289,-4.6289,-4.6445,-4.6875,-4.668,-4.6523,-4.7109,-4.6601,-4.6289,-4.6289,-4.6242,-4.5928,-4.5842,-4.6192,-4.6231,-4.5254,-4.4668,-4.3962,-4.3141,-4.2318,-4.148,-4.1584,-4.1941,-4.2456,-4.2169,-4.2744,-4.2658,-8.1658,-7.984,-7.8912,-7.8061,-7.7132,-7.574,-7.4811,-7.4154,-7.3109,-7.2258,-7.1717,-7.1137,-7.0866,-7.0606,-6.9157,-6.8403,-6.8209,-6.6313,-6.4967,-6.4115,-6.3254,-6.2364,-6.1628,-6.1253,-6.1118,-6.1234,-6.1969,-6.3168,-6.4483,-6.488,-6.5141,-6.5373,-6.5151,-6.4445,-6.3323,-6.2704,-6.2075,-6.1582,-6.1234,-6.0809,-6.019,-5.9184,-5.8333,-5.7559,-5.6089,-5.4766,-5.3945,-5.3693,-5.353,-5.3447,-5.3447,-5.3142,-5.2473,-5.1903,-5.1498,-5.1443,-5.1497,-5.1472,-5.1289,-5.135,-5.1371,-5.1321,-5.1325,-5.1367,-5.1399,-5.1383,-5.132,-5.13,-5.1346,-5.1366,-5.1314,-5.1256,-5.1225,-5.1252,-5.1243,-5.1243,-5.13,-5.1316,-5.1296,-5.131,-5.133,-5.0886,-4.9891,-4.9199,-4.8313,-4.7382,-4.6641,-4.6406,-4.6641,-4.6484,-4.6758,-4.7656,-4.7266,-4.7109,-4.7344,-4.707,-4.6523,-4.6406,-4.6284,-4.589,-4.5732,-4.6082,-4.5885,-4.479,-4.3851,-4.3147,-4.2363,-4.1579,-4.1356,-4.1419,-4.2187,-4.2947,-4.2776,-4.2725,-4.2401,-7.984,-7.8989,-7.8099,-7.7326,-7.6475,-7.5624,-7.516,-7.4695,-7.3342,-7.2607,-7.2104,-7.0789,-7.0142,-6.9776,-6.8452,-6.7647,-6.754,-6.6648,-6.5717,-6.4942,-6.408,-6.3266,-6.2491,-6.1754,-6.1407,-6.1407,-6.2046,-6.2936,-6.3952,-6.4677,-6.5373,-6.5876,-6.5412,-6.4986,-6.487,-6.3323,-6.2433,-6.2124,-6.1505,-6.1079,-6.0886,-5.9532,-5.8642,-5.8372,-5.6872,-5.5617,-5.477,-5.411,-5.3762,-5.3602,-5.3627,-5.3494,-5.3433,-5.3258,-5.3019,-5.2486,-5.242,-5.2103,-5.1613,-5.1549,-5.1589,-5.1702,-5.1555,-5.1673,-5.1584,-5.1535,-5.1488,-5.1401,-5.1391,-5.1389,-5.1408,-5.1367,-5.1355,-5.1375,-5.1339,-5.132,-5.1281,-5.13,-5.1327,-5.1389,-5.1399,-5.0666,-4.9432,-4.8932,-4.8314,-4.7068,-4.6562,-4.668,-4.7187,-4.6875,-4.7187,-4.8203,-4.8047,-4.75,-4.7539,-4.7539,-4.6992,-4.6561,-4.6404,-4.6129,-4.6088,-4.6282,-4.6046,-4.5145,-4.3773,-4.2989,-4.1971,-4.1303,-4.156,-4.1791,-4.268,-4.3013,-4.2509,-4.2148,-4.1951,-8.0266,-7.9028,-7.8718,-7.7751,-7.6436,-7.6088,-7.5392,-7.4309,-7.369,-7.2839,-7.164,-7.0518,-7.0057,-6.9731,-6.8383,-6.7614,-6.7587,-6.6819,-6.6003,-6.518,-6.4278,-6.371,-6.3391,-6.3094,-6.296,-6.2999,-6.3231,-6.3776,-6.4503,-6.487,-6.5412,-6.5992,-6.5953,-6.5528,-6.4957,-6.3874,-6.3052,-6.2356,-6.1543,-6.1118,-6.1041,-6.0035,-5.9232,-5.8535,-5.7503,-5.6559,-5.5699,-5.542,-5.528,-5.5144,-5.5191,-5.4959,-5.437,-5.3777,-5.3462,-5.3341,-5.2848,-5.2857,-5.3102,-5.2645,-5.257,-5.3,-5.316,-5.2848,-5.2374,-5.2292,-5.2013,-5.1537,-5.138,-5.1389,-5.1391,-5.1393,-5.138,-5.138,-5.1366,-5.1349,-5.1292,-5.1349,-5.138,-5.1403,-5.141,-5.0869,-4.9903,-4.9324,-4.8509,-4.7419,-4.7148,-4.7383,-4.75,-4.7461,-4.7891,-4.9336,-4.8516,-4.8008,-4.8281,-4.8086,-4.7383,-4.6797,-4.6484,-4.6327,-4.6287,-4.6247,-4.605,-4.5342,-4.3969,-4.2792,-4.1774,-4.1378,-4.1599,-4.1964,-4.2542,-4.2295,-4.1602,-4.148,-4.1577,-8.1001,-7.9453,-7.9105,-7.8177,-7.69,-7.6552,-7.5624,-7.4463,-7.4347,-7.3187,-7.1485,-7.0761,-6.9962,-6.9159,-6.8071,-6.772,-6.7712,-6.7245,-6.6903,-6.6383,-6.4915,-6.4347,-6.4255,-6.3953,-6.3812,-6.3826,-6.3817,-6.4239,-6.4957,-6.5035,-6.5257,-6.5682,-6.6031,-6.5799,-6.4986,-6.4145,-6.3284,-6.2433,-6.1543,-6.0963,-6.0624,-6.0187,-5.9654,-5.9026,-5.8056,-5.7201,-5.6614,-5.6325,-5.6124,-5.6079,-5.6094,-5.58,-5.5302,-5.4808,-5.4486,-5.4223,-5.3922,-5.3754,-5.3934,-5.3472,-5.3394,-5.3902,-5.3983,-5.3788,-5.3278,-5.3198,-5.2802,-5.206,-5.1904,-5.1752,-5.1481,-5.1403,-5.1394,-5.1396,-5.1386,-5.1372,-5.1353,-5.1369,-5.1389,-5.1406,-5.141,-5.0832,-4.9864,-4.9597,-4.8821,-4.7966,-4.7891,-4.832,-4.8359,-4.832,-4.9219,-4.9805,-4.9531,-4.9258,-4.9258,-4.8672,-4.7812,-4.7148,-4.6562,-4.6406,-4.6288,-4.6288,-4.6131,-4.5226,-4.4008,-4.3142,-4.2123,-4.1615,-4.1608,-4.2049,-4.252,-4.2135,-4.182,-4.1806,-4.1789,-8.1774,-8.0188,-7.9337,-7.8486,-7.7558,-7.6746,-7.5856,-7.5121,-7.5055,-7.3751,-7.1893,-7.1345,-7.0157,-6.8342,-6.8116,-6.8069,-6.8047,-6.8189,-6.8409,-6.8217,-6.6811,-6.5644,-6.5226,-6.4658,-6.4357,-6.4217,-6.4153,-6.448,-6.518,-6.519,-6.5035,-6.5141,-6.5799,-6.5809,-6.5016,-6.4155,-6.3284,-6.2423,-6.1503,-6.0631,-6.0003,-6.0002,-5.9948,-5.9766,-5.8519,-5.7636,-5.7295,-5.6664,-5.6253,-5.622,-5.6213,-5.6175,-5.6258,-5.63,-5.5818,-5.5311,-5.5295,-5.4835,-5.4334,-5.4179,-5.4179,-5.4373,-5.4414,-5.4101,-5.4141,-5.406,-5.3708,-5.289,-5.2771,-5.2418,-5.1796,-5.1562,-5.1562,-5.1419,-5.1399,-5.1383,-5.1375,-5.1386,-5.1396,-5.1401,-5.1291,-5.0832,-4.9396,-4.9676,-4.9174,-4.8396,-4.8476,-4.918,-4.9531,-4.9531,-4.9883,-5.0078,-5.0156,-4.9922,-4.9726,-4.9062,-4.8242,-4.7773,-4.7031,-4.6445,-4.6289,-4.6289,-4.578,-4.4916,-4.4399,-4.3455,-4.2786,-4.2357,-4.2197,-4.2609,-4.2679,-4.2365,-4.2126,-4.1972,-4.1609,-8.1774,-8.015,-7.9337,-7.8486,-7.7635,-7.6784,-7.5933,-7.5171,-7.5221,-7.4516,-7.3219,-7.2007,-7.1184,-7.0487,-6.9264,-6.913,-6.9564,-6.9678,-6.9678,-6.9783,-6.9312,-6.7789,-6.6535,-6.6017,-6.5816,-6.5789,-6.5615,-6.5855,-6.5953,-6.58,-6.5489,-6.5035,-6.5644,-6.5722,-6.5052,-6.4145,-6.3339,-6.2383,-6.108,-6.0279,-6.0056,-6.0073,-6.0092,-6.0016,-5.9148,-5.8316,-5.7633,-5.6861,-5.6355,-5.6239,-5.6257,-5.6308,-5.6372,-5.6371,-5.6302,-5.6151,-5.5653,-5.554,-5.5701,-5.5273,-5.5273,-5.5858,-5.5742,-5.5625,-5.5,-5.4961,-5.4531,-5.3867,-5.3632,-5.3281,-5.2578,-5.2344,-5.207,-5.1498,-5.1391,-5.1288,-5.1288,-5.1383,-5.1399,-5.1399,-5.1369,-5.0715,-5.0139,-4.9872,-4.9721,-4.9021,-4.9258,-4.9922,-5.0195,-5.0234,-5.0351,-5.0625,-5.0664,-5.0351,-4.9961,-4.9336,-4.875,-4.8398,-4.7539,-4.6406,-4.6328,-4.6288,-4.5427,-4.4368,-4.4672,-4.4078,-4.3645,-4.3216,-4.3287,-4.3203,-4.3107,-4.2909,-4.2131,-4.1761,-4.1299,-8.2006,-8.0679,-7.984,-7.9028,-7.8189,-7.7345,-7.6516,-7.5841,-7.5818,-7.4935,-7.3673,-7.2979,-7.1879,-7.0667,-7.0356,-7.0493,-7.0966,-7.1294,-7.1435,-7.117,-7.0184,-6.8734,-6.7403,-6.6896,-6.6683,-6.6652,-6.653,-6.6438,-6.6234,-6.5954,-6.5228,-6.4609,-6.4919,-6.4754,-6.3984,-6.3565,-6.2871,-6.2037,-6.1061,-6.0489,-6.0116,-6.0516,-6.0692,-6.0582,-5.996,-5.9175,-5.8319,-5.715,-5.6449,-5.6333,-5.6342,-5.6422,-5.6455,-5.6475,-5.6499,-5.6558,-5.6129,-5.6091,-5.6366,-5.6093,-5.6094,-5.6484,-5.6601,-5.6367,-5.5976,-5.582,-5.5469,-5.4687,-5.457,-5.4101,-5.3398,-5.2929,-5.2492,-5.2042,-5.1536,-5.1154,-5.0835,-5.0787,-5.084,-5.085,-5.0822,-5.072,-5.0143,-5.0383,-5.0192,-4.9843,-5.0156,-5.0547,-5.0742,-5.0703,-5.0742,-5.0976,-5.1094,-5.0859,-5.0508,-4.9961,-4.9375,-4.8984,-4.8125,-4.6914,-4.6445,-4.6366,-4.5739,-4.5033,-4.5024,-4.4859,-4.435,-4.3918,-4.3643,-4.3548,-4.3569,-4.3206,-4.2473,-4.1781,-4.1284,-8.2316,-8.1426,-8.0459,-7.9659,-7.887,-7.8032,-7.7116,-7.6681,-7.6427,-7.5305,-7.3798,-7.3915,-7.2616,-6.9863,-7.1394,-7.1913,-7.2111,-7.2523,-7.264,-7.1907,-7.0509,-6.872,-6.7846,-6.7071,-6.6766,-6.6693,-6.6569,-6.6478,-6.6229,-6.5535,-6.4629,-6.4067,-6.3883,-6.3516,-6.3267,-6.2834,-6.2268,-6.1831,-6.1279,-6.0742,-6.0391,-6.0769,-6.1095,-6.1176,-6.036,-5.9716,-5.8817,-5.764,-5.676,-5.6734,-5.6599,-5.6612,-5.6667,-5.6709,-5.6715,-5.6797,-5.6797,-5.6758,-5.6758,-5.6797,-5.664,-5.664,-5.6601,-5.6601,-5.6523,-5.6445,-5.6133,-5.5508,-5.543,-5.5,-5.4219,-5.3393,-5.2953,-5.2704,-5.2049,-5.1115,-5.0368,-5.0111,-5.0129,-5.0093,-5.0124,-5.0101,-5.0305,-5.0738,-5.1094,-5.0469,-5.082,-5.0976,-5.1094,-5.1094,-5.1133,-5.125,-5.1328,-5.1367,-5.1016,-5.0625,-5.0078,-4.957,-4.8594,-4.7578,-4.6797,-4.6562,-4.6287,-4.5932,-4.5536,-4.5217,-4.4859,-4.4468,-4.4234,-4.4181,-4.4337,-4.363,-4.2766,-4.2175,-4.1639,-8.2316,-8.1375,-7.9879,-7.9203,-7.8856,-7.7532,-7.6817,-7.663,-7.6093,-7.5556,-7.4941,-7.4554,-7.3885,-7.3124,-7.2879,-7.3145,-7.3561,-7.3307,-7.2707,-7.1823,-7.0228,-6.8895,-6.8008,-6.7195,-6.6834,-6.673,-6.6585,-6.6504,-6.6263,-6.553,-6.4635,-6.3964,-6.3767,-6.3833,-6.3676,-6.2999,-6.2762,-6.2304,-6.1361,-6.0668,-6.0464,-6.0597,-6.1039,-6.1406,-6.0273,-5.9492,-5.9062,-5.8163,-5.7966,-5.8082,-5.7452,-5.702,-5.7337,-5.7029,-5.707,-5.75,-5.7617,-5.7617,-5.7617,-5.7578,-5.7305,-5.6758,-5.6719,-5.6601,-5.6601,-5.6601,-5.6523,-5.6328,-5.6289,-5.5859,-5.5117,-5.4251,-5.3813,-5.353,-5.2884,-5.2002,-5.1227,-5.0444,-5.0057,-5.003,-5.0049,-5.0105,-5.0192,-5.0896,-5.1172,-5.1133,-5.1211,-5.1367,-5.1406,-5.1406,-5.1406,-5.1406,-5.1406,-5.1406,-5.125,-5.0859,-5.0391,-4.9844,-4.8984,-4.8086,-4.7305,-4.6601,-4.6287,-4.6051,-4.5854,-4.5536,-4.5291,-4.5565,-4.5447,-4.5315,-4.5058,-4.4429,-4.3747,-4.2918,-4.2199,-8.2034,-8.1484,-8.0224,-7.947,-7.8949,-7.7836,-7.7118,-7.6769,-7.6462,-7.5785,-7.5207,-7.4967,-7.4572,-7.3882,-7.4155,-7.4578,-7.4672,-7.409,-7.3275,-7.2213,-7.0438,-6.8929,-6.8119,-6.7336,-6.6863,-6.6817,-6.6662,-6.661,-6.6356,-6.5674,-6.4938,-6.4415,-6.3792,-6.3672,-6.385,-6.2995,-6.2584,-6.2597,-6.171,-6.0972,-6.0969,-6.1011,-6.1131,-6.1406,-6.0508,-5.9883,-6.0312,-5.914,-5.9297,-5.9609,-5.8789,-5.7969,-5.832,-5.8047,-5.8086,-5.8359,-5.8515,-5.8515,-5.8515,-5.8476,-5.8125,-5.7305,-5.7226,-5.6953,-5.6758,-5.6601,-5.6601,-5.6601,-5.6562,-5.6367,-5.5937,-5.5115,-5.4679,-5.4361,-5.345,-5.254,-5.1874,-5.0581,-4.9486,-4.9501,-4.9439,-4.9759,-5.0154,-5.0897,-5.125,-5.125,-5.125,-5.1406,-5.1406,-5.1406,-5.1406,-5.1406,-5.1406,-5.1367,-5.1328,-5.1055,-5.0586,-5.0,-4.9258,-4.8398,-4.7578,-4.6874,-4.6209,-4.609,-4.6009,-4.6005,-4.5919,-4.6231,-4.6308,-4.5984,-4.5609,-4.5293,-4.4806,-4.3952,-4.3236,-8.1767,-8.1656,-8.0728,-7.9864,-7.9097,-7.824,-7.7449,-7.6978,-7.6839,-7.595,-7.5014,-7.5447,-7.4914,-7.4143,-7.499,-7.5533,-7.5073,-7.4555,-7.3525,-7.2214,-7.0381,-6.9019,-6.8164,-6.7383,-6.6914,-6.6914,-6.6756,-6.6691,-6.6447,-6.5771,-6.5078,-6.4812,-6.3592,-6.3439,-6.3672,-6.2787,-6.2449,-6.3084,-6.2422,-6.1719,-6.1601,-6.1601,-6.164,-6.1523,-6.082,-6.0703,-6.0976,-6.0312,-6.0039,-6.1484,-6.0351,-5.9726,-5.9531,-5.9258,-5.9297,-5.9336,-5.9375,-5.9375,-5.9375,-5.9336,-5.9023,-5.8203,-5.789,-5.7578,-5.7031,-5.6719,-5.6601,-5.6601,-5.6601,-5.6601,-5.6523,-5.5975,-5.5543,-5.5228,-5.4013,-5.3186,-5.2479,-5.0679,-4.9667,-4.9202,-4.9484,-4.9802,-5.0272,-5.0859,-5.1133,-5.1406,-5.1406,-5.1406,-5.1406,-5.1406,-5.1406,-5.1406,-5.1406,-5.1406,-5.1367,-5.1328,-5.0859,-5.043,-4.9687,-4.8867,-4.8007,-4.7342,-4.6755,-4.6323,-4.6242,-4.6237,-4.6233,-4.627,-4.6305,-4.6298,-4.6167,-4.5788,-4.534,-4.4866,-4.4245,-8.1805,-8.1679,-8.0135,-7.9442,-7.9112,-7.7767,-7.71,-7.6878,-7.6379,-7.583,-7.5569,-7.5642,-7.5603,-7.5356,-7.5434,-7.5006,-7.4343,-7.3849,-7.2882,-7.1523,-7.0,-6.9023,-6.8164,-6.7344,-6.6914,-6.6875,-6.6777,-6.6719,-6.6519,-6.5819,-6.5215,-6.4329,-6.355,-6.3577,-6.3895,-6.3359,-6.3203,-6.3789,-6.3125,-6.2383,-6.1953,-6.1719,-6.1719,-6.164,-6.0937,-6.1015,-6.1328,-6.0859,-6.0664,-6.1562,-6.1406,-6.125,-6.0898,-5.9961,-5.9726,-6.0039,-6.0195,-6.0195,-6.0234,-6.0195,-5.9765,-5.9062,-5.8476,-5.8047,-5.7617,-5.7109,-5.6953,-5.6719,-5.668,-5.664,-5.6601,-5.6367,-5.6365,-5.609,-5.5386,-5.4446,-5.3588,-5.2221,-5.0775,-5.0384,-5.0231,-4.9961,-5.0351,-5.0781,-5.1211,-5.1406,-5.1406,-5.1406,-5.1406,-5.1406,-5.1406,-5.1406,-5.1406,-5.1406,-5.1367,-5.1367,-5.1211,-5.0976,-5.0312,-4.9492,-4.8671,-4.7928,-4.7341,-4.6633,-4.6396,-4.6472,-4.6431,-4.6466,-4.65,-4.6651,-4.6485,-4.6279,-4.58,-4.5343,-4.5012,-8.1656,-8.1118,-7.9959,-7.9169,-7.8637,-7.7516,-7.7032,-7.6987,-7.6649,-7.618,-7.6014,-7.6167,-7.6158,-7.5989,-7.6298,-7.5701,-7.4749,-7.4098,-7.2967,-7.1445,-7.0117,-6.9023,-6.8203,-6.7344,-6.6992,-6.6875,-6.6831,-6.6836,-6.6787,-6.6418,-6.5631,-6.502,-6.4448,-6.4568,-6.4646,-6.418,-6.4219,-6.4492,-6.375,-6.2851,-6.2305,-6.1992,-6.1719,-6.1562,-6.1328,-6.1328,-6.1484,-6.1406,-6.125,-6.1601,-6.168,-6.1719,-6.1445,-6.1094,-6.0625,-6.0976,-6.1015,-6.1055,-6.1055,-6.1055,-6.0703,-5.9922,-5.9375,-5.8984,-5.8633,-5.8203,-5.7695,-5.7383,-5.7226,-5.707,-5.664,-5.664,-5.6601,-5.6445,-5.5859,-5.5195,-5.4531,-5.3437,-5.2617,-5.1758,-5.0976,-5.0508,-5.0273,-5.0742,-5.1211,-5.1406,-5.1406,-5.1406,-5.1406,-5.1406,-5.1406,-5.1406,-5.1406,-5.1406,-5.1406,-5.1406,-5.1406,-5.1211,-5.0859,-5.0039,-4.9139,-4.8317,-4.7375,-4.6507,-4.6468,-4.6783,-4.7168,-4.7396,-4.7199,-4.7082,-4.7077,-4.6908,-4.6329,-4.5854,-4.5525,-8.1572,-8.0681,-7.9929,-7.9086,-7.8218,-7.7433,-7.7083,-7.7097,-7.7101,-7.671,-7.6238,-7.6705,-7.6698,-7.6414,-7.6573,-7.6505,-7.5618,-7.4765,-7.3555,-7.1914,-7.0508,-6.9336,-6.8437,-6.7656,-6.7148,-6.6953,-6.7226,-6.707,-6.6914,-6.6754,-6.6325,-6.5664,-6.5547,-6.5586,-6.5351,-6.4844,-6.5117,-6.4922,-6.4375,-6.3476,-6.2851,-6.2031,-6.1562,-6.164,-6.1523,-6.1445,-6.168,-6.164,-6.1601,-6.168,-6.1719,-6.1719,-6.1719,-6.1719,-6.1719,-6.1719,-6.1719,-6.1719,-6.168,-6.164,-6.1289,-6.0703,-6.0469,-6.0039,-5.957,-5.914,-5.8789,-5.832,-5.8164,-5.7812,-5.7148,-5.6914,-5.6797,-5.6484,-5.6015,-5.5469,-5.5117,-5.4531,-5.3984,-5.3008,-5.1797,-5.1328,-5.1289,-5.082,-5.1328,-5.1406,-5.1406,-5.1406,-5.1406,-5.1406,-5.1406,-5.1406,-5.1406,-5.1406,-5.1406,-5.1406,-5.1406,-5.1328,-5.1016,-5.0469,-4.949,-4.8589,-4.7684,-4.6975,-4.7009,-4.7361,-4.7824,-4.8172,-4.8017,-4.79,-4.7861,-4.7539,-4.6974,-4.6541,-4.6286,-8.1627,-8.0807,-7.9964,-7.9127,-7.826,-7.7436,-7.7096,-7.71,-7.7147,-7.7107,-7.6866,-7.7021,-7.7021,-7.6982,-7.7027,-7.6249,-7.5195,-7.4609,-7.3711,-7.2148,-7.0976,-6.9961,-6.9219,-6.8437,-6.7656,-6.7344,-6.7773,-6.7539,-6.7226,-6.7031,-6.6445,-6.582,-6.5703,-6.5625,-6.5586,-6.5508,-6.5508,-6.5586,-6.5312,-6.4453,-6.3008,-6.1523,-6.125,-6.1406,-6.125,-6.125,-6.1875,-6.1953,-6.1836,-6.1797,-6.1719,-6.1719,-6.1719,-6.1719,-6.1719,-6.1719,-6.1719,-6.1719,-6.1719,-6.168,-6.168,-6.1289,-6.0898,-6.0469,-6.0195,-5.9765,-5.9375,-5.9101,-5.9062,-5.8633,-5.7969,-5.7734,-5.7344,-5.6992,-5.668,-5.6094,-5.5625,-5.5469,-5.5,-5.4531,-5.3359,-5.2891,-5.2695,-5.1953,-5.1406,-5.1406,-5.1406,-5.1406,-5.1445,-5.1484,-5.1406,-5.1406,-5.1406,-5.1406,-5.1406,-5.1406,-5.1406,-5.1406,-5.1172,-5.0781,-4.9959,-4.9057,-4.8467,-4.7914,-4.7909,-4.7787,-4.8017,-4.8291,-4.8603,-4.8759,-4.8718,-4.825,-4.7623,-4.727,-4.7007,-8.0924,-8.0163,-7.9785,-7.8869,-7.7673,-7.7299,-7.7146,-7.7186,-7.7187,-7.7187,-7.7147,-7.7146,-7.7146,-7.7148,-7.7187,-7.6523,-7.543,-7.4844,-7.3984,-7.2578,-7.1367,-7.0273,-6.9531,-6.9023,-6.8437,-6.7969,-6.832,-6.8398,-6.789,-6.75,-6.7031,-6.5898,-6.6015,-6.6055,-6.5898,-6.6133,-6.6289,-6.6094,-6.5351,-6.4219,-6.3008,-6.1914,-6.1523,-6.2344,-6.1992,-6.2305,-6.2773,-6.2617,-6.2461,-6.2344,-6.207,-6.1719,-6.1719,-6.1719,-6.1719,-6.1719,-6.1719,-6.1719,-6.1719,-6.1719,-6.1719,-6.168,-6.1328,-6.1172,-6.1055,-6.0781,-6.0273,-5.9922,-5.9883,-5.9492,-5.8828,-5.8633,-5.8437,-5.8086,-5.7539,-5.7226,-5.6719,-5.6211,-5.5859,-5.543,-5.5,-5.4453,-5.3828,-5.3008,-5.2344,-5.2109,-5.1875,-5.1641,-5.1641,-5.168,-5.1562,-5.1406,-5.1406,-5.1406,-5.1406,-5.1406,-5.1406,-5.1406,-5.1406,-5.0976,-5.0351,-4.9644,-4.9054,-4.8658,-4.8493,-4.8372,-4.833,-4.8681,-4.9228,-4.9421,-4.9538,-4.8753,-4.8045,-4.8086,-4.7696,-8.0068,-7.9303,-7.935,-7.8506,-7.7143,-7.7187,-7.7226,-7.7226,-7.7226,-7.7226,-7.7226,-7.7187,-7.7187,-7.7226,-7.7148,-7.668,-7.582,-7.5,-7.414,-7.2969,-7.1601,-7.0312,-6.957,-6.9219,-6.8711,-6.8242,-6.8555,-6.8711,-6.8672,-6.8359,-6.7773,-6.6328,-6.6601,-6.6719,-6.6523,-6.6601,-6.6797,-6.668,-6.5469,-6.4375,-6.3359,-6.2226,-6.2305,-6.2617,-6.293,-6.3203,-6.3984,-6.3398,-6.2969,-6.2812,-6.2148,-6.1797,-6.207,-6.2148,-6.2148,-6.2148,-6.2148,-6.1953,-6.1836,-6.1719,-6.1719,-6.1719,-6.1719,-6.1562,-6.1601,-6.168,-6.1523,-6.0742,-6.0742,-6.0312,-5.9726,-5.9492,-5.9258,-5.8945,-5.8555,-5.8359,-5.8125,-5.7578,-5.707,-5.668,-5.625,-5.5664,-5.4961,-5.4023,-5.3398,-5.293,-5.25,-5.1953,-5.1758,-5.1719,-5.1601,-5.1406,-5.1406,-5.1406,-5.1406,-5.1406,-5.1406,-5.1406,-5.1406,-5.125,-5.0742,-5.0234,-4.9679,-4.9361,-4.908,-4.8761,-4.8564,-4.9189,-4.9772,-4.9462,-4.9148,-4.8901,-4.8535,-4.8532,-4.8219,-7.9221,-7.85,-7.8502,-7.8003,-7.7187,-7.7187,-7.7226,-7.7226,-7.7226,-7.7226,-7.7187,-7.7109,-7.6992,-7.7187,-7.707,-7.668,-7.5898,-7.5,-7.4219,-7.3047,-7.1562,-7.0351,-6.957,-6.8906,-6.8437,-6.832,-6.875,-6.9062,-6.918,-6.9336,-6.8789,-6.8125,-6.7344,-6.75,-6.7383,-6.7148,-6.6953,-6.668,-6.5703,-6.4922,-6.3906,-6.2851,-6.2265,-6.2773,-6.25,-6.2539,-6.414,-6.3711,-6.332,-6.332,-6.2578,-6.2344,-6.2812,-6.289,-6.293,-6.289,-6.2734,-6.2422,-6.207,-6.1797,-6.1719,-6.1719,-6.1719,-6.1719,-6.1719,-6.1719,-6.1601,-6.1484,-6.1367,-6.1094,-6.0586,-6.0273,-6.0078,-5.9765,-5.9453,-5.9219,-5.9023,-5.8828,-5.8359,-5.7969,-5.7344,-5.664,-5.582,-5.4844,-5.4336,-5.3867,-5.2891,-5.2344,-5.168,-5.1523,-5.1484,-5.1406,-5.1406,-5.1406,-5.1406,-5.1406,-5.1406,-5.1406,-5.1406,-5.1406,-5.125,-5.0742,-5.0312,-4.999,-4.9673,-4.9197,-4.8837,-4.9153,-4.9309,-4.9034,-4.8833,-4.9016,-4.8629,-4.8296,-4.8038,-7.8679,-7.8347,-7.7887,-7.7499,-7.7226,-7.7226,-7.7226,-7.7226,-7.7226,-7.7226,-7.7148,-7.6172,-7.6211,-7.6836,-7.6601,-7.6562,-7.6445,-7.5156,-7.4492,-7.3437,-7.1953,-7.043,-6.957,-6.914,-6.9023,-6.9023,-6.9336,-6.9453,-6.9453,-6.9765,-6.9219,-6.8476,-6.7812,-6.789,-6.7851,-6.7383,-6.6992,-6.6523,-6.5703,-6.4805,-6.4726,-6.3047,-6.2617,-6.4414,-6.375,-6.4258,-6.5508,-6.5,-6.4726,-6.4336,-6.3672,-6.3594,-6.3711,-6.3789,-6.3789,-6.3711,-6.3437,-6.2969,-6.2461,-6.207,-6.1719,-6.1719,-6.1719,-6.1758,-6.1875,-6.1758,-6.1719,-6.168,-6.1719,-6.1445,-6.1328,-6.1172,-6.1055,-6.0703,-6.0351,-6.0039,-5.9883,-5.9726,-5.918,-5.8555,-5.793,-5.7265,-5.6445,-5.5586,-5.5195,-5.4765,-5.3672,-5.2656,-5.1992,-5.1406,-5.1406,-5.1406,-5.1406,-5.1406,-5.1406,-5.1406,-5.1406,-5.1406,-5.1406,-5.1406,-5.1406,-5.1328,-5.0934,-5.058,-5.0227,-4.9831,-4.9436,-4.9121,-4.904,-4.9153,-4.9378,-4.9638,-4.9042,-4.8253,-4.8171,-7.8026,-7.7963,-7.746,-7.7226,-7.7226,-7.7226,-7.7226,-7.7226,-7.7226,-7.7226,-7.7109,-7.5937,-7.582,-7.6523,-7.6601,-7.6328,-7.6289,-7.5312,-7.4765,-7.3476,-7.1797,-7.0273,-6.9492,-6.9023,-6.8672,-6.9258,-6.9297,-6.918,-6.9961,-6.9961,-6.9375,-6.875,-6.832,-6.8203,-6.7969,-6.7383,-6.6914,-6.6523,-6.5937,-6.5078,-6.5312,-6.4101,-6.3476,-6.5312,-6.4844,-6.5312,-6.6055,-6.5859,-6.5469,-6.5156,-6.4726,-6.4453,-6.457,-6.4687,-6.4687,-6.4453,-6.414,-6.3672,-6.3203,-6.2383,-6.1914,-6.2109,-6.2187,-6.2305,-6.2383,-6.2265,-6.2226,-6.2148,-6.1953,-6.1719,-6.1719,-6.1601,-6.1562,-6.1172,-6.1055,-6.082,-6.0703,-6.0547,-5.9805,-5.9101,-5.8515,-5.8008,-5.7148,-5.6289,-5.5351,-5.4922,-5.4062,-5.3086,-5.2305,-5.1758,-5.1406,-5.1406,-5.1406,-5.1406,-5.1406,-5.1406,-5.1406,-5.1406,-5.1406,-5.1406,-5.1406,-5.1406,-5.1405,-5.1091,-5.0737,-5.0423,-5.0146,-4.9909,-4.9708,-4.9584,-4.9764,-4.9892,-4.9329,-4.8647,-4.891,-7.7144,-7.7226,-7.7148,-7.7148,-7.7109,-7.7187,-7.7226,-7.7187,-7.7109,-7.7148,-7.7148,-7.6797,-7.6406,-7.625,-7.6445,-7.6289,-7.5742,-7.4922,-7.4453,-7.3633,-7.125,-6.9844,-6.8984,-6.8398,-6.8164,-6.875,-6.875,-6.914,-7.0508,-6.9648,-6.918,-6.8867,-6.8359,-6.8008,-6.8086,-6.7344,-6.6914,-6.6875,-6.668,-6.6133,-6.5742,-6.5156,-6.5117,-6.5586,-6.5469,-6.5898,-6.6445,-6.6289,-6.5898,-6.5703,-6.5156,-6.5078,-6.5508,-6.5586,-6.5586,-6.5508,-6.543,-6.4961,-6.4219,-6.2656,-6.2422,-6.2812,-6.2851,-6.3047,-6.3672,-6.3437,-6.289,-6.2773,-6.2383,-6.1914,-6.1797,-6.1797,-6.1875,-6.168,-6.1484,-6.1406,-6.1289,-6.1211,-6.0469,-5.9687,-5.9258,-5.8789,-5.789,-5.6953,-5.5742,-5.4922,-5.4258,-5.3555,-5.2812,-5.2461,-5.2148,-5.1953,-5.1992,-5.1797,-5.1797,-5.1484,-5.1406,-5.1406,-5.1406,-5.1406,-5.1406,-5.1406,-5.1405,-5.1406,-5.1209,-5.0856,-5.0776,-5.0734,-5.0496,-5.0216,-4.9976,-4.9854,-4.9357,-4.9171,-4.9421,-7.5933,-7.5547,-7.6094,-7.6328,-7.6406,-7.6992,-7.7226,-7.7109,-7.668,-7.664,-7.6836,-7.6094,-7.5742,-7.5781,-7.5586,-7.543,-7.5,-7.418,-7.375,-7.3359,-7.0781,-6.9844,-6.8945,-6.8086,-6.7812,-6.8828,-6.8789,-6.8945,-7.0664,-6.9609,-6.9023,-6.8711,-6.789,-6.7383,-6.7305,-6.6953,-6.6914,-6.6758,-6.6406,-6.6055,-6.6289,-6.5508,-6.5351,-6.6289,-6.5937,-6.6094,-6.6797,-6.6445,-6.6367,-6.6328,-6.5859,-6.6055,-6.6328,-6.6367,-6.6406,-6.625,-6.6055,-6.5195,-6.4531,-6.3672,-6.3594,-6.3672,-6.3515,-6.3633,-6.4062,-6.289,-6.289,-6.3359,-6.289,-6.2578,-6.2578,-6.2578,-6.2461,-6.1836,-6.164,-6.164,-6.1562,-6.1562,-6.1172,-6.0273,-5.9687,-5.8515,-5.7539,-5.7109,-5.6133,-5.5781,-5.5273,-5.4453,-5.3711,-5.3594,-5.3359,-5.3086,-5.2891,-5.25,-5.2187,-5.1719,-5.1445,-5.1406,-5.1406,-5.1406,-5.1406,-5.1406,-5.1406,-5.1406,-5.1367,-5.1327,-5.117,-5.1052,-5.1049,-5.0843,-5.054,-5.027,-4.9964,-4.9819,-4.9947,-7.5076,-7.4687,-7.5195,-7.5625,-7.6015,-7.6836,-7.7226,-7.7109,-7.6601,-7.668,-7.6875,-7.5976,-7.5625,-7.5742,-7.5351,-7.4765,-7.4531,-7.3711,-7.332,-7.293,-7.0625,-6.9726,-6.8906,-6.793,-6.7812,-6.8633,-6.875,-6.8906,-6.957,-6.9453,-6.8711,-6.7773,-6.7226,-6.707,-6.7031,-6.7148,-6.7187,-6.7031,-6.6719,-6.6758,-6.6601,-6.6133,-6.5859,-6.6406,-6.6484,-6.6367,-6.6758,-6.6914,-6.6914,-6.6914,-6.6914,-6.6914,-6.6914,-6.6914,-6.6914,-6.668,-6.6406,-6.5781,-6.543,-6.5273,-6.5234,-6.5234,-6.4375,-6.4219,-6.4414,-6.3594,-6.3515,-6.3672,-6.3398,-6.3359,-6.332,-6.3281,-6.2734,-6.2109,-6.1797,-6.1797,-6.1719,-6.168,-6.1601,-6.0742,-6.0,-5.8672,-5.7383,-5.6953,-5.6445,-5.6406,-5.6367,-5.5508,-5.4805,-5.4844,-5.4609,-5.4141,-5.3711,-5.3203,-5.2578,-5.1836,-5.1562,-5.1406,-5.1445,-5.1523,-5.1406,-5.1406,-5.1406,-5.1406,-5.1367,-5.1367,-5.1367,-5.1328,-5.1247,-5.1126,-5.0959,-5.0703,-5.0525,-5.0494,-5.0503,-7.4531,-7.4531,-7.457,-7.5,-7.5859,-7.6562,-7.7031,-7.7187,-7.7148,-7.7148,-7.7148,-7.707,-7.6484,-7.5859,-7.5742,-7.5117,-7.4258,-7.3437,-7.3086,-7.2383,-7.039,-6.9726,-6.8789,-6.7773,-6.7734,-6.7734,-6.789,-6.8203,-6.8242,-6.8164,-6.7617,-6.707,-6.6992,-6.6914,-6.7109,-6.75,-6.7578,-6.7422,-6.75,-6.7422,-6.7148,-6.6797,-6.6601,-6.6836,-6.6758,-6.6719,-6.6914,-6.6914,-6.6914,-6.6914,-6.6914,-6.6914,-6.6914,-6.6914,-6.6914,-6.6875,-6.6836,-6.6719,-6.6601,-6.6484,-6.6523,-6.6328,-6.5898,-6.5703,-6.5078,-6.418,-6.3711,-6.3711,-6.3555,-6.3828,-6.3984,-6.3476,-6.2969,-6.25,-6.2031,-6.1914,-6.1758,-6.1719,-6.1719,-6.1211,-6.0625,-5.9492,-5.8008,-5.7305,-5.6914,-5.6758,-5.6758,-5.6719,-5.6211,-5.6562,-5.6133,-5.5039,-5.457,-5.3906,-5.3203,-5.2578,-5.2031,-5.1992,-5.1758,-5.1758,-5.1601,-5.1406,-5.1406,-5.1406,-5.1406,-5.1406,-5.1406,-5.1406,-5.1366,-5.1285,-5.1164,-5.1153,-5.0937,-5.0945,-5.0967,-7.332,-7.2812,-7.3398,-7.3828,-7.414,-7.5,-7.6015,-7.7109,-7.7226,-7.7226,-7.7226,-7.7187,-7.6367,-7.5039,-7.4961,-7.4101,-7.3203,-7.2422,-7.1953,-7.1094,-7.0195,-6.9258,-6.8359,-6.7617,-6.7578,-6.7812,-6.7969,-6.7969,-6.8633,-6.8125,-6.7305,-6.7031,-6.6914,-6.6914,-6.7187,-6.7734,-6.7812,-6.789,-6.8086,-6.789,-6.7578,-6.7148,-6.7031,-6.6914,-6.6914,-6.6914,-6.6914,-6.6914,-6.6914,-6.6914,-6.6914,-6.6914,-6.6914,-6.6914,-6.6914,-6.6914,-6.6875,-6.6875,-6.6914,-6.6914,-6.6914,-6.6875,-6.6523,-6.6172,-6.5312,-6.4219,-6.3398,-6.3476,-6.3515,-6.3633,-6.3828,-6.3555,-6.3125,-6.2734,-6.2265,-6.1836,-6.1719,-6.1719,-6.1719,-6.1523,-6.0937,-5.9961,-5.8515,-5.7734,-5.7383,-5.7109,-5.707,-5.7226,-5.7578,-5.789,-5.7461,-5.6328,-5.5742,-5.5156,-5.4492,-5.3828,-5.3125,-5.2578,-5.2305,-5.1992,-5.168,-5.1523,-5.1445,-5.1406,-5.1406,-5.1406,-5.1406,-5.1406,-5.1406,-5.1406,-5.1326,-5.1358,-5.1379,-5.1284,-5.1213,-7.2461,-7.2109,-7.2539,-7.2969,-7.3437,-7.4219,-7.5273,-7.6094,-7.6172,-7.6328,-7.668,-7.668,-7.6094,-7.5273,-7.4805,-7.3945,-7.2695,-7.2265,-7.1836,-7.1367,-6.9961,-6.9336,-6.8476,-6.7539,-6.7265,-6.7578,-6.7734,-6.7695,-6.8281,-6.8047,-6.7265,-6.6953,-6.6914,-6.6914,-6.7148,-6.7695,-6.8125,-6.8164,-6.8164,-6.7969,-6.7617,-6.7226,-6.6992,-6.6914,-6.6914,-6.6914,-6.6914,-6.6914,-6.6914,-6.6914,-6.6914,-6.6914,-6.6914,-6.6914,-6.6914,-6.6914,-6.6914,-6.6914,-6.6914,-6.6914,-6.6914,-6.6797,-6.6601,-6.6094,-6.5351,-6.4297,-6.375,-6.3476,-6.332,-6.3242,-6.3476,-6.3594,-6.3281,-6.2969,-6.2383,-6.1758,-6.1719,-6.1719,-6.164,-6.1562,-6.0937,-6.0078,-5.918,-5.8437,-5.7851,-5.7578,-5.7617,-5.793,-5.8437,-5.9062,-5.8476,-5.7422,-5.6992,-5.6562,-5.5742,-5.4765,-5.3984,-5.3242,-5.2734,-5.2383,-5.1914,-5.1562,-5.1445,-5.1406,-5.1406,-5.1406,-5.1406,-5.1406,-5.1406,-5.1406,-5.1406,-5.1442,-5.139,-5.1316,-5.1261,-7.1992,-7.1992,-7.1992,-7.2461,-7.3242,-7.3945,-7.4336,-7.4414,-7.4414,-7.4922,-7.5664,-7.582,-7.5664,-7.5039,-7.4531,-7.3828,-7.2851,-7.2226,-7.164,-7.1758,-7.0156,-6.9219,-6.8398,-6.7734,-6.7148,-6.6953,-6.6992,-6.7265,-6.7031,-6.7031,-6.7109,-6.6914,-6.6914,-6.6914,-6.7031,-6.7539,-6.7851,-6.7851,-6.7851,-6.7734,-6.7344,-6.7031,-6.6914,-6.6914,-6.6914,-6.6914,-6.6914,-6.6914,-6.6914,-6.6914,-6.6914,-6.6914,-6.6914,-6.6914,-6.6914,-6.6914,-6.6914,-6.6914,-6.6914,-6.6914,-6.6914,-6.664,-6.6211,-6.5937,-6.5312,-6.4492,-6.3945,-6.3594,-6.3398,-6.3789,-6.4101,-6.3672,-6.3242,-6.3359,-6.3203,-6.2578,-6.2187,-6.2187,-6.2148,-6.2031,-6.1758,-6.0859,-5.9844,-5.9062,-5.8164,-5.7969,-5.789,-5.8242,-5.8984,-5.9765,-5.9336,-5.8398,-5.8047,-5.7422,-5.6133,-5.5234,-5.4648,-5.3984,-5.3476,-5.2812,-5.2422,-5.1914,-5.1406,-5.1406,-5.1406,-5.1406,-5.1406,-5.1406,-5.1406,-5.1406,-5.1406,-5.1483,-5.1474,-5.1603,-5.1372,-7.1992,-7.1992,-7.1992,-7.2148,-7.2305,-7.2539,-7.2656,-7.2617,-7.2617,-7.3515,-7.4726,-7.4883,-7.457,-7.4101,-7.3906,-7.3242,-7.2461,-7.2148,-7.1172,-7.0586,-6.9609,-6.8828,-6.7812,-6.7305,-6.6875,-6.6914,-6.6914,-6.6836,-6.6914,-6.6914,-6.6914,-6.6914,-6.6914,-6.6914,-6.6914,-6.7305,-6.7344,-6.7383,-6.7344,-6.7578,-6.7617,-6.7148,-6.6914,-6.6914,-6.6914,-6.6914,-6.6914,-6.6914,-6.6914,-6.6914,-6.6914,-6.6914,-6.6914,-6.6914,-6.6914,-6.6914,-6.6914,-6.6914,-6.6914,-6.6914,-6.6914,-6.6914,-6.6562,-6.6172,-6.5586,-6.4765,-6.418,-6.3867,-6.3789,-6.4297,-6.4414,-6.3789,-6.3359,-6.375,-6.4062,-6.3398,-6.2695,-6.2656,-6.2656,-6.25,-6.2383,-6.1562,-6.0547,-5.9648,-5.875,-5.8242,-5.7969,-5.8203,-5.9101,-5.9844,-5.9844,-5.918,-5.8984,-5.8242,-5.6758,-5.5859,-5.5351,-5.5,-5.4609,-5.3828,-5.2969,-5.2461,-5.1992,-5.1562,-5.1406,-5.1641,-5.1719,-5.1445,-5.1445,-5.168,-5.1836,-5.2069,-5.2297,-5.2388,-5.1929,-7.0859,-7.0937,-7.1289,-7.164,-7.1953,-7.1992,-7.1992,-7.1992,-7.1992,-7.2539,-7.3437,-7.3789,-7.3711,-7.3281,-7.3281,-7.2773,-7.207,-7.1992,-7.1289,-7.0351,-6.9414,-6.8672,-6.7851,-6.7031,-6.6523,-6.6484,-6.6367,-6.6406,-6.6797,-6.6914,-6.6914,-6.6914,-6.6914,-6.6914,-6.6914,-6.6914,-6.6914,-6.6914,-6.6914,-6.7187,-6.7656,-6.7187,-6.6875,-6.6914,-6.6914,-6.6914,-6.6914,-6.6914,-6.6914,-6.6914,-6.6914,-6.6914,-6.6914,-6.6914,-6.6914,-6.6914,-6.6914,-6.6914,-6.6914,-6.6914,-6.6914,-6.6914,-6.6875,-6.6445,-6.6445,-6.5703,-6.5,-6.4609,-6.4062,-6.4375,-6.4414,-6.3984,-6.3906,-6.418,-6.4219,-6.3867,-6.3359,-6.3125,-6.3008,-6.2812,-6.2461,-6.1797,-6.0937,-6.0351,-5.9609,-5.9336,-5.8945,-5.8789,-5.9531,-6.0039,-6.0,-5.9844,-5.9531,-5.8515,-5.6875,-5.6328,-5.6211,-5.5898,-5.5586,-5.4648,-5.3672,-5.3086,-5.2578,-5.2383,-5.2305,-5.2344,-5.2305,-5.2109,-5.2383,-5.2851,-5.2851,-5.285,-5.3037,-5.3251,-5.298,-6.9531,-6.9609,-7.039,-7.1133,-7.1797,-7.1953,-7.1992,-7.1992,-7.1992,-7.1992,-7.2148,-7.2695,-7.2969,-7.3125,-7.3086,-7.25,-7.2109,-7.1953,-7.1328,-7.0234,-6.9687,-6.8633,-6.7851,-6.7187,-6.664,-6.625,-6.6133,-6.6445,-6.6875,-6.6914,-6.6914,-6.6914,-6.6914,-6.6914,-6.6914,-6.6914,-6.6914,-6.6914,-6.6875,-6.6797,-6.6836,-6.6875,-6.6875,-6.6914,-6.6914,-6.6914,-6.6914,-6.6914,-6.6914,-6.6914,-6.6914,-6.6914,-6.6914,-6.6914,-6.6914,-6.6914,-6.6914,-6.6914,-6.6914,-6.6914,-6.6914,-6.6914,-6.6914,-6.6875,-6.6836,-6.6484,-6.5781,-6.5312,-6.4765,-6.457,-6.4648,-6.457,-6.457,-6.4687,-6.4648,-6.4648,-6.4297,-6.3867,-6.3594,-6.3359,-6.2812,-6.2187,-6.1562,-6.1015,-6.0508,-6.0273,-6.0195,-6.0156,-6.0195,-6.0469,-6.0586,-6.0273,-5.9883,-5.8633,-5.7109,-5.664,-5.6601,-5.6367,-5.5937,-5.5117,-5.4375,-5.375,-5.3437,-5.3555,-5.3476,-5.3242,-5.3203,-5.3086,-5.3476,-5.3789,-5.3555,-5.3473,-5.3973,-5.4144,-5.4213,-6.9492,-6.957,-7.039,-7.082,-7.1055,-7.168,-7.1992,-7.1992,-7.1992,-7.1992,-7.1875,-7.1406,-7.1523,-7.2226,-7.2226,-7.1875,-7.1562,-7.164,-7.0312,-6.8867,-6.9219,-6.8398,-6.7461,-6.6836,-6.6797,-6.6601,-6.6445,-6.6719,-6.6875,-6.6914,-6.6914,-6.6914,-6.6914,-6.6914,-6.6914,-6.6914,-6.6914,-6.6914,-6.6797,-6.6719,-6.6367,-6.6484,-6.6836,-6.6914,-6.6914,-6.6914,-6.6914,-6.6914,-6.6914,-6.6914,-6.6914,-6.6953,-6.6992,-6.6992,-6.6953,-6.7031,-6.7031,-6.6914,-6.6914,-6.6914,-6.6914,-6.6914,-6.6914,-6.6914,-6.6875,-6.6875,-6.6406,-6.6328,-6.5937,-6.5781,-6.5742,-6.5469,-6.543,-6.5742,-6.582,-6.5898,-6.5781,-6.5312,-6.4883,-6.4492,-6.4023,-6.3281,-6.25,-6.168,-6.0625,-6.0508,-6.0508,-6.0469,-6.0586,-6.0859,-6.1133,-6.0742,-6.0312,-5.9219,-5.7969,-5.7031,-5.6758,-5.6601,-5.6367,-5.5742,-5.5078,-5.4336,-5.418,-5.4492,-5.4258,-5.3906,-5.3906,-5.4141,-5.4101,-5.4258,-5.4023,-5.4053,-5.463,-5.5153,-5.5333]},{"header":{"parameterUnit":"m.s-1","parameterCategory":1,"la1":31.0,"la2":29.5877,"lo1":-88.7671,"lo2":-86.6584,"dy":0.0162,"dx":0.0185,"nx":115,"ny":88,"refTime":"2024-05-07T12:00:00:Z","depth":0,"parameterNumber":3,"parameterNumberName":"V-component_of_WINDS"},"data":[0.0,0.0,0.0,0.0,0.0,0.0,0.0,0.0,0.0,0.0,0.0,0.0,0.0,0.0,0.0,0.0,0.0,0.0,0.0,0.0,0.0,0.0,0.0,0.0,0.0,0.0,0.0,0.0,0.0,0.0,0.0,0.0,0.0,0.0,0.0,0.0,0.0,0.0,0.0,0.0,0.0,0.0,0.0,0.0,0.0,0.0,0.0,0.0,0.0,0.0,0.0,0.0,0.0,0.0,0.0,0.0,0.0,0.0,0.0,0.0,0.0,0.0,0.0,0.0,0.0,0.0,0.0,0.0,0.0,0.0,0.0,0.0,0.0,0.0,0.0,0.0,0.0,0.0,0.0,0.0,0.0,0.0,0.0,0.0,0.0,0.0,0.0,0.0,0.0,0.0,0.0,0.0,0.0,0.0,0.0,0.0,0.0,0.0,0.0,0.0,0.0,0.0,0.0,0.0,0.0,0.0,0.0,0.0,0.0,0.0,0.0,0.0,0.0,0.0,0.0,0.0,0.0,0.0,0.0,0.0,0.0,0.0,0.0,0.0,0.0,0.0,0.0,0.0,0.0,0.0,0.0,0.0,0.0,0.0,0.0,0.0,0.0,0.0,0.0,0.0,0.0,0.0,0.0,0.0,0.0,0.0,0.0,0.0,0.0,0.0,0.0,0.0,0.0,0.0,0.0,0.0,0.0,0.0,0.0,0.0,0.0,0.0,0.0,0.0,0.0,0.0,0.0,0.0,0.0,0.0,0.0,0.0,0.0,0.0,0.0,0.0,0.0,0.0,0.0,0.0,0.0,0.0,0.0,0.0,0.0,0.0,0.0,0.0,0.0,0.0,0.0,0.0,0.0,0.0,0.0,0.0,0.0,0.0,0.0,0.0,0.0,0.0,0.0,0.0,0.0,0.0,0.0,0.0,0.0,0.0,0.0,0.0,0.0,0.0,0.0,0.0,0.0,0.0,0.0,0.0,0.0,0.0,0.0,0.0,0.0,0.0,0.0,0.0,0.0,0.0,0.0,0.0,0.0,0.0,0.0,0.0,0.0,0.0,0.0,0.0,0.0,0.0,0.0,0.0,0.0,0.0,0.0,0.0,0.0,0.0,0.0,0.0,0.0,0.0,0.0,0.0,0.0,0.0,0.0,0.0,0.0,0.0,0.0,0.0,0.0,0.0,0.0,0.0,0.0,0.0,0.0,0.0,0.0,0.0,0.0,0.0,0.0,0.0,0.0,0.0,0.0,0.0,0.0,0.0,0.0,0.0,0.0,0.0,0.0,0.0,0.0,0.0,0.0,0.0,0.0,0.0,0.0,0.0,0.0,0.0,0.0,0.0,0.0,0.0,0.0,0.0,0.0,0.0,0.0,0.0,0.0,0.0,0.0,0.0,0.0,0.0,0.0,0.0,0.0,0.0,0.0,0.0,0.0,0.0,0.0,0.0,0.0,0.0,0.0,0.0,0.0,0.0,0.0,0.0,0.0,0.0,0.0,0.0,0.0,0.0,0.0,0.0,0.0,0.0,0.0,0.0,0.0,0.0,0.0,0.0,0.0,0.0,0.0,0.0,0.0,0.0,0.0,0.0,0.0,0.0,0.0,0.0,0.0,0.0,0.0,0.0,0.0,0.0,0.0,0.0,0.0,0.0,0.0,0.0,0.0,0.0,0.0,0.0,0.0,0.0,0.0,0.0,0.0,0.0,0.0,0.0,0.0,0.0,0.0,0.0,0.0,0.0,0.0,0.0,0.0,0.0,0.0,0.0,0.0,0.0,0.0,0.0,0.0,0.0,0.0,0.0,0.0,0.0,0.0,0.0,0.0,0.0,0.0,0.0,0.0,0.0,0.0,0.0,0.0,0.0,0.0,0.0,0.0,0.0,0.0,0.0,0.0,0.0,0.0,0.0,0.0,0.0,0.0,0.0,0.0,0.0,0.0,0.0,0.0,0.0,0.0,0.0,0.0,0.0,0.0,0.0,0.0,0.0,0.0,0.0,0.0,0.0,0.0,0.0,0.0,0.0,0.0,0.0,0.0,0.0,0.0,0.0,0.0,0.0,0.0,0.0,0.0,0.0,0.0,0.0,0.0,0.0,0.0,0.0,0.0,0.0,0.0,0.0,0.0,0.0,0.0,0.0,0.0,0.0,0.0,0.0,0.0,0.0,0.0,0.0,0.0,0.0,0.0,0.0,0.0,0.0,0.0,0.0,0.0,0.0,0.0,0.0,0.0,0.0,0.0,0.0,0.0,0.0,0.0,0.0,0.0,0.0,0.0,0.0,0.0,0.0,0.0,0.0,0.0,0.0,0.0,0.0,0.0,0.0,0.0,0.0,0.0,0.0,0.0,0.0,0.0,0.0,0.0,0.0,0.0,0.0,0.0,0.0,0.0,0.0,0.0,0.0,0.0,0.0,0.0,0.0,0.0,0.0,0.0,0.0,0.0,0.0,0.0,0.0,0.0,0.0,0.0,0.0,0.0,0.0,0.0,0.0,0.0,0.0,0.0,0.0,0.0,0.0,0.0,0.0,0.0,0.0,0.0,0.0,0.0,0.0,0.0,0.0,0.0,0.0,0.0,0.0,0.0,0.0,0.0,0.0,0.0,0.0,0.0,0.0,0.0,0.0,0.0,0.0,0.0,0.0,0.0,0.0,0.0,0.0,0.0,0.0,0.0,0.0,0.0,0.0,0.0,0.0,0.0,0.0,0.0,0.0,0.0,0.0,0.0,0.0,0.0,0.0,0.0,0.0,0.0,0.0,0.0,0.0,0.0,0.0,0.0,0.0,0.0,0.0,0.0,0.0,0.0,0.0,0.0,0.0,0.0,0.0,0.0,0.0,0.0,0.0,0.0,0.0,0.0,0.0,0.0,0.0,0.0,0.0,0.0,0.0,0.0,0.0,0.0,0.0,0.0,0.0,0.0,0.0,0.0,0.0,0.0,0.0,0.0,0.0,0.0,0.0,0.0,0.0,0.0,0.0,0.0,0.0,0.0,0.0,0.0,0.0,0.0,0.0,0.0,0.0,0.0,0.0,0.0,0.0,0.0,0.0,0.0,0.0,0.0,0.0,0.0,0.0,0.0,0.0,0.0,0.0,0.0,0.0,0.0,0.0,0.0,0.0,0.0,0.0,0.0,0.0,0.0,0.0,0.0,0.0,0.0,0.0,0.0,0.0,0.0,0.0,0.0,0.0,0.0,0.0,0.0,0.0,0.0,0.0,0.0,0.0,0.0,0.0,0.0,0.0,0.0,0.0,0.0,0.0,0.0,0.0,0.0,0.0,0.0,0.0,0.0,0.0,0.0,0.0,0.0,0.0,0.0,0.0,0.0,0.0,0.0,0.0,0.0,0.0,0.0,0.0,0.0,0.0,0.0,0.0,0.0,0.0,0.0,0.0,0.0,0.0,0.0,0.0,0.0,0.0,0.0,0.0,0.0,0.0,0.0,0.0,0.0,0.0,0.0,0.0,0.0,0.0,0.0,0.0,0.0,0.0,0.0,0.0,0.0,0.0,0.0,0.0,0.0,0.0,0.0,0.0,0.0,0.0,0.0,0.0,0.0,0.0,0.0,0.0,0.0,0.0,0.0,0.0,0.0,0.0,0.0,0.0,0.0,0.0,0.0,0.0,0.0,0.0,0.0,0.0,0.0,0.0,0.0,0.0,0.0,0.0,0.0,0.0,0.0,0.0,0.0,0.0,0.0,0.0,0.0,0.0,0.0,0.0,0.0,0.0,0.0,0.0,0.0,0.0,0.0,0.0,0.0,0.0,0.0,0.0,0.0,0.0,0.0,0.0,0.0,0.0,0.0,0.0,0.0,0.0,0.0,0.0,0.0,0.0,0.0,0.0,0.0,0.0,0.0,0.0,0.0,0.0,0.0,0.0,0.0,0.0,0.0,0.0,0.0,0.0,0.0,0.0,0.0,0.0,0.0,0.0,0.0,0.0,0.0,0.0,0.0,0.0,0.0,0.0,0.0,0.0,0.0,0.0,0.0,0.0,0.0,0.0,0.0,0.0,0.0,0.0,0.0,0.0,0.0,0.0,0.0,0.0,0.0,0.0,0.0,0.0,0.0,0.0,0.0,0.0,0.0,0.0,0.0,0.0,0.0,0.0,0.0,0.0,0.0,0.0,0.0,0.0,0.0,0.0,0.0,0.0,0.0,0.0,0.0,0.0,0.0,0.0,0.0,0.0,0.0,0.0,0.0,0.0,0.0,0.0,0.0,0.0,0.0,0.0,0.0,0.0,0.0,0.0,0.0,0.0,0.0,0.0,0.0,0.0,-0.5137,0.0,0.0,0.0,0.0,0.0,0.0,0.0,0.0,0.0,0.0,0.0,0.0,0.0,0.0,0.0,0.0,0.0,0.0,0.0,0.0,0.0,0.0,0.0,0.0,0.0,0.0,0.0,0.0,0.0,0.0,0.0,0.0,0.0,0.0,0.0,0.0,0.0,0.0,0.0,0.0,0.0,0.0,0.0,0.0,0.0,0.0,0.0,0.0,0.0,0.0,0.0,0.0,0.0,0.0,0.0,0.0,0.0,0.0,0.0,0.0,0.0,0.0,0.0,0.0,0.0,0.0,0.0,0.0,0.0,0.0,0.0,0.0,0.0,0.0,0.0,0.0,0.0,0.0,0.0,0.0,0.0,0.0,0.0,0.0,0.0,0.0,0.0,0.0,0.0,0.0,0.0,0.0,0.0,0.0,0.0,0.0,0.0,0.0,0.0,0.0,0.0,0.0,0.0,0.0,0.0,0.0,0.0,0.0,0.0,0.0,-0.6237,-0.6318,-0.5589,-0.5186,-0.5181,0.0,0.0,0.0,0.0,0.0,0.0,0.0,0.0,0.0,0.0,0.0,0.0,0.0,0.0,0.0,0.0,0.0,0.0,0.0,0.0,0.0,0.0,0.0,0.0,0.0,0.0,0.0,0.0,0.0,0.0,0.0,0.0,0.0,0.0,0.0,0.0,0.0,0.0,0.0,0.0,0.0,0.0,0.0,0.0,0.0,0.0,0.0,0.0,0.0,0.0,0.0,0.0,0.0,0.0,0.0,0.0,0.0,0.0,0.0,0.0,0.0,0.0,0.0,0.0,0.0,0.0,0.0,0.0,0.0,0.0,0.0,0.0,0.0,0.0,0.0,0.0,0.0,0.0,0.0,0.0,0.0,0.0,0.0,0.0,0.0,0.0,0.0,0.0,0.0,0.0,0.0,0.0,0.0,0.0,0.0,0.0,0.0,0.0,0.0,0.0,0.0,0.0,0.0,0.0,0.0,0.0,0.0,0.0,0.0,0.0,0.0,0.0,-0.5641,-0.5197,-0.49,0.0,0.0,0.0,0.0,0.0,0.0,0.0,0.0,0.0,0.0,0.0,0.0,0.0,0.0,0.0,0.0,0.0,0.0,0.0,0.0,0.0,0.0,0.0,0.0,0.0,0.0,0.0,0.0,0.0,0.0,0.0,0.0,0.0,0.0,0.0,0.0,0.0,0.0,0.0,0.0,0.0,0.0,0.0,0.0,0.0,0.0,0.0,0.0,0.0,0.0,0.0,0.0,0.0,0.0,0.0,0.0,0.0,0.0,0.0,0.0,0.0,0.0,0.0,0.0,0.0,0.0,0.0,0.0,0.0,0.0,0.0,0.0,0.0,0.0,0.0,0.0,0.0,0.0,0.0,0.0,0.0,0.0,0.0,0.0,0.0,0.0,0.0,0.0,0.0,0.0,0.0,0.0,0.0,0.0,0.0,0.0,0.0,0.0,0.0,0.0,0.0,0.0,0.0,0.0,0.0,0.0,0.0,0.0,0.0,0.0,-0.6262,-0.6637,-0.6022,0.0,-0.416,0.0,0.0,0.0,0.0,0.0,0.0,0.0,0.0,0.0,0.0,0.0,0.0,0.0,0.0,0.0,0.0,0.0,0.0,0.0,0.0,0.0,0.0,0.0,0.0,0.0,0.0,0.0,0.0,0.0,0.0,0.0,0.0,0.0,0.0,0.0,0.0,0.0,0.0,0.0,0.0,0.0,0.0,0.0,0.0,0.0,0.0,0.0,0.0,0.0,0.0,0.0,0.0,0.0,0.0,0.0,0.0,0.0,0.0,0.0,0.0,0.0,0.0,0.0,0.0,0.0,0.0,0.0,0.0,0.0,0.0,0.0,0.0,0.0,0.0,0.0,0.0,0.0,0.0,0.0,0.0,0.0,0.0,0.0,0.0,0.0,0.0,0.0,0.0,0.0,0.0,0.0,0.0,0.0,0.0,0.0,0.0,0.0,0.0,0.0,0.0,0.0,0.0,0.0,0.0,0.0,0.0,0.0,0.0,0.0,0.0,-0.6213,-0.6449,-0.5964,-0.5288,0.0,0.0,0.0,0.0,0.0,0.0,0.0,0.0,0.0,0.0,0.0,0.0,0.0,0.0,0.0,0.0,0.0,0.0,0.0,0.0,0.0,0.0,0.0,0.0,0.0,0.0,0.0,0.0,0.0,0.0,0.0,0.0,0.0,0.0,0.0,0.0,0.0,0.0,0.0,0.0,0.0,0.0,0.0,0.0,0.0,0.0,0.0,0.0,0.0,0.0,0.0,0.0,0.0,0.0,0.0,0.0,0.0,0.0,0.0,0.0,0.0,0.0,0.0,0.0,0.0,0.0,0.0,0.0,0.0,0.0,0.0,0.0,0.0,0.0,0.0,0.0,0.0,0.0,0.0,0.0,0.0,0.0,0.0,0.0,0.0,0.0,0.0,0.0,0.0,0.0,0.0,0.0,0.0,0.0,0.0,0.0,0.0,0.0,0.0,0.0,0.0,0.0,0.0,0.0,0.0,0.0,0.0,0.0,0.0,0.0,-0.6013,-0.622,-0.638,-0.5881,-0.532,-0.4635,0.0,0.0,0.0,0.0,0.0,0.0,0.0,0.0,0.0,0.0,0.0,0.0,0.0,0.0,0.0,0.0,0.0,0.0,0.0,0.0,0.0,0.0,0.0,0.0,0.0,0.0,0.0,0.0,0.0,0.0,0.0,0.0,0.0,0.0,0.0,0.0,0.0,0.0,0.0,0.0,0.0,0.0,0.0,0.0,0.0,0.0,0.0,0.0,0.0,0.0,0.0,0.0,0.0,0.0,0.0,0.0,0.0,0.0,0.0,0.0,0.0,0.0,0.0,0.0,0.0,0.0,0.0,0.0,0.0,0.0,0.0,0.0,0.0,0.0,0.0,0.0,0.0,0.0,0.0,0.0,0.0,0.0,0.0,0.0,0.0,0.0,0.0,0.0,0.0,0.0,0.0,0.0,0.0,0.0,0.0,0.0,0.0,0.0,0.0,0.0,0.0,0.0,0.0,0.0,0.0,0.0,0.0,0.0,-0.6186,-0.6282,-0.6399,-0.6548,-0.589,-0.5278,0.0,0.0,0.0,0.0,0.0,0.0,0.0,0.0,0.0,0.0,0.0,0.0,0.0,0.0,0.0,0.0,0.0,0.0,0.0,0.0,0.0,0.0,0.0,0.0,0.0,0.0,0.0,0.0,0.0,0.0,0.0,0.0,0.0,0.0,0.0,0.0,0.0,0.0,0.0,0.0,0.0,0.0,0.0,0.0,0.0,0.0,0.0,0.0,0.0,0.0,0.0,0.0,0.0,0.0,0.0,0.0,0.0,0.0,0.0,0.0,0.0,0.0,0.0,0.0,0.0,0.0,0.0,0.0,0.0,0.0,0.0,0.0,0.0,0.0,0.0,0.0,0.0,0.0,0.0,0.0,0.0,0.0,0.0,0.0,0.0,0.0,0.0,0.0,0.0,0.0,0.0,0.0,0.0,0.0,0.0,0.0,0.0,0.0,0.0,0.0,0.0,0.0,0.0,0.0,0.0,0.0,0.0,0.0,0.0,-0.5799,-0.6043,-0.6368,-0.6668,-0.6208,-0.5701,0.0,0.0,0.0,0.0,0.0,0.0,0.0,0.0,0.0,0.0,0.0,0.0,0.0,0.0,0.0,0.0,0.0,0.0,0.0,0.0,0.0,0.0,0.0,0.0,0.0,0.0,0.0,0.0,0.0,0.0,0.0,0.0,0.0,0.0,0.0,0.0,0.0,0.0,0.0,0.0,0.0,0.0,0.0,0.0,0.0,0.0,0.0,0.0,0.0,0.0,0.0,0.0,0.0,0.0,0.0,0.0,0.0,0.0,0.0,0.0,0.0,0.0,0.0,0.0,0.0,0.0,0.0,0.0,0.0,0.0,0.0,0.0,0.0,0.0,0.0,0.0,0.0,0.0,0.0,0.0,0.0,0.0,0.0,0.0,0.0,0.0,0.0,0.0,0.0,0.0,0.0,0.0,0.0,0.0,0.0,0.0,0.0,0.0,0.0,0.0,0.0,0.0,0.0,0.0,0.0,0.0,0.0,0.0,0.0,-0.5769,0.0,-0.638,-0.6725,-0.6306,-0.5954,0.0,0.0,0.0,0.0,0.0,0.0,0.0,0.0,0.0,0.0,0.0,0.0,0.0,0.0,0.0,0.0,0.0,0.0,0.0,0.0,0.0,0.0,0.0,0.0,0.0,0.0,0.0,0.0,0.0,0.0,0.0,0.0,0.0,0.0,0.0,0.0,0.0,0.0,0.0,0.0,0.0,0.0,0.0,0.0,0.0,0.0,0.0,0.0,0.0,0.0,0.0,0.0,0.0,0.0,0.0,0.0,0.0,0.0,0.0,0.0,0.0,0.0,0.0,0.0,0.0,0.0,0.0,0.0,0.0,0.0,0.0,0.0,0.0,0.0,0.0,0.0,0.0,0.0,0.0,0.0,0.0,0.0,0.0,0.0,0.0,0.0,0.0,0.0,0.0,0.0,0.0,0.0,0.0,0.0,0.0,0.0,0.0,0.0,0.0,0.0,0.0,0.0,0.0,0.0,0.0,0.0,0.0,0.0,-0.5357,-0.6039,-0.6278,-0.6498,-0.6656,-0.6257,-0.5874,0.0,0.0,0.0,0.0,0.0,0.0,0.0,0.0,0.0,0.0,0.0,0.0,0.0,0.0,0.0,0.0,0.0,0.0,0.0,0.0,0.0,0.0,0.0,0.0,0.0,0.0,0.0,0.0,0.0,0.0,0.0,0.0,0.0,0.0,0.0,0.0,0.0,0.0,0.0,0.0,0.0,0.0,0.0,0.0,0.0,0.0,0.0,0.0,0.0,0.0,0.0,0.0,0.0,0.0,0.0,0.0,0.0,0.0,0.0,0.0,0.0,0.0,0.0,0.0,0.0,0.0,0.0,0.0,0.0,0.0,0.0,0.0,0.0,0.0,0.0,0.0,0.0,0.0,0.0,0.0,0.0,0.0,0.0,0.0,0.0,0.0,0.0,0.0,0.0,0.0,0.0,0.0,0.0,0.0,0.0,0.0,0.0,0.0,0.0,0.0,0.0,0.0,0.0,0.0,0.0,0.0,0.0,0.0,0.0,-0.5474,-0.59,-0.6288,-0.668,-0.6466,-0.6318,0.0,0.0,0.0,0.0,0.0,0.0,0.0,0.0,0.0,0.0,0.0,0.0,0.0,0.0,0.0,0.0,0.0,0.0,0.0,0.0,0.0,0.0,0.0,0.0,0.0,0.0,0.0,0.0,0.0,0.0,0.0,0.0,0.0,0.0,0.0,0.0,0.0,0.0,0.0,0.0,0.0,0.0,0.0,0.0,0.0,0.0,0.0,0.0,0.0,0.0,0.0,0.0,0.0,0.0,0.0,0.0,0.0,0.0,0.0,0.0,0.0,0.0,0.0,0.0,0.0,0.0,0.0,0.0,0.0,0.0,0.0,0.0,0.0,0.0,0.0,0.0,0.0,0.0,0.0,0.0,0.0,0.0,0.0,0.0,0.0,0.0,0.0,0.0,0.0,0.0,0.0,0.0,0.0,0.0,0.0,0.0,0.0,0.0,0.0,0.0,0.0,0.0,0.0,0.0,0.0,0.0,0.0,0.0,0.0,-0.59,-0.6437,-0.6807,-0.6961,-0.7093,-0.6974,-0.6508,0.0,0.0,0.0,0.0,0.0,0.0,0.0,0.0,0.0,0.0,0.0,0.0,0.0,0.0,0.0,0.0,0.0,0.0,0.0,0.0,0.0,0.0,0.0,0.0,0.0,0.0,0.0,0.0,0.0,0.0,0.0,0.0,0.0,0.0,0.0,0.0,0.0,0.0,0.0,0.0,0.0,0.0,0.0,0.0,0.0,0.0,0.0,0.0,0.0,0.0,0.0,0.0,0.0,0.0,0.0,0.0,0.0,0.0,0.0,0.0,0.0,0.0,0.0,0.0,0.0,0.0,0.0,0.0,0.0,0.0,0.0,0.0,0.0,0.0,0.0,0.0,0.0,0.0,0.0,0.0,0.0,0.0,0.0,0.0,0.0,0.0,0.0,0.0,0.0,0.0,0.0,0.0,0.0,0.0,0.0,0.0,0.0,0.0,0.0,0.0,0.0,0.0,0.0,0.0,0.0,0.0,0.0,0.0,-0.7035,-0.7816,-0.798,-0.7624,-0.8053,-0.7774,0.0,0.0,0.0,0.0,0.0,0.0,0.0,0.0,0.0,0.0,0.0,0.0,0.0,0.0,0.0,0.0,0.0,0.0,0.0,0.0,0.0,0.0,0.0,0.0,0.0,0.0,0.0,0.0,0.0,0.0,0.0,0.0,0.0,0.0,0.0,0.0,0.0,0.0,0.0,0.0,0.0,0.0,0.0,0.0,0.0,0.0,0.0,0.0,0.0,0.0,0.0,0.0,0.0,0.0,0.0,0.0,0.0,0.0,0.0,0.0,0.0,0.0,0.0,0.0,0.0,0.0,0.0,0.0,0.0,0.0,0.0,0.0,0.0,0.0,0.0,0.0,0.0,0.0,0.0,0.0,0.0,0.0,0.0,0.0,0.0,0.0,0.0,0.0,0.0,0.0,0.0,0.0,0.0,0.0,0.0,0.0,0.0,0.0,0.0,0.0,0.0,0.0,0.0,0.0,0.0,0.0,0.0,0.0,0.0,-0.7823,-0.9413,-0.9703,-0.8654,-0.8432,-0.8018,0.0,0.0,0.0,0.0,0.0,0.0,0.0,0.0,0.0,0.0,0.0,0.0,0.0,0.0,0.0,0.0,0.0,0.0,0.0,0.0,0.0,0.0,0.0,0.0,0.0,0.0,0.0,0.0,0.0,0.0,0.0,0.0,0.0,0.0,0.0,0.0,0.0,0.0,0.0,0.0,0.0,0.0,0.0,0.0,0.0,0.0,0.0,0.0,0.0,0.0,0.0,0.0,0.0,0.0,0.0,0.0,0.0,0.0,0.0,0.0,0.0,0.0,0.0,0.0,0.0,0.0,0.0,0.0,0.0,0.0,0.0,0.0,0.0,0.0,0.0,0.0,0.0,0.0,0.0,0.0,0.0,0.0,0.0,0.0,0.0,0.0,0.0,0.0,0.0,0.0,0.0,0.0,0.0,0.0,0.0,0.0,0.0,0.0,0.0,0.0,0.0,0.0,0.0,0.0,0.0,0.0,0.0,0.0,-0.787,-0.859,-1.0443,-1.1188,-1.0553,-0.9689,-0.8791,0.0,0.0,0.0,0.0,0.0,0.0,0.0,0.0,0.0,0.0,0.0,0.0,0.0,0.0,0.0,0.0,0.0,0.0,0.0,0.0,0.0,0.0,0.0,0.0,0.0,0.0,0.0,0.0,0.0,0.0,0.0,0.0,0.0,0.0,0.0,0.0,0.0,0.0,0.0,0.0,0.0,0.0,0.0,0.0,0.0,0.0,0.0,0.0,0.0,0.0,0.0,0.0,0.0,0.0,0.0,0.0,0.0,0.0,0.0,0.0,0.0,0.0,0.0,0.0,0.0,0.0,0.0,0.0,0.0,0.0,0.0,0.0,0.0,0.0,0.0,0.0,0.0,0.0,0.0,0.0,0.0,0.0,0.0,0.0,0.0,0.0,0.0,0.0,0.0,0.0,0.0,0.0,0.0,0.0,0.0,0.0,0.0,0.0,0.0,0.0,0.0,0.0,0.0,0.0,0.0,0.0,0.0,0.0,-0.8528,-0.9423,-1.1233,-1.238,-1.2663,-1.1304,-0.9754,0.0,0.0,0.0,0.0,0.0,0.0,0.0,0.0,0.0,0.0,0.0,0.0,0.0,0.0,0.0,0.0,0.0,0.0,0.0,0.0,0.0,0.0,0.0,0.0,0.0,0.0,0.0,0.0,0.0,0.0,0.0,0.0,0.0,0.0,0.0,0.0,0.0,0.0,0.0,0.0,0.0,0.0,0.0,0.0,0.0,0.0,0.0,0.0,0.0,0.0,0.0,0.0,0.0,0.0,0.0,0.0,0.0,0.0,0.0,0.0,0.0,0.0,0.0,0.0,0.0,0.0,0.0,0.0,0.0,0.0,0.0,0.0,0.0,0.0,0.0,0.0,0.0,0.0,0.0,0.0,0.0,0.0,0.0,0.0,0.0,0.0,0.0,0.0,0.0,0.0,0.0,0.0,0.0,0.0,0.0,0.0,0.0,0.0,0.0,0.0,0.0,0.0,0.0,0.0,0.0,0.0,0.0,0.0,-0.915,-1.0006,-1.2062,-1.315,-1.3137,-1.1299,-0.9937,0.0,0.0,0.0,0.0,0.0,0.0,0.0,0.0,0.0,0.0,0.0,0.0,0.0,0.0,0.0,0.0,0.0,0.0,0.0,0.0,0.0,0.0,0.0,0.0,0.0,0.0,0.0,0.0,0.0,0.0,0.0,0.0,0.0,0.0,0.0,0.0,0.0,0.0,0.0,0.0,0.0,0.0,0.0,0.0,0.0,0.0,0.0,0.0,-0.1777,0.0,0.0,0.0,0.0,0.0,0.0,0.0,0.0,0.0,0.0,0.0,0.0,0.0,0.0,0.0,0.0,0.0,0.0,0.0,0.0,0.0,0.0,0.0,0.0,0.0,0.0,0.0,0.0,0.0,0.0,0.0,0.0,0.0,0.0,0.0,0.0,0.0,0.0,0.0,0.0,0.0,0.0,0.0,0.0,0.0,0.0,0.0,0.0,0.0,0.0,0.0,0.0,0.0,0.0,0.0,0.0,0.0,0.0,0.0,-0.9594,-1.0669,-1.249,-1.353,-1.366,-1.1998,-1.0636,0.0,0.0,0.0,0.0,0.0,0.0,0.0,0.0,0.0,0.0,0.0,0.0,0.0,0.0,0.0,0.0,0.0,0.0,0.0,0.0,0.0,0.0,0.0,0.0,0.0,0.0,0.0,0.0,0.0,0.0,0.0,0.0,0.0,0.0,0.0,0.0,0.0,0.0,0.0,0.0,0.0,0.0,0.0,0.0,0.0,0.0,0.0,0.0,0.0,0.0,0.0,0.0,0.0,0.0,0.0,0.0,0.0,0.0,0.0,0.0,0.0,0.0,0.0,0.0,0.0,0.0,0.0,0.0,0.0,0.0,0.0,0.0,0.0,0.0,0.0,0.0,0.0,0.0,0.0,0.0,0.0,0.0,0.0,0.0,0.0,0.0,0.0,0.0,0.0,0.0,0.0,0.0,0.0,0.0,0.0,0.0,0.0,0.0,0.0,0.0,0.0,0.0,0.0,0.0,0.0,0.0,0.0,-0.8675,-1.0004,-1.1296,-1.2907,-1.3865,-1.4021,-1.2732,-1.1335,-0.9869,0.0,0.0,0.0,0.0,0.0,0.0,0.0,0.0,0.0,0.0,0.0,0.0,0.0,0.0,0.0,0.0,0.0,0.0,0.0,0.0,0.0,0.0,0.0,0.0,0.0,0.0,0.0,0.0,0.0,0.0,0.0,0.0,0.0,0.0,0.0,0.0,0.0,0.0,-0.0074,0.0077,0.0,0.0,0.0,0.0,0.0,0.0,0.0,0.0,-0.2247,0.0,0.0,0.0,0.0,0.0,0.0,0.0,0.0,0.0,0.0,0.0,0.0,0.0,0.0,0.0,0.0,0.0,0.0,0.0,0.0,0.0,0.0,0.0,0.0,0.0,0.0,0.0,0.0,0.0,0.0,0.0,0.0,0.0,0.0,0.0,0.0,0.0,0.0,0.0,0.0,0.0,0.0,0.0,0.0,0.0,0.0,0.0,0.0,0.0,0.0,0.0,0.0,0.0,0.0,0.0,0.0,-0.8514,-0.9284,-1.0477,-1.2301,-1.3587,-1.4076,-1.3858,-1.2576,-1.1226,-0.9863,0.0,0.0,0.0,0.0,0.0,0.0,0.0,0.0,0.0,0.0,0.0,0.0,0.0,0.0,0.0,0.0,0.0,0.0,0.0,0.0,0.0,0.0,0.0,0.0,0.0,0.0,0.0,0.0,0.0,0.0,0.0,0.0,0.0,0.0,0.0,0.0,0.0,0.0,0.0,0.0724,0.053,0.0,0.0,0.0,0.0,0.0,0.0,0.0,0.0,-0.2149,0.0,0.0,0.0,0.0,0.0,0.0,0.0,0.0,0.0,0.0,0.0,0.0,0.0,0.0,0.0,0.0,0.0,0.0,0.0,0.0,0.0,0.0,0.0,0.0,0.0,0.0,0.0,0.0,0.0,0.0,0.0,0.0,0.0,0.0,0.0,0.0,0.0,0.0,0.0,0.0,0.0,0.0,0.0,0.0,0.0,0.0,0.0,0.0,0.0,0.0,0.0,0.0,0.0,0.0,0.0,-0.8851,-0.9919,-1.1206,-1.2654,-1.3541,-1.3919,-1.36,-1.2305,-1.1009,0.0,0.0,0.0,0.0,0.0,0.0,0.0,0.0,0.0,0.0,0.0,0.0,0.0,0.0,0.0,0.0,0.0,0.0,0.0,0.0,0.0,0.0,0.0,0.0,0.0,0.0,0.0,0.0,0.0,0.0,0.0,0.0,0.0,0.0,0.0,0.0,0.0,0.0,0.0,0.0,0.0377,0.0301,0.0,0.0,0.0,0.0,0.0,0.0,0.0,-0.1617,-0.1818,0.0,0.0,0.0,0.0,0.0,0.0,0.0,0.0,0.0,0.0,0.0,0.0,0.0,0.0,0.0,0.0,0.0,0.0,0.0,0.0,0.0,0.0,0.0,0.0,0.0,0.0,0.0,0.0,0.0,0.0,0.0,0.0,0.0,0.0,0.0,0.0,0.0,0.0,0.0,0.0,0.0,0.0,0.0,0.0,0.0,0.0,0.0,0.0,0.0,0.0,0.0,0.0,0.0,0.0,0.0,-0.9065,-1.0457,-1.1683,-1.2837,-1.3432,-1.3593,-1.3254,-1.187,-1.0616,0.0,0.0,0.0,0.0,0.0,0.0,0.0,0.0,0.0,0.0,0.0,0.0,0.0,0.0,0.0,0.0,0.0,0.0,0.0,0.0,0.0,0.0,0.0,0.0,0.0,0.0,0.0,0.0,0.0,0.0,0.0,0.0,0.0,0.0,0.0,0.0,0.0,0.0,0.0,0.0,0.0,-0.0045,0.009,-0.0587,0.0,0.0,0.0,0.0,-0.129,-0.1306,0.0,0.0,0.0,0.0,0.0,0.0,0.0,0.0,0.0,0.0,0.0,0.0,0.0,0.0,0.0,0.0,0.0,0.0,0.0,0.0,0.0,0.0,0.0,0.0,0.0,0.0,0.0,0.0,0.0,0.0,0.0,0.0,0.0,0.0,0.0,0.0,0.0,0.0,0.0,0.0,0.0,0.0,0.0,0.0,0.0,0.0,0.0,0.0,0.0,0.0,0.0,0.0,0.0,0.0,0.0,0.0,-0.933,-1.0375,-1.1633,-1.2942,-1.3295,-1.3247,-1.28,-1.1049,-0.989,0.0,0.0,0.0,0.0,0.0,0.0,0.0,0.0,0.0,0.0,0.0,0.0,0.0,0.0,0.0,0.0,0.0,0.0,0.0,0.0,0.0,0.0,0.0,0.0,0.0,0.0,0.0,0.0,0.0,0.0,0.0,0.0,0.0,0.0,0.0,0.0,0.0,0.0,0.0,0.0,0.0,-0.0188,0.0046,-0.0184,-0.0546,0.0,0.0,-0.0801,-0.1065,-0.1132,0.0,0.0,0.0,0.0,0.0,0.0,0.0,0.0,0.0,0.0,0.0,0.0,0.0,0.0,0.0,0.0,0.0,0.0,0.0,0.0,0.0,0.0,0.0,0.0,0.0,0.0,0.0,0.0,0.0,0.0,0.0,0.0,0.0,0.0,0.0,0.0,0.0,0.0,0.0,0.0,0.0,0.0,0.0,0.0,0.0,0.0,0.0,0.0,0.0,0.0,0.0,0.0,0.0,0.0,0.0,-0.8418,-0.9503,-1.0711,-1.1857,-1.2908,-1.2915,-1.2759,-1.2481,-1.0568,-0.9381,0.0,0.0,0.0,0.0,0.0,0.0,0.0,0.0,0.0,0.0,0.0,0.0,0.0,0.0,0.0,0.0,0.0,0.0,0.0,0.0,0.0,0.0,0.0,0.0,0.0,0.0,0.0,0.0,0.0,0.0,0.0,0.0,0.0,0.0,0.0,0.0,0.0,0.0,0.0,0.0,0.0,0.0,-0.0321,-0.0331,0.0,0.0,0.0,-0.0507,-0.0765,0.0,0.0,0.0,0.0,0.0,0.0,0.0,0.0,0.0,0.0,0.0,0.0,0.0,0.0,0.0,0.0,0.0,0.0,0.0,0.0,0.0,0.0,0.0,0.0,0.0,0.0,0.0,0.0,0.0,0.0,0.0,0.0,0.0,0.0,0.0,0.0,0.0,0.0,0.0,0.0,0.0,0.0,0.0,0.0,0.0,0.0,0.0,0.0,0.0,0.0,0.0,0.0,0.0,0.0,0.0,0.0,0.0,-0.9503,-1.086,-1.1945,-1.277,-1.2474,-1.2264,-1.2094,-1.027,0.0,0.0,0.0,0.0,0.0,0.0,0.0,0.0,0.0,0.0,0.0,0.0,0.0,0.0,0.0,0.0,0.0,0.0,0.0,0.0,0.0,0.0,0.0,0.0,0.0,0.0,0.0,-0.3724,0.0,0.0,0.0,0.0,0.0,0.0,0.0,0.0,0.0,0.0,0.0,0.0,0.0,0.0,-0.0943,-0.0649,-0.039,-0.025,0.0,0.0,-0.0287,-0.0465,-0.0643,-0.0751,0.0,0.0,0.0,0.0,0.0,0.0,0.0,0.0,0.0,0.0,0.0,0.0,0.0,0.0,0.0,0.0,0.0,0.0,0.0,0.0,0.0,0.0,0.0,0.0,0.0,0.0,0.0,0.0,0.0,0.0,0.0,0.0,0.0,0.0,0.0,0.0,0.0,0.0,0.0,0.0,0.0,0.0,0.0,0.0,0.0,0.0,0.0,0.0,0.0,0.0,0.0,0.0,0.0,0.0,-0.8757,-0.9268,-1.0649,-1.164,-1.2101,-1.1959,-1.1809,-1.1647,-1.031,-0.9306,0.0,0.0,0.0,0.0,0.0,0.0,0.0,0.0,0.0,0.0,0.0,0.0,0.0,0.0,0.0,0.0,0.0,0.0,0.0,0.0,0.0,0.0,0.0,0.0,0.0,0.0,0.0,0.0,0.0,0.0,0.0,0.0,0.0,0.0,0.0,0.0,0.0,0.0,0.0,0.0,0.0,-0.1327,-0.0687,-0.0253,-0.0105,0.0,-0.0156,-0.0101,-0.0301,-0.0664,-0.0843,-0.0649,0.0,0.0,0.0,0.0,0.0,0.0,0.0,0.0,0.0,0.0,0.0,0.0,0.0,0.0,0.0,0.0,0.0,0.0,0.0,0.0,0.0,0.0,0.0,0.0,0.0,0.0,0.0,0.0,0.0,0.0,0.0,0.0,0.0,0.0,0.0,0.0,0.0,0.0,0.0,0.0,0.0,0.0,0.0,0.0,0.0,0.0,0.0,0.0,0.0,0.0,0.0,0.0,0.0,-0.8703,-0.9221,-1.0695,-1.1565,-1.1898,-1.1775,-1.1586,-1.1341,-1.012,-0.9184,0.0,0.0,0.0,0.0,0.0,0.0,0.0,0.0,0.0,0.0,0.0,0.0,0.0,0.0,0.0,0.0,0.0,0.0,0.0,0.0,0.0,0.0,0.0,0.0,0.0,0.0,0.0,0.0,-0.4257,-0.3981,-0.3347,0.0,0.0,0.0,0.0,0.0,0.0,0.0,0.0,0.0,0.0,-0.1782,-0.1725,-0.1204,0.0,0.0,-0.0998,-0.1135,-0.1147,-0.1096,-0.0936,-0.0632,-0.0913,0.0,0.0,0.0,0.0,0.0,0.0,0.0,0.0,0.0,0.0,0.0,0.0,0.0,0.0,0.0,0.0,0.0,0.0,0.0,0.0,0.0,0.0,0.0,0.0,0.0,0.0,0.0,-0.6261,0.0,0.0,0.0,0.0,0.0,0.0,0.0,0.0,0.0,0.0,0.0,0.0,0.0,0.0,0.0,0.0,0.0,0.0,0.0,0.0,0.0,0.0,0.0,0.0,-0.8615,-0.9077,-1.0453,-1.1335,-1.1626,-1.1491,-1.1294,-1.1016,-1.0046,-0.9211,0.0,0.0,0.0,0.0,0.0,0.0,0.0,0.0,0.0,0.0,0.0,0.0,0.0,0.0,0.0,0.0,0.0,0.0,0.0,0.0,0.0,0.0,0.0,0.0,0.0,0.0,0.0,0.0,-0.4472,-0.3958,-0.3351,0.0,0.0,0.0,0.0,0.0,0.0,0.0,0.0,0.0,0.0,-0.2543,-0.275,-0.2022,-0.136,-0.1288,-0.1429,-0.1459,-0.123,-0.1092,-0.0878,-0.0539,0.0,0.0,0.0,0.0,0.0,0.0,0.0,0.0,0.0,0.0,0.0,0.0,0.0,0.0,0.0,0.0,0.0,0.0,0.0,0.0,0.0,0.0,0.0,0.0,0.0,0.0,0.0,-0.5951,0.0,0.0,-0.6261,0.0,0.0,0.0,0.0,0.0,0.0,0.0,0.0,0.0,0.0,0.0,0.0,0.0,0.0,0.0,0.0,0.0,0.0,0.0,0.0,0.0,0.0,-0.8425,-0.873,-1.0059,-1.088,-1.1234,-1.1036,-1.0826,-1.0724,-1.0127,-0.9462,-0.871,0.0,0.0,0.0,0.0,0.0,0.0,0.0,0.0,0.0,0.0,0.0,0.0,0.0,0.0,0.0,0.0,0.0,0.0,0.0,0.0,0.0,0.0,0.0,0.0,0.0,0.0,-0.4973,-0.4375,-0.3858,0.0,0.0,0.0,0.0,0.0,0.0,0.0,0.0,0.0,-0.4884,-0.4282,-0.3773,-0.3647,-0.2516,-0.1605,-0.1357,-0.1093,-0.0736,-0.0195,-0.049,-0.0678,0.0,0.0,0.0,0.0,0.0,0.0,0.0,0.0,0.0,0.0,0.0,0.0,0.0,0.0,0.0,0.0,0.0,0.0,0.0,0.0,0.0,0.0,0.0,0.0,0.0,0.0,0.0,-0.6972,-0.7017,0.0,0.0,0.0,0.0,0.0,0.0,0.0,0.0,0.0,0.0,0.0,-0.8187,-0.8289,0.0,0.0,0.0,0.0,0.0,0.0,0.0,0.0,0.0,0.0,0.0,0.0,-0.8316,-0.875,-0.9937,-1.067,-1.086,-1.0819,-1.0677,-1.0432,-1.0032,-0.9381,-0.8452,0.0,0.0,0.0,0.0,0.0,0.0,0.0,0.0,0.0,0.0,0.0,0.0,0.0,0.0,0.0,0.0,0.0,0.0,0.0,0.0,0.0,0.0,0.0,0.0,0.0,-0.5954,0.0,0.0,0.0,0.0,0.0,0.0,0.0,0.0,0.0,0.0,-0.4757,-0.521,-0.5513,-0.4304,-0.3426,-0.3658,-0.2679,-0.1879,0.0,0.0,0.0,0.0,0.0,0.0,0.0,0.0,0.0,0.0,0.0,0.0,0.0,0.0,0.0651,0.0235,0.0551,0.0885,0.0933,0.0,0.0,0.0,0.0,0.0,0.0,0.0,0.0,0.0,0.0,0.0,0.0,0.0,0.0,-0.7359,-0.7328,-0.761,0.0,0.0,0.0,0.0,0.0,0.0,0.0,0.0,-0.8321,-0.8816,-0.9103,-0.9195,-0.9164,-0.8866,-0.852,-0.7848,0.0,0.0,0.0,0.0,0.0,0.0,0.0,0.0,-0.8208,-0.8594,-0.9734,-1.0412,-1.0561,-1.0568,-1.0446,-1.0202,-0.9802,-0.9225,-0.8445,-0.7896,-0.7441,0.0,0.0,0.0,0.0,0.0,0.0,0.0,0.0,0.0,0.0,0.0,0.0,0.0,0.0,0.0,0.0,0.0,0.0,0.0,0.0,0.0,0.0,0.0,-0.5973,0.0,0.0,0.0,0.0,0.0,0.0,0.0,0.0,0.0,-0.4779,-0.5183,-0.5567,-0.592,-0.4778,-0.3949,-0.3896,0.0,0.0,0.0,0.0,0.0,0.0,0.0,-0.0474,-0.0042,-0.0043,0.0088,0.0548,0.0751,0.0954,0.1286,0.0,0.0,0.1347,0.1594,0.1967,0.1995,0.211,0.2361,0.2891,0.3097,0.3231,0.0,0.0,0.0,0.0,-0.7604,0.0,0.0,0.0,-0.7553,-0.736,0.0,-0.7707,0.0,0.0,0.0,0.0,-0.6742,-0.8039,0.0,0.0,-1.0139,-1.0677,-0.9917,-0.997,-0.9944,-0.9639,-0.9211,-0.8642,-0.8056,-0.7462,-0.7065,0.0,0.0,0.0,0.0,0.0,-0.8119,-0.8336,-0.9456,-1.012,-1.027,-1.0276,-1.0202,-0.9963,-0.9462,-0.9022,-0.8723,-0.8289,-0.7984,-0.7814,-0.722,0.0,0.0,0.0,0.0,0.0,0.0,0.0,0.0,0.0,0.0,0.0,0.0,0.0,0.0,0.0,0.0,0.0,0.0,0.0,0.0,-0.6151,0.0,0.0,0.0,0.0,0.0,0.0,0.0,0.0,0.0,-0.5342,-0.5013,-0.5463,-0.5931,-0.5993,0.0,0.0,0.0,0.0,-0.2831,-0.1489,-0.1029,-0.0676,-0.012,-0.0168,-0.0221,-0.0046,0.0,0.0,0.0353,0.0688,0.1154,0.1965,0.2738,0.2938,0.2062,0.2391,0.2687,0.2687,0.3014,0.3291,0.3529,0.3913,0.4127,-0.9557,0.0,0.0,0.0,0.0,-0.7877,-0.8142,-0.9034,-0.8833,-0.8576,-0.8299,-0.8406,0.0,0.0,0.0,0.0,0.0,0.0,-0.8845,-0.9343,-1.0181,-1.0677,-1.0941,-1.1097,-1.1009,-1.0704,-1.0263,-0.991,-0.9612,-0.892,-0.8018,-0.6896,0.0,0.0,0.0,0.0,-0.816,-0.8757,-0.9503,-0.9903,-1.0051,-1.0114,-0.993,-0.9741,-0.9354,-0.9062,-0.8824,-0.8642,-0.835,-0.7941,-0.7706,0.0,0.0,0.0,0.0,0.0,0.0,0.0,0.0,0.0,0.0,0.0,0.0,0.0,0.0,0.0,0.0,0.0,0.0,0.0,-0.6518,-0.6151,-0.558,0.0,0.0,0.0,0.0,0.0,0.0,0.0,0.0,0.0,-0.5594,-0.5287,-0.4932,0.0,0.0,-0.3164,-0.2635,-0.1905,-0.128,-0.0857,-0.0498,0.0,0.0,-0.0047,-0.0047,0.0189,0.0546,0.0824,0.0927,0.1634,0.2201,0.252,0.3393,0.4029,0.3739,0.3903,0.4139,0.4181,0.4279,0.4328,0.443,0.4548,0.4601,-1.089,-0.9907,-0.9118,-0.8964,-0.9149,-0.8701,-0.8959,-0.9812,-0.9492,-0.9201,-0.8898,-0.8998,-0.8482,-0.7568,-0.7782,0.0,0.0,0.0,-0.9462,-1.0283,-1.0582,-1.0989,-1.147,-1.1633,-1.1545,-1.1246,-1.0914,-1.0622,-1.0351,-0.9666,-0.8791,-0.7698,0.0,-0.7183,-0.7247,-0.7929,-0.8479,-0.8885,-0.9523,-0.9836,-0.9808,-0.9754,-0.97,-0.9523,-0.9279,-0.9083,-0.8947,-0.8797,-0.8595,-0.8316,-0.7895,-0.75,0.0,0.0,0.0,0.0,0.0,0.0,0.0,0.0,0.0,0.0,0.0,-0.6315,-0.6051,0.0,0.0,0.0,-0.6742,-0.6654,-0.6654,-0.61,0.0,0.0,0.0,0.0,0.0,0.0,0.0,-0.5501,-0.5637,-0.5712,-0.5822,-0.4886,-0.4258,-0.4328,-0.3563,-0.2672,-0.1766,0.0,-0.0831,-0.0427,-0.0143,0.0,0.0,0.0,0.005,0.0153,0.0576,0.091,0.1126,0.1871,0.2573,0.3003,0.3772,0.4467,0.4608,0.4812,0.4918,0.4904,0.4888,0.4888,0.4888,0.4916,0.483,-1.2065,-1.161,-1.0125,-0.967,-0.9906,-0.9686,-0.9797,-1.0053,-0.983,-0.9445,-0.9019,-0.946,-0.9336,-0.8743,-0.8897,0.0,-0.9707,-0.9856,-1.0304,-1.0921,-1.128,-1.1484,-1.1626,-1.1735,-1.1653,-1.1382,-1.1226,-1.0934,-1.0521,-0.9958,-0.9435,-0.8974,-0.8689,-0.833,-0.7943,-0.8587,-0.8898,-0.8946,-0.9485,-0.9754,-0.9612,-0.9449,-0.9419,-0.9361,-0.9262,-0.9055,-0.8871,-0.8851,-0.8784,-0.8649,-0.8001,-0.7622,-0.754,0.0,0.0,0.0,0.0,0.0,0.0,0.0,0.0,0.0,0.0,0.0,0.0,0.0,0.0,-0.7051,-0.6977,0.0,-0.6923,-0.6175,0.0,0.0,0.0,-0.4909,-0.5513,-0.542,-0.5506,-0.5908,0.0,0.0,-0.5673,-0.4389,-0.3755,-0.444,-0.3899,-0.2925,-0.1391,-0.1287,-0.112,-0.0144,0.0,0.0,0.0,0.0,0.0,0.0,0.0224,0.0612,0.0947,0.1726,0.2551,0.3335,0.3977,0.4496,0.5006,0.5095,0.5116,0.493,0.4918,0.493,0.4969,0.4962,0.4822,-1.181,-1.161,-1.1198,-1.0899,-1.0676,-1.0482,-1.0515,-1.0718,-1.0661,-1.0369,-0.9989,-1.0215,-1.0128,-0.9734,-0.9764,-1.0059,-1.0466,-1.0724,-1.1002,-1.1294,-1.1477,-1.1586,-1.1613,-1.1538,-1.1457,-1.1375,-1.1124,-1.0941,-1.0759,-1.0466,-0.9937,-0.93,-0.9205,-0.8947,-0.8526,-0.8737,-0.911,-0.9449,-0.9693,-0.9754,-0.9605,-0.9347,-0.9268,-0.9262,-0.8954,-0.8798,-0.871,-0.8655,-0.8521,-0.838,-0.8078,-0.7711,-0.7247,-0.6779,0.0,0.0,0.0,0.0,0.0,0.0,0.0,0.0,0.0,-0.6641,-0.6422,0.0,-0.677,0.0,-0.7088,-0.7265,-0.7265,-0.7063,0.0,0.0,-0.561,-0.5478,-0.54,-0.5469,-0.5608,-0.5922,-0.607,-0.5963,-0.5452,-0.4379,-0.3451,-0.3034,-0.2018,-0.1069,-0.0417,-0.0335,-0.0294,0.0,0.0,0.0,0.0,0.0,0.0,0.0,0.0436,0.0814,0.0878,0.212,0.3176,0.3428,0.4229,0.4892,0.497,0.5026,0.479,0.4398,0.4357,0.4583,0.4934,0.4629,0.4489,-1.1781,-1.1699,-1.1471,-1.1371,-1.1291,-1.0937,-1.092,-1.1115,-1.1109,-1.0934,-1.0796,-1.0841,-1.0805,-1.0587,-1.0723,-1.077,-1.0856,-1.1224,-1.1339,-1.1206,-1.144,-1.1518,-1.1511,-1.1362,-1.1287,-1.128,-1.0988,-1.088,-1.0867,-1.0711,-1.0351,-0.9883,-0.9876,-0.9686,-0.9249,-0.8927,-0.8832,-0.9008,-0.915,-0.9347,-0.9591,-0.9245,-0.8994,-0.8907,-0.8635,-0.8418,-0.8221,-0.8133,-0.8026,-0.7852,-0.7572,-0.7291,-0.697,-0.6569,-0.6331,0.0,0.0,0.0,0.0,0.0,0.0,0.0,0.0,0.0,0.0,0.0,-0.7068,-0.7007,-0.7407,-0.759,-0.7433,-0.7328,-0.7021,-0.638,-0.619,-0.6045,-0.5836,-0.5869,-0.5992,-0.6106,-0.6257,-0.6023,-0.5183,-0.4132,-0.3138,-0.2189,-0.1044,-0.0244,0.0,0.0,0.0,0.0,0.0,0.0,0.0,0.0,0.0,0.0,0.0483,0.0963,0.1241,0.2411,0.3451,0.3689,0.426,0.4653,0.4574,0.438,0.4178,0.385,0.3629,0.381,0.4417,0.4467,0.4583,-1.1819,-1.1786,-1.1422,-1.1471,-1.179,-1.1343,-1.1227,-1.1394,-1.1376,-1.1394,-1.147,-1.1356,-1.1246,-1.1201,-1.1404,-1.1332,-1.1044,-1.1332,-1.126,-1.1038,-1.1251,-1.1389,-1.1382,-1.1212,-1.1131,-1.1055,-1.0921,-1.0786,-1.0779,-1.0718,-1.0616,-1.0419,-1.0405,-1.0243,-0.9822,-0.8981,-0.8499,-0.8525,-0.852,-0.8845,-0.9469,-0.9035,-0.8662,-0.8377,-0.8228,-0.797,-0.7543,-0.7503,-0.7409,-0.7182,-0.6888,-0.6722,-0.6845,-0.6378,-0.6257,0.0,-0.6509,0.0,0.0,0.0,0.0,0.0,0.0,0.0,0.0,-0.7522,-0.7556,-0.7461,-0.7766,-0.7896,-0.7543,-0.735,-0.7208,-0.7064,-0.678,-0.6551,-0.6426,-0.6408,-0.6408,-0.6408,-0.6358,-0.5902,-0.488,-0.378,-0.2684,-0.1701,-0.072,0.0,0.0,0.0,0.0,0.0,0.0,0.0,0.0,0.0,0.0,0.0,0.0477,0.106,0.1591,0.2592,0.347,0.3836,0.4082,0.4109,0.3944,0.3627,0.3354,0.3243,0.3037,0.3127,0.3865,0.4246,0.4684,-1.1819,-1.1781,-1.1422,-1.1465,-1.1784,-1.1595,-1.1867,-1.2433,-1.232,-1.2282,-1.2243,-1.1505,-1.1377,-1.163,-1.124,-1.1116,-1.0972,-1.0822,-1.0822,-1.0966,-1.0967,-1.1107,-1.1375,-1.0829,-1.0567,-1.0561,-1.0363,-1.0365,-1.0298,-1.0598,-1.046,-0.9958,-0.9951,-0.968,-0.9101,0.0,0.0,0.0,-0.9083,-0.8859,-0.8859,-0.8316,-0.7943,-0.7767,-0.7665,0.0,-0.7224,-0.7066,-0.6795,-0.6535,-0.6563,0.0,0.0,0.0,0.0,0.0,0.0,0.0,0.0,0.0,0.0,0.0,-0.7522,-0.7495,-0.755,-0.7584,-0.7685,-0.7896,-0.7941,-0.8106,-0.8255,-0.8167,-0.7868,-0.7459,-0.7191,-0.6924,-0.6613,-0.6584,-0.6584,-0.6532,-0.6174,-0.5528,-0.4541,-0.3335,-0.2232,-0.1371,-0.0558,0.0,0.0,0.0,0.0,0.0,0.0,0.0,0.0,0.0,0.0,0.0,0.0464,0.0976,0.161,0.2523,0.3216,0.3403,0.3751,0.3853,0.3433,0.329,0.3048,0.2688,0.2907,0.3446,0.4048,0.3821,0.4034,-1.1819,-1.1786,-1.1427,-1.1465,0.0,-1.1907,-1.2154,-1.2624,-1.2546,-1.2522,-1.2481,-1.1883,-1.161,-1.153,-1.1174,-1.079,-1.037,-1.0425,-1.0425,-1.0364,-1.0434,-1.0582,-1.0785,-1.0295,-1.0095,-1.0021,-0.9958,-1.006,-1.0193,-1.0386,-1.0372,-1.027,-1.0072,-0.9893,-0.9713,-0.9483,-0.9408,-0.949,-0.9055,-0.8893,-0.9015,-0.8669,-0.8296,-0.7999,-0.7702,0.0,0.0,0.0,0.0,0.0,0.0,0.0,0.0,-0.7002,-0.7263,-0.7664,-0.7528,-0.7597,-0.7909,-0.7929,-0.8024,-0.8241,-0.8262,-0.8167,-0.795,-0.8133,-0.8289,-0.8312,-0.8386,-0.8513,-0.8581,-0.8459,-0.8215,-0.7846,-0.7459,-0.7071,-0.6771,-0.658,-0.6377,-0.6123,-0.587,-0.5187,-0.3786,-0.2924,-0.1967,-0.0959,0.0,0.0,0.0,0.0,0.0,0.0,0.0,0.0,0.0,0.0,0.0,0.0,0.0458,0.1116,0.1839,0.2437,0.2977,0.343,0.343,0.3128,0.2876,0.2576,0.2324,0.2118,0.2502,0.3047,0.3618,0.393,0.4438,-1.1808,-1.1754,-1.1411,-1.1471,-1.1864,-1.2077,-1.2272,-1.2475,-1.2511,0.0,0.0,-1.2107,-1.175,-1.1311,-1.0983,-1.0413,-0.9712,-1.0114,-1.0102,-0.9694,-0.991,-1.0058,-1.0115,-0.9789,-0.9594,-0.9594,-0.9594,-0.9728,-0.9987,-1.0127,-1.0319,-1.0585,-1.0326,-1.0241,-1.0317,-1.0145,-0.9822,-0.9286,-0.8898,-0.8885,-0.9188,-0.9006,-0.8649,-0.8015,-0.7794,-0.747,-0.6992,-0.6744,-0.6561,-0.6378,-0.6561,-0.678,-0.6942,-0.7228,-0.7507,-0.7779,-0.7814,-0.7963,-0.8374,-0.8402,-0.8506,-0.8817,-0.8789,-0.8642,-0.8411,-0.8676,-0.8831,-0.8764,-0.879,-0.8845,-0.8723,-0.8547,-0.834,-0.8079,-0.7559,-0.7127,-0.6877,-0.657,-0.6229,-0.5761,-0.5555,-0.4834,-0.3176,-0.2521,-0.1866,-0.0757,-0.0202,0.0,0.0,0.0,0.0,0.0,0.0,0.0,0.0,0.0,0.0,0.0,0.0455,0.1161,0.1967,0.232,0.2723,0.343,0.2975,0.2471,0.2271,0.1969,0.1617,0.1617,0.2115,0.2714,0.3221,0.4274,0.5277,-1.1759,-1.1639,-1.1378,-1.1471,-1.1779,-1.2077,-1.2222,-1.2327,-1.2476,-1.2417,-1.2311,-1.1759,-1.1453,-1.1244,-1.0565,-1.0064,-0.9712,-0.954,-0.9529,-0.9694,-0.9631,-0.9781,-1.0046,-0.944,-0.9183,-0.9183,-0.9183,-0.9183,-0.9316,-0.9921,-1.0187,-1.0259,-1.0187,-1.0058,-0.987,-1.0136,-1.0073,-0.9727,-0.9076,-0.8611,-0.8484,-0.8047,-0.754,-0.6948,-0.7133,-0.6994,-0.6514,-0.6478,-0.6372,-0.6183,-0.6325,-0.6762,-0.7333,-0.7611,-0.8027,-0.8649,-0.8628,-0.8581,-0.8642,-0.8648,-0.8676,-0.8683,-0.825,-0.8221,-0.8736,-0.8844,-0.8871,-0.8844,-0.8763,-0.8737,-0.8696,-0.8472,-0.8213,-0.7943,-0.759,-0.7259,-0.7004,-0.6691,-0.6333,-0.5821,-0.5234,-0.4483,-0.3274,-0.2318,-0.1512,-0.0858,-0.0303,0.0,0.0,0.0,0.0,0.0,0.0,0.0,0.0,0.0,0.0,0.0,0.0,0.101,0.1665,0.2068,0.2423,0.2622,0.2471,0.2221,0.1868,0.1667,0.1617,0.1716,0.2446,0.3169,0.3313,0.4563,0.586,-1.1786,-1.1705,-1.1471,-1.1439,-1.1429,-1.1837,-1.1992,-1.198,-1.2167,-1.203,-1.1606,-1.1536,-1.1232,-1.0663,-1.0219,-0.9761,-0.9251,-0.9226,-0.9182,-0.9221,-0.9221,-0.9262,-0.932,-0.9007,-0.8851,-0.8851,-0.8851,-0.8951,-0.9209,-0.9491,-0.9825,-1.0296,-1.0432,-1.028,-0.989,-1.0199,-1.0249,-0.9883,-0.93,-0.8942,-0.8742,-0.8326,-0.7931,-0.7509,-0.7497,-0.7357,-0.7038,-0.6929,-0.6774,-0.6717,-0.6929,-0.727,-0.7754,-0.8034,-0.8393,-0.8865,-0.8817,-0.8743,-0.8716,-0.8386,-0.8218,-0.817,-0.7678,-0.752,-0.7925,-0.8269,-0.8436,-0.8436,-0.8646,-0.8832,-0.877,-0.8461,-0.8124,-0.8021,-0.7482,-0.7065,-0.6924,-0.6416,-0.5921,-0.5443,-0.4707,-0.3875,-0.3078,-0.2068,-0.1306,-0.0949,-0.0451,0.0,0.0,0.0,0.0,0.0,0.0,0.0,0.0,0.0,0.0,0.0,0.0,0.0959,0.1463,0.1866,0.207,0.2322,0.217,0.1918,0.1617,0.1566,0.1718,0.2066,0.2731,0.3355,0.3709,0.492,0.6159,-1.1803,-1.1754,-1.1514,-1.1363,-1.1202,-1.1417,-1.1532,-1.1615,-1.1744,-1.1401,-1.094,-1.1281,-1.0963,-1.019,-0.991,-0.9501,-0.9024,-0.8992,-0.8992,-0.8834,-0.8878,-0.8861,-0.8832,-0.8644,-0.859,-0.859,-0.8617,-0.8879,-0.9154,-0.9165,-0.9575,-1.0245,-1.0391,-1.0254,-0.985,-1.0104,-1.0088,-0.9755,-0.9316,-0.9102,-0.8966,-0.8628,-0.833,-0.7998,-0.7828,-0.7731,-0.7504,-0.7326,-0.721,-0.721,-0.7382,-0.766,-0.7992,-0.8263,-0.8546,-0.8823,-0.8817,-0.8716,-0.8575,-0.8053,-0.7744,-0.7744,-0.7147,-0.6823,-0.6929,-0.7337,-0.7741,-0.798,-0.8397,-0.8653,-0.8736,-0.8374,-0.8065,-0.8052,-0.7389,-0.6935,-0.6848,-0.6235,-0.5518,-0.499,-0.4257,-0.3569,-0.2693,-0.1874,-0.1212,-0.0798,-0.035,0.0,0.0,0.0,0.0,0.0,0.0,0.0,0.0,0.0,0.0,0.005,0.0505,0.0959,0.1362,0.1565,0.1718,0.207,0.1918,0.1663,0.1609,0.1606,0.18,0.2187,0.2843,0.3506,0.4456,0.5533,0.662,-1.1754,-1.1623,-1.14,-1.1415,-1.1425,-1.0803,-1.086,-1.1213,-1.0893,-1.0565,-1.0375,-1.0598,-1.0556,-1.0254,-0.9741,-0.934,-0.9117,-0.8944,-0.8884,-0.8847,-0.8829,-0.8848,-0.8753,-0.8644,-0.859,-0.86,-0.8693,-0.8821,-0.8922,-0.928,-0.9549,-0.985,-0.9795,-0.9726,-0.9472,-0.9525,-0.9389,-0.9131,-0.8726,-0.8538,-0.8552,-0.829,-0.788,-0.7293,-0.7618,-0.7613,-0.7276,-0.721,-0.721,-0.721,-0.721,-0.7487,-0.7931,-0.8042,-0.8325,-0.8871,-0.8629,-0.8465,-0.8292,-0.7863,-0.7569,-0.7557,-0.6563,-0.6022,-0.6122,-0.6186,-0.6772,-0.7668,-0.7938,-0.8208,-0.8615,-0.8268,-0.7973,-0.7874,-0.7493,-0.7152,-0.6544,-0.6246,-0.5625,-0.4475,-0.4259,-0.3622,-0.2453,-0.1842,-0.1229,0.0,0.0,0.0,0.0,0.0,0.0,0.0,0.0,0.0,0.0,0.0,0.0,0.0303,0.0606,0.0908,0.121,0.1463,0.1615,0.1759,0.1713,0.1605,0.1587,0.1575,0.1713,0.2232,0.2841,0.3697,0.5494,0.6435,0.7033,-1.1748,-1.1623,-1.1455,-1.133,-1.1248,-1.0969,-1.0801,-1.0675,-1.0775,-1.051,-1.009,-1.0197,-1.0158,-0.9986,-0.9642,-0.9394,-0.9231,-0.9111,-0.8976,-0.8856,-0.8861,-0.8802,-0.8666,-0.8611,-0.859,-0.86,-0.8709,-0.8807,-0.8958,-0.9346,-0.9585,-0.9529,-0.9661,-0.971,-0.9588,-0.9575,-0.9478,-0.9236,-0.8904,-0.8654,-0.8443,-0.8136,-0.7779,-0.7467,-0.753,-0.7521,-0.7237,-0.721,-0.7265,-0.7438,-0.7438,-0.7715,-0.8263,-0.8263,-0.8491,-0.8816,-0.8027,-0.7677,-0.8005,-0.6717,-0.6046,-0.6368,-0.5723,-0.5222,-0.5139,-0.5271,-0.5768,-0.6845,-0.7552,-0.7962,-0.7841,-0.7894,-0.7761,-0.722,-0.6728,-0.6314,-0.5836,-0.546,-0.5021,-0.4491,-0.4188,-0.3808,-0.2931,-0.211,-0.1222,0.0,0.0,0.0,0.0,0.0,0.0,0.0,0.0,0.0,0.0,0.0,0.0,0.0353,0.0606,0.0908,0.1148,0.1408,0.1613,0.1596,0.1594,0.159,0.1576,0.1603,0.1683,0.2236,0.3423,0.4577,0.6286,0.6679,0.6917,-1.1726,-1.1569,-1.1389,-1.1194,-1.0976,-1.0981,-1.0824,-1.053,-1.0571,-1.0454,-1.0117,-1.0052,-0.997,-0.9856,-0.9606,-0.9438,-0.934,-0.9166,-0.8992,-0.8834,-0.8883,-0.8791,-0.86,-0.859,-0.859,-0.8606,-0.8715,-0.8851,-0.8992,-0.9296,-0.9462,-0.9434,-0.9484,-0.9537,-0.9582,-0.9485,-0.9329,-0.9139,-0.8873,-0.8654,-0.8324,-0.8122,-0.779,-0.7551,-0.7519,-0.7473,-0.7382,-0.7282,-0.7326,-0.761,-0.761,-0.7826,-0.8318,-0.8429,-0.8472,-0.8323,-0.7494,-0.6932,-0.698,-0.5519,-0.4826,-0.5134,-0.4695,-0.4347,-0.4394,-0.4412,-0.479,-0.5579,-0.6654,-0.7149,-0.731,-0.7292,-0.6975,-0.6364,-0.6025,-0.5647,-0.5221,-0.4892,-0.4687,-0.4384,-0.3917,-0.3493,-0.2828,-0.1869,-0.0865,0.0,0.0,0.0,0.0,0.0,0.0,0.0,0.0,0.0,0.0,0.0,0.0,0.0454,0.0707,0.0905,0.124,0.1507,0.1565,0.1602,0.1583,0.1564,0.1551,0.1534,0.1743,0.249,0.3621,0.4908,0.6128,0.6379,0.6626,-1.1683,-1.1427,-1.109,-1.09,-1.0737,-1.0509,-1.052,-1.0639,-1.0231,-1.015,-1.0291,-1.0112,-1.0014,-0.9981,-0.965,-0.9487,-0.9432,-0.9128,-0.8895,-0.8927,-0.8829,-0.8715,-0.8595,-0.859,-0.859,-0.8595,-0.8715,-0.8889,-0.9106,-0.9128,-0.934,-0.9665,-0.9176,-0.9047,-0.9211,-0.8918,-0.8601,-0.8574,-0.8497,-0.835,-0.822,-0.8163,-0.7883,-0.7584,-0.7524,-0.758,-0.7675,-0.7388,-0.7332,-0.761,-0.7627,-0.7727,-0.8054,-0.8318,-0.8097,-0.7176,-0.7029,-0.6439,-0.5272,-0.4669,-0.4387,-0.4272,-0.3665,-0.3358,-0.3857,-0.376,-0.3862,-0.4142,-0.5039,-0.5871,-0.671,-0.6417,-0.6024,-0.5806,-0.5806,-0.5468,-0.4975,-0.4801,-0.4554,-0.4027,-0.3495,-0.2811,-0.166,-0.0839,-0.0515,0.0,0.0,0.0,0.0,0.0,0.0,0.0,0.0,0.0,0.0,0.0,0.0,0.0555,0.0757,0.0958,0.1313,0.1566,0.1564,0.1554,0.1531,0.1507,0.1483,0.1693,0.1984,0.2662,0.3572,0.4745,0.5825,0.6164,0.6456,-1.1634,-1.1324,-1.1118,-1.0965,-1.0829,-1.0596,-1.0503,-1.0487,-1.0248,-1.0139,-1.0134,-1.0057,-1.0019,-1.0003,-0.9731,-0.9606,-0.9568,-0.9231,-0.896,-0.8874,-0.8829,-0.8704,-0.8595,-0.859,-0.859,-0.8606,-0.8709,-0.8899,-0.9041,-0.9062,-0.9204,-0.9269,-0.9122,-0.9001,-0.8927,-0.8793,-0.8649,-0.8541,-0.8524,-0.847,-0.8356,-0.8231,-0.8068,-0.7867,-0.7714,-0.7637,-0.7627,-0.7237,-0.7331,-0.7847,-0.7847,-0.8034,-0.8401,-0.848,-0.8079,-0.7095,-0.6181,-0.5392,-0.4632,-0.3614,-0.3131,-0.3223,-0.2996,-0.2837,-0.3134,-0.3233,-0.3564,-0.4083,-0.381,-0.4145,-0.4815,-0.5373,-0.5545,-0.5094,-0.4983,-0.4815,-0.4428,-0.4204,-0.3968,-0.3675,-0.3187,-0.2497,-0.1792,-0.1227,-0.0734,0.0,0.0,0.0,0.0,0.0,0.0,0.0,0.0,0.0,0.0,0.0,0.0,0.0,0.0858,0.0952,0.125,0.131,0.1312,0.1333,0.1316,0.1391,0.1412,0.1478,0.1902,0.2817,0.3762,0.4509,0.5598,0.6007,0.6328,-1.1476,-1.1221,-1.109,-1.0971,-1.084,-1.0645,-1.0514,-1.0422,-1.0275,-1.0155,-1.0079,-0.9998,-0.996,-0.9844,-0.9489,-0.9233,-0.9207,-0.8951,-0.8697,-0.8583,-0.8538,-0.8418,-0.8319,-0.8472,-0.859,-0.8606,-0.8709,-0.8878,-0.9063,-0.9046,-0.9155,-0.9188,-0.9084,-0.9057,-0.8899,-0.8812,-0.8793,-0.8655,-0.8606,-0.8546,-0.8459,-0.8318,-0.8198,-0.8089,-0.7883,-0.7758,-0.7702,-0.7248,-0.7285,-0.7869,-0.7869,-0.8061,-0.8546,-0.8395,-0.7696,-0.6373,-0.5186,-0.4164,-0.3474,-0.241,-0.1906,-0.2185,-0.2073,-0.2018,-0.2188,-0.2524,-0.297,-0.3306,-0.3197,-0.2861,-0.3082,-0.3921,-0.4313,-0.3977,-0.4089,-0.4089,-0.3868,-0.3645,-0.3362,-0.3138,-0.2802,-0.2277,-0.1742,-0.1396,-0.0843,-0.0207,0.0,0.0,0.0,0.0,0.0,0.0,0.0,0.0,0.0,0.0,0.0,0.0,0.0656,0.0851,0.0948,0.1056,0.1101,0.1124,0.1196,0.1224,0.1294,0.1361,0.2032,0.2942,0.3644,0.4325,0.5158,0.5862,0.6195,-1.1221,-1.1101,-1.0976,-1.0867,-1.0748,-1.0628,-1.0563,-1.0498,-1.0307,-1.0204,-1.0134,-0.9949,-0.978,-0.9574,-0.886,-0.8381,-0.8293,-0.8183,-0.8069,-0.7974,-0.7939,-0.7838,-0.7742,-0.8267,-0.8494,-0.8494,-0.872,-0.8845,-0.8917,-0.909,-0.9188,-0.9258,-0.9193,-0.9133,-0.9117,-0.8899,-0.8774,-0.8731,-0.8644,-0.8584,-0.8557,-0.8367,-0.8242,-0.8204,-0.793,-0.7878,-0.8002,-0.7364,-0.7317,-0.7891,-0.7716,-0.7816,-0.8224,-0.8078,-0.698,-0.5112,-0.4068,-0.2959,-0.169,-0.1181,-0.1126,-0.1297,-0.0844,-0.0846,-0.1351,-0.1687,-0.191,-0.2132,-0.2356,-0.2412,-0.1964,-0.2018,-0.2298,-0.2692,-0.3309,-0.3589,-0.3586,-0.3306,-0.2858,-0.2412,-0.2188,-0.1935,-0.1456,-0.1121,-0.0791,-0.0411,0.0,0.0,0.0,0.0,0.0,0.0,0.0,0.0,0.0,0.0,0.0,0.0305,0.0405,0.0554,0.0704,0.0808,0.0904,0.0985,0.1194,0.1266,0.1328,0.1442,0.186,0.2648,0.3359,0.4047,0.4749,0.5455,0.6036,-1.1281,-1.1107,-1.1063,-1.0927,-1.0742,-1.0693,-1.0596,-1.0443,-1.0356,-1.0237,-1.0068,-0.9911,-0.9534,-0.9025,-0.8472,-0.8003,-0.7551,-0.7392,-0.7301,-0.7282,-0.7608,-0.7752,-0.7783,-0.7957,-0.8079,-0.8084,-0.8114,-0.8467,-0.8922,-0.9117,-0.9193,-0.9275,-0.9269,-0.9209,-0.9057,-0.8906,-0.8861,-0.8764,-0.8649,-0.859,-0.8579,-0.8437,-0.8259,-0.8161,-0.7634,-0.7321,-0.7271,-0.7296,-0.7462,-0.7873,-0.7818,-0.7785,-0.7762,-0.7498,-0.6268,-0.4315,-0.358,-0.277,-0.1564,-0.1091,-0.0918,-0.0925,-0.0638,-0.0634,-0.0971,-0.1141,-0.1362,-0.1631,-0.1626,-0.1346,-0.1234,-0.1177,-0.1626,-0.258,-0.2861,-0.3141,-0.3418,-0.3141,-0.258,-0.2076,-0.1908,-0.1721,-0.1361,-0.1076,-0.0794,-0.0466,0.0,0.0,0.0,0.0,0.0,0.0,0.0,0.0,0.0,0.0,0.0,0.0,0.0254,0.0354,0.0454,0.0555,0.0653,0.094,0.1151,0.1307,0.1368,0.1535,0.1862,0.2383,0.3115,0.3747,0.4418,0.5139,0.589,-1.1384,-1.1166,-1.1118,-1.0987,-1.0808,-1.0759,-1.0628,-1.0465,-1.0449,-1.0286,-1.0047,-0.9866,-0.9366,-0.8568,-0.8132,-0.7417,-0.6744,-0.6697,-0.6589,-0.6684,-0.754,-0.7687,-0.7463,-0.7357,-0.7553,-0.7766,-0.7836,-0.8243,-0.9057,-0.9068,-0.9171,-0.9231,-0.928,-0.9247,-0.9133,-0.8944,-0.8894,-0.8774,-0.8649,-0.8568,-0.8453,-0.8191,-0.8052,-0.8033,-0.7,-0.658,-0.6889,-0.6667,-0.6705,-0.7072,-0.7261,-0.7099,-0.6668,-0.6184,-0.5126,-0.3495,-0.259,-0.1936,-0.1118,-0.07,-0.0641,-0.0647,-0.0412,-0.0352,-0.0581,-0.0696,-0.1037,-0.1022,-0.1019,-0.079,-0.0618,-0.0561,-0.1121,-0.2244,-0.2468,-0.2748,-0.3085,-0.2805,-0.2412,-0.202,-0.1908,-0.1664,-0.136,-0.1082,-0.0799,-0.0471,0.0,0.0,0.0,0.0,0.0,0.0,0.0,0.0,0.0,0.0,0.0,0.0,0.0152,0.0152,0.0252,0.0252,0.0352,0.0839,0.1152,0.1365,0.1471,0.1453,0.1635,0.225,0.288,0.3779,0.458,0.5365,0.6059,-1.1493,-1.127,-1.115,-1.1031,-1.09,-1.0786,-1.0661,-1.0558,-1.0465,-1.0201,-0.9944,-0.963,-0.9081,-0.8164,-0.7385,-0.6704,-0.6103,-0.6266,-0.6436,-0.6794,-0.7465,-0.7697,-0.6856,-0.6653,-0.6906,-0.7459,-0.7664,-0.8203,-0.8871,-0.9089,-0.9068,-0.9155,-0.9247,-0.9176,-0.892,-0.8874,-0.8613,-0.8565,-0.837,-0.8117,-0.8099,-0.75,-0.7294,-0.7802,-0.6022,-0.5423,-0.6085,-0.5331,-0.5107,-0.5847,-0.628,-0.5904,-0.5046,-0.4555,-0.3658,-0.2113,-0.1388,-0.0957,-0.0474,-0.0236,-0.0236,-0.0415,0.0,0.0,0.0,-0.0472,-0.0586,-0.0288,-0.0518,-0.0629,-0.017,0.0,0.0,-0.1627,-0.2188,-0.2524,-0.2692,-0.2468,-0.2244,-0.2132,-0.1959,-0.1664,-0.1347,-0.1084,-0.0751,-0.0475,0.0,0.0,0.0,0.0,0.0,0.0,0.0,0.0,0.0,0.0,0.0,0.0,0.0,0.0,0.0,0.0202,0.025,0.0735,0.1163,0.1375,0.1494,0.1479,0.1566,0.2,0.2844,0.3846,0.466,0.5293,0.594,-1.1493,-1.1264,-1.115,-1.1031,-1.0911,-1.0791,-1.0672,-1.0481,-0.982,-0.948,-0.9152,-0.8443,-0.7717,-0.6865,-0.6517,-0.6276,-0.6239,-0.6709,-0.7477,-0.7951,-0.828,-0.7499,-0.6333,-0.5994,-0.6048,-0.6335,-0.6896,-0.7576,-0.839,-0.8955,-0.9204,-0.9068,-0.9226,-0.8944,-0.8348,-0.7734,-0.7567,-0.766,-0.6689,-0.6469,-0.671,-0.6181,-0.5588,-0.5119,-0.4201,-0.3758,-0.403,-0.3229,-0.3817,-0.5663,-0.5479,-0.4926,-0.4127,-0.3571,-0.2704,-0.1532,-0.1093,-0.0848,-0.0486,-0.0181,-0.0181,-0.0427,-0.0182,0.0,0.0,0.0,0.0,0.0,-0.0176,0.0,0.0,0.0,0.0,-0.163,-0.2356,-0.2856,-0.2856,-0.2524,-0.2188,-0.2188,-0.1962,-0.166,-0.1313,-0.1034,-0.0759,-0.0428,0.0,0.0,0.0,0.0,0.0,0.0,0.0,0.0,0.0,0.0,0.0,0.0,0.0,0.0,0.0,0.0353,0.0496,0.0774,0.117,0.1443,0.1524,0.1509,0.1701,0.1839,0.2873,0.3896,0.4242,0.4758,0.5621,-1.1525,-1.1428,-1.1221,-1.1107,-1.0902,-1.044,-1.0158,-0.99,-0.9141,-0.8621,-0.8313,-0.7831,-0.7079,-0.6183,-0.6155,-0.5935,-0.5897,-0.6629,-0.7193,-0.748,-0.7145,-0.6316,-0.5379,-0.4825,-0.4517,-0.4953,-0.5967,-0.691,-0.7693,-0.8683,-0.9095,-0.9008,-0.9052,-0.8525,-0.7431,-0.6962,-0.6469,-0.6178,-0.5275,-0.5093,-0.5326,-0.4763,-0.451,-0.3838,-0.3077,-0.226,-0.2164,-0.2058,-0.2897,-0.4125,-0.4002,-0.3389,-0.2773,-0.2342,-0.1665,-0.0679,-0.0612,-0.049,-0.0307,-0.0122,-0.0061,-0.0246,0.0,0.0,0.0,0.0,0.0,0.0,0.0,0.0,0.0,-0.0289,-0.0916,-0.1704,-0.2588,-0.3129,-0.3221,-0.2717,-0.2442,-0.222,-0.1941,-0.1494,-0.1149,-0.0879,-0.0548,-0.0272,-0.0109,0.0,0.0,0.0,0.0,0.0,0.0,0.0,0.0,0.0,0.0,0.0,0.0,0.0,0.0,0.0354,0.0549,0.0737,0.1179,0.1469,0.15,0.1534,0.1572,0.1997,0.2999,0.3638,0.3949,0.4576,0.5435,-1.1569,-1.1444,-1.1308,-1.1107,-1.0821,-1.0013,-0.9469,-0.9161,-0.8286,-0.7749,-0.7512,-0.7524,-0.6752,-0.5959,-0.5932,-0.5818,-0.528,-0.6026,-0.6036,-0.5896,-0.524,-0.4504,-0.4075,-0.3222,-0.3061,-0.3714,-0.502,-0.6108,-0.7034,-0.8265,-0.8867,-0.8648,-0.8552,-0.7728,-0.644,-0.605,-0.5379,-0.4459,-0.3949,-0.3782,-0.376,-0.3318,-0.3068,-0.3005,-0.191,-0.1108,-0.1155,-0.1384,-0.2044,-0.2663,-0.2162,-0.1791,-0.1175,-0.1052,-0.0681,0.0,0.0,0.0,0.0,0.0,0.0,0.0,0.0,0.0,0.0,0.0,0.0,0.0,0.0,0.0,0.0,-0.0757,-0.1271,-0.1783,-0.25,-0.3126,-0.3191,-0.29,-0.2572,-0.2516,-0.1805,-0.1257,-0.0878,-0.0609,0.0,0.0,0.0,0.0,0.0,0.0,0.0,0.0,0.0,0.0,0.0,0.0,0.0,0.0,0.0,0.0,0.0,0.0254,0.0454,0.0702,0.0994,0.1233,0.1469,0.1456,0.1448,0.1832,0.2615,0.3242,0.3742,0.4572,0.5436,-1.1569,-1.1527,-1.1226,-1.0691,-1.0032,-0.9606,-0.9007,-0.8223,-0.7327,-0.6776,-0.6639,-0.6113,-0.5653,-0.5354,-0.5496,-0.5596,-0.5789,-0.5528,-0.5164,-0.4314,-0.345,-0.2632,-0.2301,-0.2053,-0.2334,-0.2986,-0.4802,-0.5818,-0.6307,-0.7321,-0.8223,-0.7925,-0.6913,-0.5865,-0.4941,-0.3991,-0.3358,-0.3129,-0.2344,-0.2052,-0.231,-0.1851,-0.1398,0.0,0.0,0.0,0.0,-0.0317,-0.0506,-0.0697,-0.1003,-0.112,-0.0876,-0.0498,0.0,0.0,0.0,0.0,0.0,0.0,0.0,0.0,0.0,0.0,0.0,0.0,0.0,0.0,0.0,0.0,0.0,-0.0829,-0.1292,-0.1635,-0.2193,-0.2668,-0.2517,-0.2533,-0.2459,-0.2184,-0.1693,-0.1093,-0.0602,-0.05,0.0,0.0,0.0,0.0,0.0,0.0,0.0,0.0,0.0,0.0,0.0,0.0,0.0,0.0,0.0,0.0,0.0,0.0203,0.0454,0.0603,0.07,0.0994,0.1384,0.1392,0.1389,0.183,0.2312,0.3009,0.3731,0.4606,0.5368,-1.0436,-1.0728,-1.0117,-0.9846,-0.9606,-0.8696,-0.768,-0.6801,-0.5766,-0.5383,-0.5259,-0.4749,-0.4806,-0.5166,-0.5185,-0.5297,-0.5058,-0.4369,-0.352,-0.2758,-0.2075,-0.1504,-0.0892,-0.1028,-0.124,-0.1604,-0.3567,-0.4439,-0.4713,-0.589,-0.661,-0.6344,-0.5441,-0.4452,-0.3486,-0.2544,-0.2049,-0.1571,-0.101,-0.0732,-0.0931,-0.0732,-0.04,0.0,0.0,0.0,0.0,0.0,0.0,0.0,0.0,0.0,0.0,0.0,0.0,0.0,0.0,0.0,0.0,0.0,0.0,0.0,0.0,0.0,0.0,0.0,0.0,0.0,0.0,0.0,0.0,-0.0481,-0.0954,-0.1245,-0.1691,-0.2007,-0.2038,-0.2098,-0.2107,-0.1729,-0.1187,-0.0814,-0.0492,-0.0333,0.0,0.0,0.0,0.0,0.0,0.0,0.0,0.0,0.0,0.0,0.0,0.0,0.0,0.0,0.0,0.0,0.0,0.0358,0.0454,0.0603,0.0753,0.1004,0.1303,0.1312,0.1364,0.1706,0.2241,0.2969,0.3723,0.4474,0.5261,-0.9045,-0.9665,-0.8841,-0.8835,-0.9012,-0.7448,-0.618,-0.513,-0.4195,-0.398,-0.3931,-0.3872,-0.4336,-0.4778,-0.4997,-0.4454,-0.3524,-0.2848,-0.2086,-0.1339,-0.1152,-0.0753,0.0,0.0,0.0,0.0,-0.2331,-0.2985,-0.3192,-0.4095,-0.505,-0.439,-0.3889,-0.3117,-0.2223,-0.1781,-0.1226,-0.0413,0.0,0.0,0.0,0.0,0.0,0.0,0.0,0.0,0.0,0.0,0.0,0.0,0.0,0.0,0.0,0.0,0.0,0.0,0.0,0.0,0.0,0.0,0.0,0.0,0.0,0.0,0.0,0.0,0.0,0.0,0.0,0.0,0.0,-0.0366,-0.0606,-0.0843,-0.1061,-0.1335,-0.1489,-0.1548,-0.1409,-0.1288,-0.0918,-0.0543,-0.0329,0.0,0.0,0.0,0.0,0.0,0.0,0.0,0.0,0.0,0.0,0.0,0.0,0.0,0.0,0.0,0.0,0.0,0.0314,0.0362,0.0459,0.0657,0.0858,0.111,0.1261,0.1313,0.1465,0.1667,0.2016,0.255,0.3419,0.4369,0.5041,-0.8688,-0.8765,-0.8511,-0.7999,-0.7356,-0.612,-0.5053,-0.4197,-0.3168,-0.3228,-0.3795,-0.3882,-0.388,-0.4114,-0.4118,-0.3275,-0.219,-0.1611,-0.1113,0.0,0.0,0.0,0.0,0.0,0.0,0.0,-0.1603,-0.2257,-0.2396,-0.3233,-0.356,-0.3301,-0.2358,-0.1457,-0.1185,0.0,0.0,0.0,0.0,0.0,0.0,0.0,0.0,0.0,0.0,0.0,0.0,0.0,0.0,0.0,0.0,0.0,0.0,0.0,0.0,0.0,0.0,0.0,0.0,0.0,0.0,0.0,0.0,0.0,0.0,0.0,0.0,0.0,0.0,0.0,0.0,-0.0246,-0.043,-0.0612,-0.0725,-0.0891,-0.076,-0.0741,-0.0775,-0.0824,-0.0548,0.0,0.0,0.0,0.0,0.0,0.0,0.0,0.0,0.0,0.0,0.0,0.0,0.0,0.0,0.0,0.0,0.0,0.0,0.0,0.0319,0.0366,0.0516,0.0814,0.0962,0.1065,0.1165,0.1318,0.1471,0.1629,0.1877,0.2122,0.3002,0.3867,0.4483,-0.7413,-0.7721,-0.6644,-0.6231,-0.6016,-0.4656,-0.3447,-0.2604,-0.2174,-0.2161,-0.2488,-0.2577,-0.2826,-0.3152,-0.3248,-0.2478,-0.1549,-0.0727,-0.0398,0.0,0.0,0.0,0.0,0.0,0.0,0.0,-0.0802,0.0,-0.1166,-0.1884,-0.2077,-0.1561,-0.0773,-0.0563,-0.0494,0.0,0.0,0.0,0.0,0.0,0.0,0.0,0.0,0.0,0.0,0.0,0.0,0.0,0.0,0.0,0.0,0.0,0.0,0.0,0.0,0.0,0.0,0.0,0.0,0.0,0.0,0.0,0.0,0.0,0.0,0.0,0.0,0.0,0.0,0.0,0.0,0.0,-0.0247,-0.0246,0.0,0.0,0.0,0.0,0.0,0.0,0.0,0.0,0.0,0.0,0.0,0.0,0.0,0.0,0.0,0.0,0.0,0.0,0.0,0.0,0.0,0.0,0.0,0.0,0.0,0.0,0.0375,0.0527,0.0827,0.1218,0.1217,0.1123,0.1338,0.1552,0.1597,0.1593,0.1747,0.2048,0.2681,0.3357,0.4033,-0.6062,-0.6438,-0.4889,-0.4577,-0.4698,-0.3212,-0.2018,-0.1346,-0.1093,-0.1172,-0.1331,-0.1423,-0.1757,-0.2168,-0.2089,-0.1669,-0.099,-0.0245,0.0,0.0,0.0,0.0,0.0,0.0,0.0,0.0,0.0,0.0,0.0,-0.0728,-0.0579,0.0,0.0,0.0,0.0,0.0,0.0,0.0,0.0,0.0,0.0,0.0,0.0,0.0,0.0,0.0,0.0,0.0,0.0,0.0,0.0,0.0,0.0,0.0,0.0,0.0,0.0,0.0,0.0,0.0,0.0,0.0,0.0,0.0,0.0,0.0,0.0,0.0,0.0,0.0,0.0,0.0,0.0,0.0,0.0,0.0,0.0,0.0,0.0,0.0,0.0,0.0,0.0,0.0,0.0,0.0,0.0,0.0,0.0,0.0,0.0,0.0,0.0,0.0,0.0,0.0,0.0,0.0,0.0,0.0,0.0432,0.0689,0.104,0.1281,0.1436,0.1447,0.1618,0.1735,0.1677,0.1673,0.1671,0.192,0.2308,0.305,0.3846,-0.5261,-0.4589,-0.4278,-0.3801,-0.3075,-0.1943,-0.143,-0.1178,-0.0505,-0.0589,-0.1174,-0.126,-0.126,-0.126,-0.0756,-0.0333,0.0,0.0,0.0,0.0,0.0,0.0,0.0,0.0,0.0,0.0,0.0,0.0,0.0,0.0,0.0,0.0,0.0,0.0,0.0,0.0,0.0,0.0,0.0,0.0,0.0,0.0,0.0,0.0,0.0,0.0,0.0,0.0,0.0,0.0,0.0,0.0,0.0,0.0,0.0,0.0,0.0,0.0,0.0,0.0,0.0,0.0,0.0,0.0,0.0,0.0,0.0,0.0,0.0,0.0,0.0,0.0,0.0,0.0,0.0,0.0,0.0,0.0,0.0,0.0,0.0,0.0,0.0,0.0,0.0,0.0,0.0,0.0,0.0,0.0,0.0,0.0,0.0,0.0,0.0,0.0,0.0,0.0,0.0,0.0,0.0436,0.0696,0.0952,0.1202,0.1411,0.1564,0.1677,0.1686,0.1697,0.1703,0.1754,0.1738,0.1767,0.2632,0.3648,-0.4595,-0.4201,-0.3048,-0.241,-0.1864,-0.0928,-0.0589,-0.0505,-0.0168,-0.0253,-0.0505,-0.0589,-0.0589,0.0,-0.0084,0.0,0.0,0.0,0.0,0.0,0.0,0.0,0.0,0.0,0.0,0.0,0.0,0.0,0.0,0.0,0.0,0.0,0.0,0.0,0.0,0.0,0.0,0.0,0.0,0.0,0.0,0.0,0.0,0.0,0.0,0.0,0.0,0.0,0.0,0.0,0.0,0.0,0.0,0.0,0.0,0.0,0.0,0.0,0.0,0.0,0.0,0.0,0.0,0.0,0.0,0.0,0.0,0.0,0.0,0.0,0.0,0.0,0.0,0.0,0.0,0.0,0.0,0.0,0.0,0.0,0.0,0.0,0.0,0.0,0.0,0.0,0.0,0.0,0.0,0.0,0.0,0.0,0.0,0.0,0.0,0.0,0.0,0.0,0.0,0.0,0.0,0.065,0.091,0.1168,0.1482,0.1584,0.1688,0.17,0.1719,0.178,0.1784,0.1862,0.1993,0.2731,0.3858,-0.3758,-0.3376,-0.1991,-0.1199,-0.0926,-0.0253,0.0,0.0,0.0,0.0,0.0,0.0,0.0,0.0,0.0,0.0,0.0,0.0,0.0,0.0,0.0,0.0,0.0,0.0,0.0,0.0,0.0,0.0,0.0,0.0,0.0,0.0,0.0,0.0,0.0,0.0,0.0,0.0,0.0,0.0,0.0,0.0,0.0,0.0,0.0,0.0,0.0,0.0,0.0,0.0,0.0,0.0,0.0,0.0,0.0,0.0,0.0,0.0,0.0,0.0,0.0,0.0,0.0,0.0,0.0,0.0,0.0,0.0,0.0,0.0,0.0,0.0,0.0,0.0,0.0,0.0,0.0,0.0,0.0,0.0,0.0,0.0,0.0,0.0,0.0,0.0,0.0,0.0,0.0,0.0,0.0,0.0,0.0,0.0,0.0,0.0,0.0,0.0,0.0,0.0,0.0,0.0,0.0921,0.1185,0.1446,0.165,0.1696,0.1718,0.1792,0.1727,0.177,0.2082,0.2384,0.3128,0.4166,-0.242,-0.1542,-0.1456,-0.0851,0.0,0.0,0.0,0.0,0.0,0.0,0.0,0.0,0.0,0.0,0.0,0.0,0.0,0.0,0.0,0.0,0.0,0.0,0.0,0.0,0.0,0.0,0.0,0.0,0.0,0.0,0.0,0.0,0.0,0.0,0.0,0.0,0.0,0.0,0.0,0.0,0.0,0.0,0.0,0.0,0.0,0.0,0.0,0.0,0.0,0.0,0.0,0.0,0.0,0.0,0.0,0.0,0.0,0.0,0.0,0.0,0.0,0.0,0.0,0.0,0.0,0.0,0.0,0.0,0.0,0.0,0.0,0.0,0.0,0.0,0.0,0.0,0.0,0.0,0.0,0.0,0.0,0.0,0.0,0.0,0.0,0.0,0.0,0.0,0.0,0.0,0.0,0.0,0.0,0.0,0.0,0.0,0.0,0.0,0.0,0.0,0.0,0.0,0.0,0.0982,0.1192,0.1449,0.1705,0.1609,0.1614,0.1659,0.1812,0.214,0.2815,0.3695,0.4837,-0.2232,-0.1368,-0.0765,-0.0338,0.0,0.0,0.0,0.0,0.0,0.0,0.0,0.0,0.0,0.0,0.0,0.0,0.0,0.0,0.0,0.0,0.0,0.0,0.0,0.0,0.0,0.0,0.0,0.0,0.0,0.0,0.0,0.0,0.0,0.0,0.0,0.0,0.0,0.0,0.0,0.0,0.0,0.0,0.0,0.0,0.0,0.0,0.0,0.0,0.0,0.0,0.0,0.0,0.0,0.0,0.0,0.0,0.0,0.0,0.0,0.0,0.0,0.0,0.0,0.0,0.0,0.0,0.0,0.0,0.0,0.0,0.0,0.0,0.0,0.0,0.0,0.0,0.0,0.0,0.0,0.0,0.0,0.0,0.0,0.0,0.0,0.0,0.0,0.0,0.0,0.0,0.0,0.0,0.0,0.0,0.0,0.0,0.0,0.0,0.0,0.0,0.0,0.0,0.0611,0.0772,0.0877,0.1142,0.1295,0.1394,0.1498,0.1609,0.1886,0.2221,0.3107,0.4222,0.5435,-0.1788,-0.0936,-0.0253,0.0,0.0,0.0,0.0,0.0,0.0,0.0,0.0,0.0,0.0,0.0,0.0,0.0,0.0,0.0,0.0,0.0,0.0,0.0,0.0,0.0,0.0,0.0,0.0,0.0,0.0,0.0,0.0,0.0,0.0,0.0,0.0,0.0,0.0,0.0,0.0,0.0,0.0,0.0,0.0,0.0,0.0,0.0,0.0,0.0,0.0,0.0,0.0,0.0,0.0,0.0,0.0,0.0,0.0,0.0,0.0,0.0,0.0,0.0,0.0,0.0,0.0,0.0,0.0,0.0,0.0,0.0,0.0,0.0,0.0,0.0,0.0,0.0,0.0,0.0,0.0,0.0,0.0,0.0,0.0,0.0,0.0,0.0,0.0,0.0,0.0,0.0,0.0,0.0,0.0,0.0,0.0,0.0,0.0,0.0,0.0,0.0,0.0,0.0,0.0393,0.0557,0.072,0.0825,0.0985,0.1143,0.1356,0.1569,0.201,0.2615,0.3503,0.4631,0.5843,-0.0842,-0.0084,0.0,0.0,0.0,0.0,0.0,0.0,0.0,0.0,0.0,0.0,0.0,0.0,0.0,0.0,0.0,0.0,0.0,0.0,0.0,0.0,0.0,0.0,0.0,0.0,0.0,0.0,0.0,0.0,0.0,0.0,0.0,0.0,0.0,0.0,0.0,0.0,0.0,0.0,0.0,0.0,0.0,0.0,0.0,0.0,0.0,0.0,0.0,0.0,0.0,0.0,0.0,0.0,0.0,0.0,0.0,0.0,0.0,0.0,0.0,0.0,0.0,0.0,0.0,0.0,0.0,0.0,0.0,0.0,0.0,0.0,0.0,0.0,0.0,0.0,0.0,0.0,0.0,0.0,0.0,0.0,0.0,0.0,0.0,0.0,0.0,0.0,0.0,0.0,0.0,0.0,0.0,0.0,0.0,0.0,0.0,0.0,0.0,0.0,0.0,0.0,0.028,0.0,0.0447,0.0555,0.072,0.0886,0.1102,0.137,0.251,0.3268,0.4155,0.4897,0.5849,-0.0828,0.0,0.0,0.0,0.0,0.0,0.0,0.0,0.0,0.0,0.0,0.0,0.0,0.0,0.0,0.0,0.0,0.0,0.0,0.0,0.0,0.0,0.0,0.0,0.0,0.0,0.0,0.0,0.0,0.0,0.0,0.0,0.0,0.0,0.0,0.0,0.0,0.0,0.0,0.0,0.0,0.0,0.0,0.0,0.0,0.0,0.0,0.0,0.0,0.0,0.0,0.0,0.0,0.0,0.0,0.0,0.0,0.0,0.0,0.0,0.0,0.0,0.0,0.0,0.0,0.0,0.0,0.0,0.0,0.0,0.0,0.0,0.0,0.0,0.0,0.0,0.0,0.0,0.0,0.0,0.0,0.0,0.0,0.0,0.0,0.0,0.0,0.0,0.0,0.0,0.0,0.0,0.0,0.0,0.0,0.0,0.0,0.0,0.0,0.0,0.0,0.0,0.0,0.0,0.0,0.028,0.0447,0.0557,0.0724,0.1276,0.2151,0.2855,0.3384,0.4249,0.536,-0.0491,0.0,0.0,0.0,0.0,0.0,0.0,0.0,0.0,0.0,0.0,0.0,0.0,0.0,0.0,0.0,0.0,0.0,0.0,0.0,0.0,0.0,0.0,0.0,0.0,0.0,0.0,0.0,0.0,0.0,0.0,0.0,0.0,0.0,0.0,0.0,0.0,0.0,0.0,0.0,0.0,0.0,0.0,0.0,0.0,0.0,0.0,0.0,0.0,0.0,0.0,0.0,0.0,0.0,0.0,0.0,0.0,0.0,0.0,0.0,0.0,0.0,0.0,0.0,0.0,0.0,0.0,0.0,0.0,0.0,0.0,0.0,0.0,0.0,0.0,0.0,0.0,0.0,0.0,0.0,0.0,0.0,0.0,0.0,0.0,0.0,0.0,0.0,0.0,0.0,0.0,0.0,0.0,0.0,0.0,0.0,0.0,0.0,0.0,0.0,0.0,0.0,0.0,0.0,0.0,0.0,0.0,0.0224,0.0503,0.0837,0.1334,0.1992,0.2482,0.3642,0.4919,0.0,0.0,0.0,0.0,0.0,0.0,0.0,0.0,0.0,0.0,0.0,0.0,0.0,0.0,0.0,0.0,0.0,0.0,0.0,0.0,0.0,0.0,0.0,0.0,0.0,0.0,0.0,0.0,0.0,0.0,0.0,0.0,0.0,0.0,0.0,0.0,0.0,0.0,0.0,0.0,0.0,0.0,0.0,0.0,0.0,0.0,0.0,0.0,0.0,0.0,0.0,0.0,0.0,0.0,0.0,0.0,0.0,0.0,0.0,0.0,0.0,0.0,0.0,0.0,0.0,0.0,0.0,0.0,0.0,0.0,0.0,0.0,0.0,0.0,0.0,0.0,0.0,0.0,0.0,0.0,0.0,0.0,0.0,0.0,0.0,0.0,0.0,0.0,0.0,0.0,0.0,0.0,0.0,0.0,0.0,0.0,0.0,0.0,0.0,0.0,0.0,0.0,0.0,0.0,0.0,0.0,0.0,0.0,0.028,0.0615,0.0893,0.1395,0.2001,0.3339,0.4571,0.0,0.0,0.0,0.0,0.0,0.0,0.0,0.0,0.0,0.0,0.0,0.0,0.0,0.0,0.0,0.0,0.0,0.0,0.0,0.0,0.0,0.0,0.0,0.0,0.0,0.0,0.0,0.0,0.0,0.0,0.0,0.0,0.0,0.0,0.0,0.0,0.0,0.0,0.0,0.0,0.0,0.0,0.0,0.0,0.0,0.0,0.0,0.0,0.0,0.0,0.0,0.0,0.0,0.0,0.0,0.0,0.0,0.0,0.0,0.0,0.0,0.0,0.0,0.0,0.0,0.0,0.0,0.0,0.0,0.0,0.0,0.0,0.0,0.0,0.0,0.0,0.0,0.0,0.0,0.0,0.0,0.0,0.0,0.0,0.0,0.0,0.0,0.0,0.0,0.0,0.0,0.0,0.0,0.0,0.0,0.0,0.0,0.0,0.0,0.0,0.0,0.0,0.0,0.0,0.0,0.0,0.0,0.0,0.0,0.0,0.0448,0.0953,0.1682,0.2912,0.3974,0.0,0.0,0.0,0.0,0.0,0.0,0.0,0.0,0.0,0.0,0.0,0.0,0.0,0.0,0.0,0.0,0.0,0.0,0.0,0.0,0.0,0.0,0.0,0.0,0.0,0.0,0.0,0.0,0.0,0.0,0.0,0.0,0.0,0.0,0.0,0.0,0.0,0.0,0.0,0.0,0.0,0.0,0.0,0.0,0.0,0.0,0.0,0.0,0.0,0.0,0.0,0.0,0.0,0.0,0.0,0.0,0.0,0.0,0.0,0.0,0.0,0.0,0.0,0.0,0.0,0.0,0.0,0.0,0.0,0.0,0.0,0.0,0.0,0.0,0.0,0.0,0.0,0.0,0.0,0.0,0.0,0.0,0.0,0.0,0.0,0.0,0.0,0.0,0.0,0.0,0.0,0.0,0.0,0.0,0.0,0.0,0.0,0.0,0.0,0.0,0.0,0.0,0.0,0.0,0.0,0.0,0.0,0.0,0.0,0.0,0.0168,0.0561,0.129,0.2297,0.3304,0.0,0.0,0.0,0.0,0.0,0.0,0.0,0.0,0.0,0.0,0.0,0.0,0.0,0.0,0.0,0.0,0.0,0.0,0.0,0.0,0.0,0.0,0.0,0.0,0.0,0.0,0.0,0.0,0.0,0.0,0.0,0.0,0.0,0.0,0.0,0.0,0.0,0.0,0.0,0.0,0.0,0.0,0.0,0.0,0.0,0.0,0.0,0.0,0.0,0.0,0.0,0.0,0.0,0.0,0.0,0.0,0.0,0.0,0.0,0.0,0.0,0.0,0.0,0.0,0.0,0.0,0.0,0.0,0.0,0.0,0.0,0.0,0.0,0.0,0.0,0.0,0.0,0.0,0.0,0.0,0.0,0.0,0.0,0.0,0.0,0.0,0.0,0.0,0.0,0.0,0.0,0.0,0.0,0.0,0.0,0.0,0.0,0.0,0.0,0.0,0.0,0.0,0.0,0.0,0.0,0.0,0.0,0.0,0.0,0.0,0.0168,0.0281,0.1011,0.1971,0.2748,0.0,0.0,0.0,0.0,0.0,0.0,0.0,0.0,0.0,0.0,0.0,0.0,0.0,0.0,0.0,0.0,0.0,0.0,0.0,0.0,0.0,0.0,0.0,0.0,0.0,0.0,0.0,0.0,0.0,0.0,0.0,0.0,0.0,0.0,0.0,0.0,0.0,0.0,0.0,0.0,0.0,0.0,0.0,0.0,0.0,0.0,0.0,0.0,0.0,0.0,0.0,0.0,0.0,0.0,0.0,0.0,0.0,0.0,0.0,0.0,0.0,0.0,0.0,0.0,0.0,0.0,0.0,0.0,0.0,0.0,0.0,0.0,0.0,0.0,0.0,0.0,0.0,0.0,0.0,0.0,0.0,0.0,0.0,0.0,0.0,0.0,0.0,0.0,0.0,0.0,0.0,0.0,0.0,0.0,0.0,0.0,0.0,0.0,0.0,0.0,0.0,0.0,0.0,0.0,0.0,0.0,0.0,0.0,0.0,0.0,0.0113,0.0341,0.0913,0.1887,0.2551,0.0,0.0,0.0,0.0,0.0,0.0,0.0,0.0,0.0,0.0,0.0,0.0,0.0,0.0,0.0,0.0,0.0,0.0,0.0,0.0,0.0,0.0,0.0,0.0,0.0,0.0,0.0,0.0,0.0,0.0,0.0,0.0,0.0,0.0,0.0,0.0,0.0,0.0,0.0,0.0,0.0,0.0,0.0,0.0,0.0,0.0,0.0,0.0,0.0,0.0,0.0,0.0,0.0,0.0,0.0,0.0,0.0,0.0,0.0,0.0,0.0,0.0,0.0,0.0,0.0,0.0,0.0,0.0,0.0,0.0,0.0,0.0,0.0,0.0,0.0,0.0,0.0,0.0,0.0,0.0,0.0,0.0,0.0,0.0,0.0,0.0,0.0,0.0,0.0,0.0,0.0,0.0,0.0,0.0,0.0,0.0,0.0,0.0,0.0,0.0,0.0,0.0,0.0,0.0,0.0,0.0,0.0,0.0,0.0,0.0,0.0,0.0346,0.1042,0.1801,0.2661,0.0,0.0,0.0,0.0,0.0,0.0,0.0,0.0,0.0,0.0,0.0,0.0,0.0,0.0,0.0,0.0,0.0,0.0,0.0,0.0,0.0,0.0,0.0,0.0,0.0,0.0,0.0,0.0,0.0,0.0,0.0,0.0,0.0,0.0,0.0,0.0,0.0,0.0,0.0,0.0,0.0,0.0,0.0,0.0,0.0,0.0,0.0,0.0,0.0,0.0,0.0,0.0,0.0,0.0,0.0,0.0,0.0,0.0,0.0,0.0,0.0,0.0,0.0,0.0,0.0,0.0,0.0,0.0,0.0,0.0,0.0,0.0,0.0,0.0,0.0,0.0,0.0,0.0,0.0,0.0,0.0,0.0,0.0,0.0,0.0,0.0,0.0,0.0,0.0,0.0,0.0,0.0,0.0,0.0,0.0,0.0,0.0,0.0,0.0,0.0,0.0,0.0,0.0,0.0,0.0,0.0,0.0,0.0,0.0,0.0,0.0,0.0642,0.1119,0.195,0.3019,0.0,0.0,0.0,0.0,0.0,0.0,0.0,0.0,0.0,0.0,0.0,0.0,0.0,0.0,0.0,0.0,0.0,0.0,0.0,0.0,0.0,0.0,0.0,0.0,0.0,0.0,0.0,0.0,0.0,0.0,0.0,0.0,0.0,0.0,0.0,0.0,0.0,0.0,0.0,0.0,0.0,0.0,0.0,0.0,0.0,0.0,0.0,0.0,0.0,0.0,0.0,0.0,0.0,0.0,0.0,0.0,0.0,0.0,0.0,0.0,0.0,0.0,0.0,0.0,0.0,0.0,0.0,0.0,0.0,0.0,0.0,0.0,0.0,0.0,0.0,0.0,0.0,0.0,0.0,0.0,0.0,0.0,0.0,0.0,0.0,0.0,0.0,0.0,0.0,0.0,0.0,0.0,0.0,0.0,0.0,0.0,0.0,0.0,0.0,0.0,0.0,0.0,0.0,0.0,0.0,0.0,0.0,0.0,0.0,0.0,0.0,0.1002,0.1431,0.2167,0.3263]}]]